<?xml version="1.0" encoding="UTF-8" standalone="no" ?>
<gpx xmlns="http://www.topografix.com/GPX/1/1" xmlns:xsi="http://www.w3.org/2001/XMLSchema-instance" xsi:schemaLocation="http://www.topografix.com/GPX/1/1 http://www.topografix.com/GPX/1/1/gpx.xsd" version="1.1" creator="VisuGPX - https://www.visugpx.com">
  <metadata>
    <name>navigation Fabien</name>
    <desc><![CDATA[Reprise de contact entre Fabien et le Multimono. Vent force 3. GV normale. ]]></desc>
  </metadata>
  <trk>
    <name><![CDATA[ONmove 100 - 26/07/2014]]></name>
    <trkseg>
      <trkpt lat="44.49446" lon="-1.07902">
        <ele>21</ele>
        <time>2014-07-26T17:17:07Z</time>
      </trkpt>
      <trkpt lat="44.49422" lon="-1.07938">
        <ele>21</ele>
        <time>2014-07-26T17:18:49Z</time>
      </trkpt>
      <trkpt lat="44.49418" lon="-1.07944">
        <ele>21</ele>
        <time>2014-07-26T17:18:53Z</time>
      </trkpt>
      <trkpt lat="44.49412" lon="-1.07956">
        <ele>21</ele>
        <time>2014-07-26T17:19:02Z</time>
      </trkpt>
      <trkpt lat="44.49407" lon="-1.07963">
        <ele>21</ele>
        <time>2014-07-26T17:19:06Z</time>
      </trkpt>
      <trkpt lat="44.49398" lon="-1.07971">
        <ele>21</ele>
        <time>2014-07-26T17:19:11Z</time>
      </trkpt>
      <trkpt lat="44.49394" lon="-1.07975">
        <ele>21</ele>
        <time>2014-07-26T17:19:13Z</time>
      </trkpt>
      <trkpt lat="44.49389" lon="-1.0798">
        <ele>21</ele>
        <time>2014-07-26T17:19:16Z</time>
      </trkpt>
      <trkpt lat="44.49385" lon="-1.07985">
        <ele>21</ele>
        <time>2014-07-26T17:19:19Z</time>
      </trkpt>
      <trkpt lat="44.49381" lon="-1.07989">
        <ele>21</ele>
        <time>2014-07-26T17:19:21Z</time>
      </trkpt>
      <trkpt lat="44.49378" lon="-1.07994">
        <ele>21</ele>
        <time>2014-07-26T17:19:23Z</time>
      </trkpt>
      <trkpt lat="44.49372" lon="-1.07999">
        <ele>21</ele>
        <time>2014-07-26T17:19:26Z</time>
      </trkpt>
      <trkpt lat="44.49366" lon="-1.08004">
        <ele>21</ele>
        <time>2014-07-26T17:19:29Z</time>
      </trkpt>
      <trkpt lat="44.49363" lon="-1.08008">
        <ele>21</ele>
        <time>2014-07-26T17:19:31Z</time>
      </trkpt>
      <trkpt lat="44.4936" lon="-1.08013">
        <ele>21</ele>
        <time>2014-07-26T17:19:33Z</time>
      </trkpt>
      <trkpt lat="44.49355" lon="-1.0802">
        <ele>21</ele>
        <time>2014-07-26T17:19:36Z</time>
      </trkpt>
      <trkpt lat="44.49351" lon="-1.08025">
        <ele>21</ele>
        <time>2014-07-26T17:19:38Z</time>
      </trkpt>
      <trkpt lat="44.49346" lon="-1.08032">
        <ele>21</ele>
        <time>2014-07-26T17:19:41Z</time>
      </trkpt>
      <trkpt lat="44.49342" lon="-1.08037">
        <ele>21</ele>
        <time>2014-07-26T17:19:43Z</time>
      </trkpt>
      <trkpt lat="44.49337" lon="-1.08044">
        <ele>21</ele>
        <time>2014-07-26T17:19:46Z</time>
      </trkpt>
      <trkpt lat="44.49333" lon="-1.0805">
        <ele>21</ele>
        <time>2014-07-26T17:19:48Z</time>
      </trkpt>
      <trkpt lat="44.49327" lon="-1.08058">
        <ele>21</ele>
        <time>2014-07-26T17:19:51Z</time>
      </trkpt>
      <trkpt lat="44.49323" lon="-1.08063">
        <ele>21</ele>
        <time>2014-07-26T17:19:53Z</time>
      </trkpt>
      <trkpt lat="44.49318" lon="-1.08071">
        <ele>21</ele>
        <time>2014-07-26T17:19:56Z</time>
      </trkpt>
      <trkpt lat="44.49314" lon="-1.08077">
        <ele>21</ele>
        <time>2014-07-26T17:19:59Z</time>
      </trkpt>
      <trkpt lat="44.49309" lon="-1.08084">
        <ele>21</ele>
        <time>2014-07-26T17:20:02Z</time>
      </trkpt>
      <trkpt lat="44.49306" lon="-1.08089">
        <ele>21</ele>
        <time>2014-07-26T17:20:04Z</time>
      </trkpt>
      <trkpt lat="44.49302" lon="-1.08094">
        <ele>21</ele>
        <time>2014-07-26T17:20:06Z</time>
      </trkpt>
      <trkpt lat="44.49298" lon="-1.08098">
        <ele>21</ele>
        <time>2014-07-26T17:20:08Z</time>
      </trkpt>
      <trkpt lat="44.49294" lon="-1.08104">
        <ele>21</ele>
        <time>2014-07-26T17:20:11Z</time>
      </trkpt>
      <trkpt lat="44.4929" lon="-1.08109">
        <ele>21</ele>
        <time>2014-07-26T17:20:13Z</time>
      </trkpt>
      <trkpt lat="44.49286" lon="-1.08115">
        <ele>21</ele>
        <time>2014-07-26T17:20:16Z</time>
      </trkpt>
      <trkpt lat="44.49282" lon="-1.0812">
        <ele>21</ele>
        <time>2014-07-26T17:20:18Z</time>
      </trkpt>
      <trkpt lat="44.49278" lon="-1.08126">
        <ele>21</ele>
        <time>2014-07-26T17:20:21Z</time>
      </trkpt>
      <trkpt lat="44.49275" lon="-1.08131">
        <ele>21</ele>
        <time>2014-07-26T17:20:23Z</time>
      </trkpt>
      <trkpt lat="44.4927" lon="-1.08138">
        <ele>21</ele>
        <time>2014-07-26T17:20:26Z</time>
      </trkpt>
      <trkpt lat="44.49266" lon="-1.08144">
        <ele>21</ele>
        <time>2014-07-26T17:20:29Z</time>
      </trkpt>
      <trkpt lat="44.49261" lon="-1.0815">
        <ele>21</ele>
        <time>2014-07-26T17:20:32Z</time>
      </trkpt>
      <trkpt lat="44.49258" lon="-1.08155">
        <ele>21</ele>
        <time>2014-07-26T17:20:34Z</time>
      </trkpt>
      <trkpt lat="44.49255" lon="-1.0816">
        <ele>21</ele>
        <time>2014-07-26T17:20:36Z</time>
      </trkpt>
      <trkpt lat="44.49251" lon="-1.08164">
        <ele>21</ele>
        <time>2014-07-26T17:20:38Z</time>
      </trkpt>
      <trkpt lat="44.49246" lon="-1.08171">
        <ele>21</ele>
        <time>2014-07-26T17:20:41Z</time>
      </trkpt>
      <trkpt lat="44.49243" lon="-1.08176">
        <ele>21</ele>
        <time>2014-07-26T17:20:43Z</time>
      </trkpt>
      <trkpt lat="44.49237" lon="-1.08183">
        <ele>21</ele>
        <time>2014-07-26T17:20:46Z</time>
      </trkpt>
      <trkpt lat="44.49233" lon="-1.08188">
        <ele>21</ele>
        <time>2014-07-26T17:20:48Z</time>
      </trkpt>
      <trkpt lat="44.49228" lon="-1.08195">
        <ele>21</ele>
        <time>2014-07-26T17:20:51Z</time>
      </trkpt>
      <trkpt lat="44.49224" lon="-1.08199">
        <ele>21</ele>
        <time>2014-07-26T17:20:53Z</time>
      </trkpt>
      <trkpt lat="44.49219" lon="-1.08206">
        <ele>21</ele>
        <time>2014-07-26T17:20:56Z</time>
      </trkpt>
      <trkpt lat="44.49215" lon="-1.08211">
        <ele>21</ele>
        <time>2014-07-26T17:20:58Z</time>
      </trkpt>
      <trkpt lat="44.4921" lon="-1.08218">
        <ele>21</ele>
        <time>2014-07-26T17:21:01Z</time>
      </trkpt>
      <trkpt lat="44.49206" lon="-1.08223">
        <ele>21</ele>
        <time>2014-07-26T17:21:03Z</time>
      </trkpt>
      <trkpt lat="44.49201" lon="-1.08231">
        <ele>21</ele>
        <time>2014-07-26T17:21:06Z</time>
      </trkpt>
      <trkpt lat="44.49197" lon="-1.08236">
        <ele>21</ele>
        <time>2014-07-26T17:21:08Z</time>
      </trkpt>
      <trkpt lat="44.49193" lon="-1.08243">
        <ele>21</ele>
        <time>2014-07-26T17:21:11Z</time>
      </trkpt>
      <trkpt lat="44.49188" lon="-1.0825">
        <ele>21</ele>
        <time>2014-07-26T17:21:14Z</time>
      </trkpt>
      <trkpt lat="44.49185" lon="-1.08254">
        <ele>21</ele>
        <time>2014-07-26T17:21:16Z</time>
      </trkpt>
      <trkpt lat="44.49182" lon="-1.08259">
        <ele>21</ele>
        <time>2014-07-26T17:21:18Z</time>
      </trkpt>
      <trkpt lat="44.49177" lon="-1.08265">
        <ele>21</ele>
        <time>2014-07-26T17:21:21Z</time>
      </trkpt>
      <trkpt lat="44.49173" lon="-1.08269">
        <ele>21</ele>
        <time>2014-07-26T17:21:23Z</time>
      </trkpt>
      <trkpt lat="44.49168" lon="-1.08277">
        <ele>21</ele>
        <time>2014-07-26T17:21:26Z</time>
      </trkpt>
      <trkpt lat="44.49164" lon="-1.08282">
        <ele>21</ele>
        <time>2014-07-26T17:21:28Z</time>
      </trkpt>
      <trkpt lat="44.49159" lon="-1.08289">
        <ele>21</ele>
        <time>2014-07-26T17:21:31Z</time>
      </trkpt>
      <trkpt lat="44.49155" lon="-1.08293">
        <ele>21</ele>
        <time>2014-07-26T17:21:33Z</time>
      </trkpt>
      <trkpt lat="44.4915" lon="-1.08299">
        <ele>21</ele>
        <time>2014-07-26T17:21:36Z</time>
      </trkpt>
      <trkpt lat="44.49147" lon="-1.08303">
        <ele>21</ele>
        <time>2014-07-26T17:21:38Z</time>
      </trkpt>
      <trkpt lat="44.49141" lon="-1.0831">
        <ele>21</ele>
        <time>2014-07-26T17:21:41Z</time>
      </trkpt>
      <trkpt lat="44.49138" lon="-1.08315">
        <ele>21</ele>
        <time>2014-07-26T17:21:43Z</time>
      </trkpt>
      <trkpt lat="44.49132" lon="-1.08322">
        <ele>21</ele>
        <time>2014-07-26T17:21:46Z</time>
      </trkpt>
      <trkpt lat="44.49129" lon="-1.08326">
        <ele>21</ele>
        <time>2014-07-26T17:21:48Z</time>
      </trkpt>
      <trkpt lat="44.49124" lon="-1.08333">
        <ele>21</ele>
        <time>2014-07-26T17:21:51Z</time>
      </trkpt>
      <trkpt lat="44.4912" lon="-1.08337">
        <ele>21</ele>
        <time>2014-07-26T17:21:53Z</time>
      </trkpt>
      <trkpt lat="44.49115" lon="-1.08344">
        <ele>21</ele>
        <time>2014-07-26T17:21:56Z</time>
      </trkpt>
      <trkpt lat="44.49111" lon="-1.08349">
        <ele>21</ele>
        <time>2014-07-26T17:21:58Z</time>
      </trkpt>
      <trkpt lat="44.49106" lon="-1.08355">
        <ele>21</ele>
        <time>2014-07-26T17:22:01Z</time>
      </trkpt>
      <trkpt lat="44.49102" lon="-1.0836">
        <ele>21</ele>
        <time>2014-07-26T17:22:04Z</time>
      </trkpt>
      <trkpt lat="44.49097" lon="-1.08366">
        <ele>21</ele>
        <time>2014-07-26T17:22:07Z</time>
      </trkpt>
      <trkpt lat="44.49092" lon="-1.08374">
        <ele>21</ele>
        <time>2014-07-26T17:22:11Z</time>
      </trkpt>
      <trkpt lat="44.49089" lon="-1.08379">
        <ele>21</ele>
        <time>2014-07-26T17:22:14Z</time>
      </trkpt>
      <trkpt lat="44.49085" lon="-1.08385">
        <ele>21</ele>
        <time>2014-07-26T17:22:18Z</time>
      </trkpt>
      <trkpt lat="44.49082" lon="-1.08391">
        <ele>21</ele>
        <time>2014-07-26T17:22:22Z</time>
      </trkpt>
      <trkpt lat="44.49078" lon="-1.08396">
        <ele>21</ele>
        <time>2014-07-26T17:22:26Z</time>
      </trkpt>
      <trkpt lat="44.49074" lon="-1.08401">
        <ele>21</ele>
        <time>2014-07-26T17:22:29Z</time>
      </trkpt>
      <trkpt lat="44.49069" lon="-1.08406">
        <ele>21</ele>
        <time>2014-07-26T17:22:32Z</time>
      </trkpt>
      <trkpt lat="44.49063" lon="-1.08414">
        <ele>21</ele>
        <time>2014-07-26T17:22:36Z</time>
      </trkpt>
      <trkpt lat="44.49059" lon="-1.08419">
        <ele>21</ele>
        <time>2014-07-26T17:22:38Z</time>
      </trkpt>
      <trkpt lat="44.49054" lon="-1.08426">
        <ele>21</ele>
        <time>2014-07-26T17:22:41Z</time>
      </trkpt>
      <trkpt lat="44.4905" lon="-1.08431">
        <ele>21</ele>
        <time>2014-07-26T17:22:43Z</time>
      </trkpt>
      <trkpt lat="44.49045" lon="-1.08438">
        <ele>21</ele>
        <time>2014-07-26T17:22:46Z</time>
      </trkpt>
      <trkpt lat="44.4904" lon="-1.08445">
        <ele>21</ele>
        <time>2014-07-26T17:22:49Z</time>
      </trkpt>
      <trkpt lat="44.49036" lon="-1.08449">
        <ele>21</ele>
        <time>2014-07-26T17:22:51Z</time>
      </trkpt>
      <trkpt lat="44.49032" lon="-1.08453">
        <ele>21</ele>
        <time>2014-07-26T17:22:53Z</time>
      </trkpt>
      <trkpt lat="44.49027" lon="-1.08461">
        <ele>21</ele>
        <time>2014-07-26T17:22:56Z</time>
      </trkpt>
      <trkpt lat="44.49023" lon="-1.08466">
        <ele>21</ele>
        <time>2014-07-26T17:22:58Z</time>
      </trkpt>
      <trkpt lat="44.49017" lon="-1.08473">
        <ele>21</ele>
        <time>2014-07-26T17:23:01Z</time>
      </trkpt>
      <trkpt lat="44.49013" lon="-1.08477">
        <ele>21</ele>
        <time>2014-07-26T17:23:03Z</time>
      </trkpt>
      <trkpt lat="44.49007" lon="-1.08485">
        <ele>21</ele>
        <time>2014-07-26T17:23:06Z</time>
      </trkpt>
      <trkpt lat="44.49003" lon="-1.0849">
        <ele>21</ele>
        <time>2014-07-26T17:23:08Z</time>
      </trkpt>
      <trkpt lat="44.48998" lon="-1.08497">
        <ele>21</ele>
        <time>2014-07-26T17:23:11Z</time>
      </trkpt>
      <trkpt lat="44.48995" lon="-1.08503">
        <ele>21</ele>
        <time>2014-07-26T17:23:13Z</time>
      </trkpt>
      <trkpt lat="44.48991" lon="-1.08511">
        <ele>21</ele>
        <time>2014-07-26T17:23:16Z</time>
      </trkpt>
      <trkpt lat="44.48989" lon="-1.08516">
        <ele>21</ele>
        <time>2014-07-26T17:23:18Z</time>
      </trkpt>
      <trkpt lat="44.48984" lon="-1.08526">
        <ele>21</ele>
        <time>2014-07-26T17:23:21Z</time>
      </trkpt>
      <trkpt lat="44.4898" lon="-1.08531">
        <ele>21</ele>
        <time>2014-07-26T17:23:23Z</time>
      </trkpt>
      <trkpt lat="44.48976" lon="-1.08539">
        <ele>21</ele>
        <time>2014-07-26T17:23:26Z</time>
      </trkpt>
      <trkpt lat="44.48972" lon="-1.08546">
        <ele>21</ele>
        <time>2014-07-26T17:23:29Z</time>
      </trkpt>
      <trkpt lat="44.48968" lon="-1.08552">
        <ele>21</ele>
        <time>2014-07-26T17:23:31Z</time>
      </trkpt>
      <trkpt lat="44.48965" lon="-1.08557">
        <ele>21</ele>
        <time>2014-07-26T17:23:33Z</time>
      </trkpt>
      <trkpt lat="44.4896" lon="-1.08565">
        <ele>21</ele>
        <time>2014-07-26T17:23:36Z</time>
      </trkpt>
      <trkpt lat="44.48956" lon="-1.08572">
        <ele>21</ele>
        <time>2014-07-26T17:23:39Z</time>
      </trkpt>
      <trkpt lat="44.48952" lon="-1.08578">
        <ele>21</ele>
        <time>2014-07-26T17:23:42Z</time>
      </trkpt>
      <trkpt lat="44.48948" lon="-1.08582">
        <ele>21</ele>
        <time>2014-07-26T17:23:44Z</time>
      </trkpt>
      <trkpt lat="44.48944" lon="-1.08589">
        <ele>21</ele>
        <time>2014-07-26T17:23:47Z</time>
      </trkpt>
      <trkpt lat="44.48941" lon="-1.08593">
        <ele>21</ele>
        <time>2014-07-26T17:23:49Z</time>
      </trkpt>
      <trkpt lat="44.48938" lon="-1.08598">
        <ele>21</ele>
        <time>2014-07-26T17:23:51Z</time>
      </trkpt>
      <trkpt lat="44.4893" lon="-1.0861">
        <ele>21</ele>
        <time>2014-07-26T17:23:56Z</time>
      </trkpt>
      <trkpt lat="44.48927" lon="-1.08615">
        <ele>21</ele>
        <time>2014-07-26T17:23:58Z</time>
      </trkpt>
      <trkpt lat="44.48922" lon="-1.08624">
        <ele>21</ele>
        <time>2014-07-26T17:24:01Z</time>
      </trkpt>
      <trkpt lat="44.48919" lon="-1.08629">
        <ele>21</ele>
        <time>2014-07-26T17:24:03Z</time>
      </trkpt>
      <trkpt lat="44.48914" lon="-1.08636">
        <ele>21</ele>
        <time>2014-07-26T17:24:06Z</time>
      </trkpt>
      <trkpt lat="44.4891" lon="-1.08644">
        <ele>21</ele>
        <time>2014-07-26T17:24:09Z</time>
      </trkpt>
      <trkpt lat="44.48907" lon="-1.08649">
        <ele>21</ele>
        <time>2014-07-26T17:24:11Z</time>
      </trkpt>
      <trkpt lat="44.48905" lon="-1.08655">
        <ele>21</ele>
        <time>2014-07-26T17:24:13Z</time>
      </trkpt>
      <trkpt lat="44.489" lon="-1.08663">
        <ele>21</ele>
        <time>2014-07-26T17:24:16Z</time>
      </trkpt>
      <trkpt lat="44.48897" lon="-1.08671">
        <ele>21</ele>
        <time>2014-07-26T17:24:19Z</time>
      </trkpt>
      <trkpt lat="44.48894" lon="-1.08676">
        <ele>21</ele>
        <time>2014-07-26T17:24:21Z</time>
      </trkpt>
      <trkpt lat="44.48889" lon="-1.0869">
        <ele>21</ele>
        <time>2014-07-26T17:24:26Z</time>
      </trkpt>
      <trkpt lat="44.48886" lon="-1.08696">
        <ele>21</ele>
        <time>2014-07-26T17:24:28Z</time>
      </trkpt>
      <trkpt lat="44.48882" lon="-1.08705">
        <ele>21</ele>
        <time>2014-07-26T17:24:31Z</time>
      </trkpt>
      <trkpt lat="44.48879" lon="-1.08711">
        <ele>21</ele>
        <time>2014-07-26T17:24:33Z</time>
      </trkpt>
      <trkpt lat="44.48875" lon="-1.0872">
        <ele>21</ele>
        <time>2014-07-26T17:24:36Z</time>
      </trkpt>
      <trkpt lat="44.48872" lon="-1.08726">
        <ele>21</ele>
        <time>2014-07-26T17:24:38Z</time>
      </trkpt>
      <trkpt lat="44.48868" lon="-1.08734">
        <ele>21</ele>
        <time>2014-07-26T17:24:41Z</time>
      </trkpt>
      <trkpt lat="44.48865" lon="-1.0874">
        <ele>21</ele>
        <time>2014-07-26T17:24:43Z</time>
      </trkpt>
      <trkpt lat="44.48862" lon="-1.08748">
        <ele>21</ele>
        <time>2014-07-26T17:24:46Z</time>
      </trkpt>
      <trkpt lat="44.4886" lon="-1.08754">
        <ele>21</ele>
        <time>2014-07-26T17:24:48Z</time>
      </trkpt>
      <trkpt lat="44.48856" lon="-1.08762">
        <ele>21</ele>
        <time>2014-07-26T17:24:51Z</time>
      </trkpt>
      <trkpt lat="44.48853" lon="-1.0877">
        <ele>21</ele>
        <time>2014-07-26T17:24:54Z</time>
      </trkpt>
      <trkpt lat="44.48851" lon="-1.08777">
        <ele>21</ele>
        <time>2014-07-26T17:24:57Z</time>
      </trkpt>
      <trkpt lat="44.48847" lon="-1.08787">
        <ele>21</ele>
        <time>2014-07-26T17:25:01Z</time>
      </trkpt>
      <trkpt lat="44.48844" lon="-1.08793">
        <ele>21</ele>
        <time>2014-07-26T17:25:04Z</time>
      </trkpt>
      <trkpt lat="44.48841" lon="-1.088">
        <ele>21</ele>
        <time>2014-07-26T17:25:07Z</time>
      </trkpt>
      <trkpt lat="44.48838" lon="-1.08805">
        <ele>21</ele>
        <time>2014-07-26T17:25:09Z</time>
      </trkpt>
      <trkpt lat="44.48835" lon="-1.0881">
        <ele>21</ele>
        <time>2014-07-26T17:25:11Z</time>
      </trkpt>
      <trkpt lat="44.48833" lon="-1.08816">
        <ele>21</ele>
        <time>2014-07-26T17:25:13Z</time>
      </trkpt>
      <trkpt lat="44.4883" lon="-1.08825">
        <ele>21</ele>
        <time>2014-07-26T17:25:16Z</time>
      </trkpt>
      <trkpt lat="44.48827" lon="-1.08832">
        <ele>21</ele>
        <time>2014-07-26T17:25:19Z</time>
      </trkpt>
      <trkpt lat="44.48824" lon="-1.08838">
        <ele>21</ele>
        <time>2014-07-26T17:25:21Z</time>
      </trkpt>
      <trkpt lat="44.48822" lon="-1.08846">
        <ele>21</ele>
        <time>2014-07-26T17:25:24Z</time>
      </trkpt>
      <trkpt lat="44.48823" lon="-1.08852">
        <ele>21</ele>
        <time>2014-07-26T17:25:27Z</time>
      </trkpt>
      <trkpt lat="44.48827" lon="-1.08857">
        <ele>21</ele>
        <time>2014-07-26T17:25:32Z</time>
      </trkpt>
      <trkpt lat="44.48831" lon="-1.0886">
        <ele>21</ele>
        <time>2014-07-26T17:25:38Z</time>
      </trkpt>
      <trkpt lat="44.48836" lon="-1.08861">
        <ele>21</ele>
        <time>2014-07-26T17:25:43Z</time>
      </trkpt>
      <trkpt lat="44.48842" lon="-1.08863">
        <ele>21</ele>
        <time>2014-07-26T17:25:47Z</time>
      </trkpt>
      <trkpt lat="44.48847" lon="-1.08866">
        <ele>21</ele>
        <time>2014-07-26T17:25:51Z</time>
      </trkpt>
      <trkpt lat="44.48857" lon="-1.08872">
        <ele>21</ele>
        <time>2014-07-26T17:25:58Z</time>
      </trkpt>
      <trkpt lat="44.48862" lon="-1.08875">
        <ele>21</ele>
        <time>2014-07-26T17:26:02Z</time>
      </trkpt>
      <trkpt lat="44.48868" lon="-1.08877">
        <ele>21</ele>
        <time>2014-07-26T17:26:06Z</time>
      </trkpt>
      <trkpt lat="44.48873" lon="-1.0888">
        <ele>21</ele>
        <time>2014-07-26T17:26:09Z</time>
      </trkpt>
      <trkpt lat="44.48878" lon="-1.08883">
        <ele>21</ele>
        <time>2014-07-26T17:26:12Z</time>
      </trkpt>
      <trkpt lat="44.48884" lon="-1.08887">
        <ele>21</ele>
        <time>2014-07-26T17:26:16Z</time>
      </trkpt>
      <trkpt lat="44.48888" lon="-1.08889">
        <ele>21</ele>
        <time>2014-07-26T17:26:19Z</time>
      </trkpt>
      <trkpt lat="44.48893" lon="-1.08893">
        <ele>21</ele>
        <time>2014-07-26T17:26:23Z</time>
      </trkpt>
      <trkpt lat="44.48898" lon="-1.08896">
        <ele>21</ele>
        <time>2014-07-26T17:26:26Z</time>
      </trkpt>
      <trkpt lat="44.48903" lon="-1.08899">
        <ele>21</ele>
        <time>2014-07-26T17:26:29Z</time>
      </trkpt>
      <trkpt lat="44.48907" lon="-1.08902">
        <ele>21</ele>
        <time>2014-07-26T17:26:32Z</time>
      </trkpt>
      <trkpt lat="44.48913" lon="-1.08906">
        <ele>21</ele>
        <time>2014-07-26T17:26:36Z</time>
      </trkpt>
      <trkpt lat="44.48918" lon="-1.08908">
        <ele>21</ele>
        <time>2014-07-26T17:26:39Z</time>
      </trkpt>
      <trkpt lat="44.48923" lon="-1.08911">
        <ele>21</ele>
        <time>2014-07-26T17:26:42Z</time>
      </trkpt>
      <trkpt lat="44.48929" lon="-1.08915">
        <ele>21</ele>
        <time>2014-07-26T17:26:46Z</time>
      </trkpt>
      <trkpt lat="44.48935" lon="-1.08918">
        <ele>21</ele>
        <time>2014-07-26T17:26:49Z</time>
      </trkpt>
      <trkpt lat="44.48939" lon="-1.0892">
        <ele>21</ele>
        <time>2014-07-26T17:26:51Z</time>
      </trkpt>
      <trkpt lat="44.48945" lon="-1.08923">
        <ele>21</ele>
        <time>2014-07-26T17:26:54Z</time>
      </trkpt>
      <trkpt lat="44.48949" lon="-1.08925">
        <ele>21</ele>
        <time>2014-07-26T17:26:57Z</time>
      </trkpt>
      <trkpt lat="44.48955" lon="-1.0893">
        <ele>21</ele>
        <time>2014-07-26T17:27:01Z</time>
      </trkpt>
      <trkpt lat="44.4896" lon="-1.08933">
        <ele>21</ele>
        <time>2014-07-26T17:27:04Z</time>
      </trkpt>
      <trkpt lat="44.48964" lon="-1.08935">
        <ele>21</ele>
        <time>2014-07-26T17:27:07Z</time>
      </trkpt>
      <trkpt lat="44.4897" lon="-1.08938">
        <ele>21</ele>
        <time>2014-07-26T17:27:11Z</time>
      </trkpt>
      <trkpt lat="44.48975" lon="-1.0894">
        <ele>21</ele>
        <time>2014-07-26T17:27:14Z</time>
      </trkpt>
      <trkpt lat="44.4898" lon="-1.08942">
        <ele>21</ele>
        <time>2014-07-26T17:27:17Z</time>
      </trkpt>
      <trkpt lat="44.48987" lon="-1.08945">
        <ele>21</ele>
        <time>2014-07-26T17:27:21Z</time>
      </trkpt>
      <trkpt lat="44.48993" lon="-1.08947">
        <ele>21</ele>
        <time>2014-07-26T17:27:24Z</time>
      </trkpt>
      <trkpt lat="44.48998" lon="-1.08949">
        <ele>21</ele>
        <time>2014-07-26T17:27:27Z</time>
      </trkpt>
      <trkpt lat="44.49006" lon="-1.08952">
        <ele>21</ele>
        <time>2014-07-26T17:27:31Z</time>
      </trkpt>
      <trkpt lat="44.49012" lon="-1.08954">
        <ele>21</ele>
        <time>2014-07-26T17:27:34Z</time>
      </trkpt>
      <trkpt lat="44.49017" lon="-1.08956">
        <ele>21</ele>
        <time>2014-07-26T17:27:37Z</time>
      </trkpt>
      <trkpt lat="44.49025" lon="-1.0896">
        <ele>21</ele>
        <time>2014-07-26T17:27:41Z</time>
      </trkpt>
      <trkpt lat="44.49029" lon="-1.08963">
        <ele>21</ele>
        <time>2014-07-26T17:27:44Z</time>
      </trkpt>
      <trkpt lat="44.49034" lon="-1.08966">
        <ele>21</ele>
        <time>2014-07-26T17:27:47Z</time>
      </trkpt>
      <trkpt lat="44.49039" lon="-1.08969">
        <ele>21</ele>
        <time>2014-07-26T17:27:51Z</time>
      </trkpt>
      <trkpt lat="44.49045" lon="-1.0897">
        <ele>21</ele>
        <time>2014-07-26T17:27:54Z</time>
      </trkpt>
      <trkpt lat="44.49049" lon="-1.08973">
        <ele>21</ele>
        <time>2014-07-26T17:27:57Z</time>
      </trkpt>
      <trkpt lat="44.49054" lon="-1.08977">
        <ele>21</ele>
        <time>2014-07-26T17:28:01Z</time>
      </trkpt>
      <trkpt lat="44.4906" lon="-1.08979">
        <ele>21</ele>
        <time>2014-07-26T17:28:04Z</time>
      </trkpt>
      <trkpt lat="44.49065" lon="-1.08982">
        <ele>21</ele>
        <time>2014-07-26T17:28:07Z</time>
      </trkpt>
      <trkpt lat="44.49072" lon="-1.08986">
        <ele>21</ele>
        <time>2014-07-26T17:28:11Z</time>
      </trkpt>
      <trkpt lat="44.49077" lon="-1.08989">
        <ele>21</ele>
        <time>2014-07-26T17:28:14Z</time>
      </trkpt>
      <trkpt lat="44.49083" lon="-1.08992">
        <ele>21</ele>
        <time>2014-07-26T17:28:18Z</time>
      </trkpt>
      <trkpt lat="44.49088" lon="-1.08995">
        <ele>21</ele>
        <time>2014-07-26T17:28:21Z</time>
      </trkpt>
      <trkpt lat="44.49092" lon="-1.08998">
        <ele>21</ele>
        <time>2014-07-26T17:28:24Z</time>
      </trkpt>
      <trkpt lat="44.49096" lon="-1.09009">
        <ele>21</ele>
        <time>2014-07-26T17:28:33Z</time>
      </trkpt>
      <trkpt lat="44.49093" lon="-1.09013">
        <ele>21</ele>
        <time>2014-07-26T17:28:39Z</time>
      </trkpt>
      <trkpt lat="44.49089" lon="-1.09017">
        <ele>21</ele>
        <time>2014-07-26T17:28:42Z</time>
      </trkpt>
      <trkpt lat="44.49085" lon="-1.09024">
        <ele>21</ele>
        <time>2014-07-26T17:28:46Z</time>
      </trkpt>
      <trkpt lat="44.4908" lon="-1.0903">
        <ele>21</ele>
        <time>2014-07-26T17:28:49Z</time>
      </trkpt>
      <trkpt lat="44.49077" lon="-1.09035">
        <ele>21</ele>
        <time>2014-07-26T17:28:51Z</time>
      </trkpt>
      <trkpt lat="44.49072" lon="-1.09042">
        <ele>21</ele>
        <time>2014-07-26T17:28:54Z</time>
      </trkpt>
      <trkpt lat="44.49069" lon="-1.09047">
        <ele>21</ele>
        <time>2014-07-26T17:28:56Z</time>
      </trkpt>
      <trkpt lat="44.49065" lon="-1.09053">
        <ele>21</ele>
        <time>2014-07-26T17:28:58Z</time>
      </trkpt>
      <trkpt lat="44.4906" lon="-1.09062">
        <ele>21</ele>
        <time>2014-07-26T17:29:01Z</time>
      </trkpt>
      <trkpt lat="44.49056" lon="-1.09067">
        <ele>21</ele>
        <time>2014-07-26T17:29:03Z</time>
      </trkpt>
      <trkpt lat="44.4905" lon="-1.09075">
        <ele>21</ele>
        <time>2014-07-26T17:29:06Z</time>
      </trkpt>
      <trkpt lat="44.49046" lon="-1.0908">
        <ele>21</ele>
        <time>2014-07-26T17:29:08Z</time>
      </trkpt>
      <trkpt lat="44.49041" lon="-1.09088">
        <ele>21</ele>
        <time>2014-07-26T17:29:11Z</time>
      </trkpt>
      <trkpt lat="44.49038" lon="-1.09094">
        <ele>21</ele>
        <time>2014-07-26T17:29:13Z</time>
      </trkpt>
      <trkpt lat="44.49033" lon="-1.09103">
        <ele>21</ele>
        <time>2014-07-26T17:29:16Z</time>
      </trkpt>
      <trkpt lat="44.4903" lon="-1.09109">
        <ele>21</ele>
        <time>2014-07-26T17:29:18Z</time>
      </trkpt>
      <trkpt lat="44.49024" lon="-1.09117">
        <ele>21</ele>
        <time>2014-07-26T17:29:21Z</time>
      </trkpt>
      <trkpt lat="44.49021" lon="-1.09123">
        <ele>21</ele>
        <time>2014-07-26T17:29:23Z</time>
      </trkpt>
      <trkpt lat="44.49016" lon="-1.09131">
        <ele>21</ele>
        <time>2014-07-26T17:29:26Z</time>
      </trkpt>
      <trkpt lat="44.49013" lon="-1.09137">
        <ele>21</ele>
        <time>2014-07-26T17:29:28Z</time>
      </trkpt>
      <trkpt lat="44.49007" lon="-1.09145">
        <ele>21</ele>
        <time>2014-07-26T17:29:31Z</time>
      </trkpt>
      <trkpt lat="44.49004" lon="-1.0915">
        <ele>21</ele>
        <time>2014-07-26T17:29:33Z</time>
      </trkpt>
      <trkpt lat="44.49" lon="-1.09157">
        <ele>21</ele>
        <time>2014-07-26T17:29:36Z</time>
      </trkpt>
      <trkpt lat="44.48997" lon="-1.09163">
        <ele>21</ele>
        <time>2014-07-26T17:29:39Z</time>
      </trkpt>
      <trkpt lat="44.48994" lon="-1.09169">
        <ele>21</ele>
        <time>2014-07-26T17:29:42Z</time>
      </trkpt>
      <trkpt lat="44.48988" lon="-1.09178">
        <ele>21</ele>
        <time>2014-07-26T17:29:46Z</time>
      </trkpt>
      <trkpt lat="44.48985" lon="-1.09183">
        <ele>21</ele>
        <time>2014-07-26T17:29:48Z</time>
      </trkpt>
      <trkpt lat="44.4898" lon="-1.0919">
        <ele>21</ele>
        <time>2014-07-26T17:29:51Z</time>
      </trkpt>
      <trkpt lat="44.48977" lon="-1.09196">
        <ele>21</ele>
        <time>2014-07-26T17:29:53Z</time>
      </trkpt>
      <trkpt lat="44.48972" lon="-1.09204">
        <ele>21</ele>
        <time>2014-07-26T17:29:56Z</time>
      </trkpt>
      <trkpt lat="44.48969" lon="-1.0921">
        <ele>21</ele>
        <time>2014-07-26T17:29:58Z</time>
      </trkpt>
      <trkpt lat="44.48963" lon="-1.09218">
        <ele>21</ele>
        <time>2014-07-26T17:30:01Z</time>
      </trkpt>
      <trkpt lat="44.48959" lon="-1.09223">
        <ele>21</ele>
        <time>2014-07-26T17:30:03Z</time>
      </trkpt>
      <trkpt lat="44.48953" lon="-1.0923">
        <ele>21</ele>
        <time>2014-07-26T17:30:06Z</time>
      </trkpt>
      <trkpt lat="44.48949" lon="-1.09235">
        <ele>21</ele>
        <time>2014-07-26T17:30:08Z</time>
      </trkpt>
      <trkpt lat="44.48943" lon="-1.09242">
        <ele>21</ele>
        <time>2014-07-26T17:30:11Z</time>
      </trkpt>
      <trkpt lat="44.48939" lon="-1.09246">
        <ele>21</ele>
        <time>2014-07-26T17:30:13Z</time>
      </trkpt>
      <trkpt lat="44.48932" lon="-1.09253">
        <ele>21</ele>
        <time>2014-07-26T17:30:16Z</time>
      </trkpt>
      <trkpt lat="44.48927" lon="-1.09258">
        <ele>21</ele>
        <time>2014-07-26T17:30:18Z</time>
      </trkpt>
      <trkpt lat="44.4892" lon="-1.09264">
        <ele>21</ele>
        <time>2014-07-26T17:30:21Z</time>
      </trkpt>
      <trkpt lat="44.48915" lon="-1.09268">
        <ele>21</ele>
        <time>2014-07-26T17:30:23Z</time>
      </trkpt>
      <trkpt lat="44.48907" lon="-1.09274">
        <ele>21</ele>
        <time>2014-07-26T17:30:26Z</time>
      </trkpt>
      <trkpt lat="44.48903" lon="-1.09278">
        <ele>21</ele>
        <time>2014-07-26T17:30:28Z</time>
      </trkpt>
      <trkpt lat="44.48895" lon="-1.09284">
        <ele>21</ele>
        <time>2014-07-26T17:30:31Z</time>
      </trkpt>
      <trkpt lat="44.4889" lon="-1.09288">
        <ele>21</ele>
        <time>2014-07-26T17:30:33Z</time>
      </trkpt>
      <trkpt lat="44.48883" lon="-1.09294">
        <ele>21</ele>
        <time>2014-07-26T17:30:36Z</time>
      </trkpt>
      <trkpt lat="44.48878" lon="-1.09298">
        <ele>21</ele>
        <time>2014-07-26T17:30:38Z</time>
      </trkpt>
      <trkpt lat="44.4887" lon="-1.09303">
        <ele>21</ele>
        <time>2014-07-26T17:30:41Z</time>
      </trkpt>
      <trkpt lat="44.48866" lon="-1.09307">
        <ele>21</ele>
        <time>2014-07-26T17:30:43Z</time>
      </trkpt>
      <trkpt lat="44.48857" lon="-1.09314">
        <ele>21</ele>
        <time>2014-07-26T17:30:46Z</time>
      </trkpt>
      <trkpt lat="44.48853" lon="-1.09318">
        <ele>21</ele>
        <time>2014-07-26T17:30:48Z</time>
      </trkpt>
      <trkpt lat="44.48849" lon="-1.09325">
        <ele>21</ele>
        <time>2014-07-26T17:30:51Z</time>
      </trkpt>
      <trkpt lat="44.48849" lon="-1.09332">
        <ele>21</ele>
        <time>2014-07-26T17:30:54Z</time>
      </trkpt>
      <trkpt lat="44.48852" lon="-1.09337">
        <ele>21</ele>
        <time>2014-07-26T17:30:59Z</time>
      </trkpt>
      <trkpt lat="44.48857" lon="-1.09339">
        <ele>21</ele>
        <time>2014-07-26T17:31:03Z</time>
      </trkpt>
      <trkpt lat="44.48862" lon="-1.09341">
        <ele>21</ele>
        <time>2014-07-26T17:31:06Z</time>
      </trkpt>
      <trkpt lat="44.48867" lon="-1.09343">
        <ele>21</ele>
        <time>2014-07-26T17:31:09Z</time>
      </trkpt>
      <trkpt lat="44.48872" lon="-1.09346">
        <ele>21</ele>
        <time>2014-07-26T17:31:12Z</time>
      </trkpt>
      <trkpt lat="44.48878" lon="-1.0935">
        <ele>21</ele>
        <time>2014-07-26T17:31:16Z</time>
      </trkpt>
      <trkpt lat="44.48883" lon="-1.09353">
        <ele>21</ele>
        <time>2014-07-26T17:31:19Z</time>
      </trkpt>
      <trkpt lat="44.48888" lon="-1.09355">
        <ele>21</ele>
        <time>2014-07-26T17:31:22Z</time>
      </trkpt>
      <trkpt lat="44.48894" lon="-1.09358">
        <ele>21</ele>
        <time>2014-07-26T17:31:26Z</time>
      </trkpt>
      <trkpt lat="44.48899" lon="-1.09361">
        <ele>21</ele>
        <time>2014-07-26T17:31:29Z</time>
      </trkpt>
      <trkpt lat="44.48905" lon="-1.09365">
        <ele>21</ele>
        <time>2014-07-26T17:31:33Z</time>
      </trkpt>
      <trkpt lat="44.48909" lon="-1.09368">
        <ele>21</ele>
        <time>2014-07-26T17:31:37Z</time>
      </trkpt>
      <trkpt lat="44.48914" lon="-1.09372">
        <ele>21</ele>
        <time>2014-07-26T17:31:41Z</time>
      </trkpt>
      <trkpt lat="44.48919" lon="-1.09375">
        <ele>21</ele>
        <time>2014-07-26T17:31:46Z</time>
      </trkpt>
      <trkpt lat="44.48925" lon="-1.09376">
        <ele>21</ele>
        <time>2014-07-26T17:31:51Z</time>
      </trkpt>
      <trkpt lat="44.48932" lon="-1.09377">
        <ele>21</ele>
        <time>2014-07-26T17:31:56Z</time>
      </trkpt>
      <trkpt lat="44.48938" lon="-1.09378">
        <ele>21</ele>
        <time>2014-07-26T17:32:01Z</time>
      </trkpt>
      <trkpt lat="44.48943" lon="-1.09378">
        <ele>21</ele>
        <time>2014-07-26T17:32:04Z</time>
      </trkpt>
      <trkpt lat="44.48948" lon="-1.0938">
        <ele>21</ele>
        <time>2014-07-26T17:32:07Z</time>
      </trkpt>
      <trkpt lat="44.48956" lon="-1.09382">
        <ele>21</ele>
        <time>2014-07-26T17:32:11Z</time>
      </trkpt>
      <trkpt lat="44.48962" lon="-1.09385">
        <ele>21</ele>
        <time>2014-07-26T17:32:14Z</time>
      </trkpt>
      <trkpt lat="44.48968" lon="-1.09386">
        <ele>21</ele>
        <time>2014-07-26T17:32:17Z</time>
      </trkpt>
      <trkpt lat="44.48975" lon="-1.0939">
        <ele>21</ele>
        <time>2014-07-26T17:32:21Z</time>
      </trkpt>
      <trkpt lat="44.48981" lon="-1.09392">
        <ele>21</ele>
        <time>2014-07-26T17:32:24Z</time>
      </trkpt>
      <trkpt lat="44.48987" lon="-1.09395">
        <ele>21</ele>
        <time>2014-07-26T17:32:27Z</time>
      </trkpt>
      <trkpt lat="44.48994" lon="-1.09398">
        <ele>21</ele>
        <time>2014-07-26T17:32:31Z</time>
      </trkpt>
      <trkpt lat="44.49" lon="-1.09401">
        <ele>21</ele>
        <time>2014-07-26T17:32:34Z</time>
      </trkpt>
      <trkpt lat="44.49006" lon="-1.09403">
        <ele>21</ele>
        <time>2014-07-26T17:32:37Z</time>
      </trkpt>
      <trkpt lat="44.49013" lon="-1.09406">
        <ele>21</ele>
        <time>2014-07-26T17:32:41Z</time>
      </trkpt>
      <trkpt lat="44.4902" lon="-1.09408">
        <ele>21</ele>
        <time>2014-07-26T17:32:44Z</time>
      </trkpt>
      <trkpt lat="44.49024" lon="-1.09409">
        <ele>21</ele>
        <time>2014-07-26T17:32:46Z</time>
      </trkpt>
      <trkpt lat="44.49031" lon="-1.09413">
        <ele>21</ele>
        <time>2014-07-26T17:32:49Z</time>
      </trkpt>
      <trkpt lat="44.49037" lon="-1.09415">
        <ele>21</ele>
        <time>2014-07-26T17:32:52Z</time>
      </trkpt>
      <trkpt lat="44.49042" lon="-1.09417">
        <ele>21</ele>
        <time>2014-07-26T17:32:54Z</time>
      </trkpt>
      <trkpt lat="44.49047" lon="-1.0942">
        <ele>21</ele>
        <time>2014-07-26T17:32:57Z</time>
      </trkpt>
      <trkpt lat="44.49055" lon="-1.09424">
        <ele>21</ele>
        <time>2014-07-26T17:33:01Z</time>
      </trkpt>
      <trkpt lat="44.49061" lon="-1.09427">
        <ele>21</ele>
        <time>2014-07-26T17:33:04Z</time>
      </trkpt>
      <trkpt lat="44.49067" lon="-1.0943">
        <ele>21</ele>
        <time>2014-07-26T17:33:07Z</time>
      </trkpt>
      <trkpt lat="44.49073" lon="-1.09432">
        <ele>21</ele>
        <time>2014-07-26T17:33:11Z</time>
      </trkpt>
      <trkpt lat="44.49079" lon="-1.09435">
        <ele>21</ele>
        <time>2014-07-26T17:33:16Z</time>
      </trkpt>
      <trkpt lat="44.49083" lon="-1.09438">
        <ele>21</ele>
        <time>2014-07-26T17:33:21Z</time>
      </trkpt>
      <trkpt lat="44.49091" lon="-1.09439">
        <ele>21</ele>
        <time>2014-07-26T17:33:26Z</time>
      </trkpt>
      <trkpt lat="44.49097" lon="-1.0944">
        <ele>21</ele>
        <time>2014-07-26T17:33:29Z</time>
      </trkpt>
      <trkpt lat="44.49103" lon="-1.0944">
        <ele>21</ele>
        <time>2014-07-26T17:33:32Z</time>
      </trkpt>
      <trkpt lat="44.49111" lon="-1.09442">
        <ele>21</ele>
        <time>2014-07-26T17:33:36Z</time>
      </trkpt>
      <trkpt lat="44.49117" lon="-1.09443">
        <ele>21</ele>
        <time>2014-07-26T17:33:39Z</time>
      </trkpt>
      <trkpt lat="44.49123" lon="-1.09444">
        <ele>21</ele>
        <time>2014-07-26T17:33:42Z</time>
      </trkpt>
      <trkpt lat="44.49132" lon="-1.09445">
        <ele>21</ele>
        <time>2014-07-26T17:33:46Z</time>
      </trkpt>
      <trkpt lat="44.49143" lon="-1.09448">
        <ele>21</ele>
        <time>2014-07-26T17:33:51Z</time>
      </trkpt>
      <trkpt lat="44.49149" lon="-1.0945">
        <ele>21</ele>
        <time>2014-07-26T17:33:54Z</time>
      </trkpt>
      <trkpt lat="44.49156" lon="-1.09453">
        <ele>21</ele>
        <time>2014-07-26T17:33:57Z</time>
      </trkpt>
      <trkpt lat="44.49164" lon="-1.09458">
        <ele>21</ele>
        <time>2014-07-26T17:34:02Z</time>
      </trkpt>
      <trkpt lat="44.49162" lon="-1.09469">
        <ele>21</ele>
        <time>2014-07-26T17:34:13Z</time>
      </trkpt>
      <trkpt lat="44.49158" lon="-1.09475">
        <ele>21</ele>
        <time>2014-07-26T17:34:16Z</time>
      </trkpt>
      <trkpt lat="44.49155" lon="-1.09482">
        <ele>21</ele>
        <time>2014-07-26T17:34:19Z</time>
      </trkpt>
      <trkpt lat="44.49151" lon="-1.09488">
        <ele>21</ele>
        <time>2014-07-26T17:34:22Z</time>
      </trkpt>
      <trkpt lat="44.49147" lon="-1.09496">
        <ele>21</ele>
        <time>2014-07-26T17:34:26Z</time>
      </trkpt>
      <trkpt lat="44.49143" lon="-1.09502">
        <ele>21</ele>
        <time>2014-07-26T17:34:29Z</time>
      </trkpt>
      <trkpt lat="44.49139" lon="-1.09508">
        <ele>21</ele>
        <time>2014-07-26T17:34:32Z</time>
      </trkpt>
      <trkpt lat="44.49135" lon="-1.09517">
        <ele>21</ele>
        <time>2014-07-26T17:34:36Z</time>
      </trkpt>
      <trkpt lat="44.4913" lon="-1.09524">
        <ele>21</ele>
        <time>2014-07-26T17:34:39Z</time>
      </trkpt>
      <trkpt lat="44.49126" lon="-1.0953">
        <ele>21</ele>
        <time>2014-07-26T17:34:42Z</time>
      </trkpt>
      <trkpt lat="44.49121" lon="-1.09541">
        <ele>21</ele>
        <time>2014-07-26T17:34:46Z</time>
      </trkpt>
      <trkpt lat="44.49119" lon="-1.09546">
        <ele>21</ele>
        <time>2014-07-26T17:34:48Z</time>
      </trkpt>
      <trkpt lat="44.49114" lon="-1.09554">
        <ele>21</ele>
        <time>2014-07-26T17:34:51Z</time>
      </trkpt>
      <trkpt lat="44.49111" lon="-1.09559">
        <ele>21</ele>
        <time>2014-07-26T17:34:53Z</time>
      </trkpt>
      <trkpt lat="44.49105" lon="-1.09565">
        <ele>21</ele>
        <time>2014-07-26T17:34:56Z</time>
      </trkpt>
      <trkpt lat="44.49101" lon="-1.0957">
        <ele>21</ele>
        <time>2014-07-26T17:34:58Z</time>
      </trkpt>
      <trkpt lat="44.49097" lon="-1.09578">
        <ele>21</ele>
        <time>2014-07-26T17:35:01Z</time>
      </trkpt>
      <trkpt lat="44.49092" lon="-1.09582">
        <ele>21</ele>
        <time>2014-07-26T17:35:03Z</time>
      </trkpt>
      <trkpt lat="44.49086" lon="-1.09588">
        <ele>21</ele>
        <time>2014-07-26T17:35:06Z</time>
      </trkpt>
      <trkpt lat="44.49082" lon="-1.09593">
        <ele>21</ele>
        <time>2014-07-26T17:35:08Z</time>
      </trkpt>
      <trkpt lat="44.49076" lon="-1.096">
        <ele>21</ele>
        <time>2014-07-26T17:35:11Z</time>
      </trkpt>
      <trkpt lat="44.49073" lon="-1.09606">
        <ele>21</ele>
        <time>2014-07-26T17:35:13Z</time>
      </trkpt>
      <trkpt lat="44.49068" lon="-1.09615">
        <ele>21</ele>
        <time>2014-07-26T17:35:16Z</time>
      </trkpt>
      <trkpt lat="44.49064" lon="-1.09621">
        <ele>21</ele>
        <time>2014-07-26T17:35:18Z</time>
      </trkpt>
      <trkpt lat="44.49059" lon="-1.0963">
        <ele>21</ele>
        <time>2014-07-26T17:35:21Z</time>
      </trkpt>
      <trkpt lat="44.49056" lon="-1.09636">
        <ele>21</ele>
        <time>2014-07-26T17:35:23Z</time>
      </trkpt>
      <trkpt lat="44.4905" lon="-1.09645">
        <ele>21</ele>
        <time>2014-07-26T17:35:26Z</time>
      </trkpt>
      <trkpt lat="44.49047" lon="-1.09651">
        <ele>21</ele>
        <time>2014-07-26T17:35:28Z</time>
      </trkpt>
      <trkpt lat="44.49041" lon="-1.09659">
        <ele>21</ele>
        <time>2014-07-26T17:35:31Z</time>
      </trkpt>
      <trkpt lat="44.49037" lon="-1.09665">
        <ele>21</ele>
        <time>2014-07-26T17:35:33Z</time>
      </trkpt>
      <trkpt lat="44.49031" lon="-1.09674">
        <ele>21</ele>
        <time>2014-07-26T17:35:36Z</time>
      </trkpt>
      <trkpt lat="44.49028" lon="-1.09679">
        <ele>21</ele>
        <time>2014-07-26T17:35:38Z</time>
      </trkpt>
      <trkpt lat="44.49023" lon="-1.09689">
        <ele>21</ele>
        <time>2014-07-26T17:35:41Z</time>
      </trkpt>
      <trkpt lat="44.49019" lon="-1.09694">
        <ele>21</ele>
        <time>2014-07-26T17:35:43Z</time>
      </trkpt>
      <trkpt lat="44.49015" lon="-1.09703">
        <ele>21</ele>
        <time>2014-07-26T17:35:46Z</time>
      </trkpt>
      <trkpt lat="44.49012" lon="-1.09709">
        <ele>21</ele>
        <time>2014-07-26T17:35:48Z</time>
      </trkpt>
      <trkpt lat="44.49008" lon="-1.09718">
        <ele>21</ele>
        <time>2014-07-26T17:35:51Z</time>
      </trkpt>
      <trkpt lat="44.49006" lon="-1.09724">
        <ele>21</ele>
        <time>2014-07-26T17:35:53Z</time>
      </trkpt>
      <trkpt lat="44.49002" lon="-1.09733">
        <ele>21</ele>
        <time>2014-07-26T17:35:56Z</time>
      </trkpt>
      <trkpt lat="44.49" lon="-1.09739">
        <ele>21</ele>
        <time>2014-07-26T17:35:58Z</time>
      </trkpt>
      <trkpt lat="44.48997" lon="-1.09747">
        <ele>21</ele>
        <time>2014-07-26T17:36:01Z</time>
      </trkpt>
      <trkpt lat="44.48994" lon="-1.09755">
        <ele>21</ele>
        <time>2014-07-26T17:36:04Z</time>
      </trkpt>
      <trkpt lat="44.4899" lon="-1.09763">
        <ele>21</ele>
        <time>2014-07-26T17:36:07Z</time>
      </trkpt>
      <trkpt lat="44.48985" lon="-1.09772">
        <ele>21</ele>
        <time>2014-07-26T17:36:11Z</time>
      </trkpt>
      <trkpt lat="44.48982" lon="-1.09778">
        <ele>21</ele>
        <time>2014-07-26T17:36:13Z</time>
      </trkpt>
      <trkpt lat="44.48977" lon="-1.09785">
        <ele>21</ele>
        <time>2014-07-26T17:36:16Z</time>
      </trkpt>
      <trkpt lat="44.48974" lon="-1.09791">
        <ele>21</ele>
        <time>2014-07-26T17:36:18Z</time>
      </trkpt>
      <trkpt lat="44.48969" lon="-1.09798">
        <ele>21</ele>
        <time>2014-07-26T17:36:21Z</time>
      </trkpt>
      <trkpt lat="44.48965" lon="-1.09803">
        <ele>21</ele>
        <time>2014-07-26T17:36:23Z</time>
      </trkpt>
      <trkpt lat="44.48961" lon="-1.09811">
        <ele>21</ele>
        <time>2014-07-26T17:36:26Z</time>
      </trkpt>
      <trkpt lat="44.48957" lon="-1.09817">
        <ele>21</ele>
        <time>2014-07-26T17:36:28Z</time>
      </trkpt>
      <trkpt lat="44.48953" lon="-1.09826">
        <ele>21</ele>
        <time>2014-07-26T17:36:31Z</time>
      </trkpt>
      <trkpt lat="44.48949" lon="-1.09832">
        <ele>21</ele>
        <time>2014-07-26T17:36:33Z</time>
      </trkpt>
      <trkpt lat="44.48945" lon="-1.09841">
        <ele>21</ele>
        <time>2014-07-26T17:36:36Z</time>
      </trkpt>
      <trkpt lat="44.48942" lon="-1.09846">
        <ele>21</ele>
        <time>2014-07-26T17:36:38Z</time>
      </trkpt>
      <trkpt lat="44.48939" lon="-1.09855">
        <ele>21</ele>
        <time>2014-07-26T17:36:41Z</time>
      </trkpt>
      <trkpt lat="44.48936" lon="-1.0986">
        <ele>21</ele>
        <time>2014-07-26T17:36:43Z</time>
      </trkpt>
      <trkpt lat="44.48932" lon="-1.09868">
        <ele>21</ele>
        <time>2014-07-26T17:36:46Z</time>
      </trkpt>
      <trkpt lat="44.48929" lon="-1.09874">
        <ele>21</ele>
        <time>2014-07-26T17:36:48Z</time>
      </trkpt>
      <trkpt lat="44.48925" lon="-1.09883">
        <ele>21</ele>
        <time>2014-07-26T17:36:51Z</time>
      </trkpt>
      <trkpt lat="44.48922" lon="-1.09889">
        <ele>21</ele>
        <time>2014-07-26T17:36:53Z</time>
      </trkpt>
      <trkpt lat="44.48917" lon="-1.09897">
        <ele>21</ele>
        <time>2014-07-26T17:36:56Z</time>
      </trkpt>
      <trkpt lat="44.48914" lon="-1.09903">
        <ele>21</ele>
        <time>2014-07-26T17:36:58Z</time>
      </trkpt>
      <trkpt lat="44.4891" lon="-1.09912">
        <ele>21</ele>
        <time>2014-07-26T17:37:01Z</time>
      </trkpt>
      <trkpt lat="44.48907" lon="-1.09918">
        <ele>21</ele>
        <time>2014-07-26T17:37:03Z</time>
      </trkpt>
      <trkpt lat="44.48901" lon="-1.09926">
        <ele>21</ele>
        <time>2014-07-26T17:37:06Z</time>
      </trkpt>
      <trkpt lat="44.48898" lon="-1.09932">
        <ele>21</ele>
        <time>2014-07-26T17:37:08Z</time>
      </trkpt>
      <trkpt lat="44.48892" lon="-1.0994">
        <ele>21</ele>
        <time>2014-07-26T17:37:11Z</time>
      </trkpt>
      <trkpt lat="44.48888" lon="-1.09946">
        <ele>21</ele>
        <time>2014-07-26T17:37:13Z</time>
      </trkpt>
      <trkpt lat="44.48884" lon="-1.09956">
        <ele>21</ele>
        <time>2014-07-26T17:37:16Z</time>
      </trkpt>
      <trkpt lat="44.48881" lon="-1.09962">
        <ele>21</ele>
        <time>2014-07-26T17:37:18Z</time>
      </trkpt>
      <trkpt lat="44.48876" lon="-1.09971">
        <ele>21</ele>
        <time>2014-07-26T17:37:21Z</time>
      </trkpt>
      <trkpt lat="44.48873" lon="-1.09977">
        <ele>21</ele>
        <time>2014-07-26T17:37:23Z</time>
      </trkpt>
      <trkpt lat="44.4887" lon="-1.09985">
        <ele>21</ele>
        <time>2014-07-26T17:37:26Z</time>
      </trkpt>
      <trkpt lat="44.48867" lon="-1.0999">
        <ele>21</ele>
        <time>2014-07-26T17:37:28Z</time>
      </trkpt>
      <trkpt lat="44.48863" lon="-1.09998">
        <ele>21</ele>
        <time>2014-07-26T17:37:31Z</time>
      </trkpt>
      <trkpt lat="44.4886" lon="-1.10003">
        <ele>21</ele>
        <time>2014-07-26T17:37:33Z</time>
      </trkpt>
      <trkpt lat="44.48855" lon="-1.10011">
        <ele>21</ele>
        <time>2014-07-26T17:37:36Z</time>
      </trkpt>
      <trkpt lat="44.48852" lon="-1.10017">
        <ele>21</ele>
        <time>2014-07-26T17:37:38Z</time>
      </trkpt>
      <trkpt lat="44.48847" lon="-1.10026">
        <ele>21</ele>
        <time>2014-07-26T17:37:41Z</time>
      </trkpt>
      <trkpt lat="44.48843" lon="-1.10031">
        <ele>21</ele>
        <time>2014-07-26T17:37:43Z</time>
      </trkpt>
      <trkpt lat="44.48837" lon="-1.10039">
        <ele>21</ele>
        <time>2014-07-26T17:37:46Z</time>
      </trkpt>
      <trkpt lat="44.48833" lon="-1.10044">
        <ele>21</ele>
        <time>2014-07-26T17:37:48Z</time>
      </trkpt>
      <trkpt lat="44.48827" lon="-1.1005">
        <ele>21</ele>
        <time>2014-07-26T17:37:51Z</time>
      </trkpt>
      <trkpt lat="44.48823" lon="-1.10055">
        <ele>21</ele>
        <time>2014-07-26T17:37:53Z</time>
      </trkpt>
      <trkpt lat="44.48817" lon="-1.10062">
        <ele>21</ele>
        <time>2014-07-26T17:37:56Z</time>
      </trkpt>
      <trkpt lat="44.48813" lon="-1.10067">
        <ele>21</ele>
        <time>2014-07-26T17:37:58Z</time>
      </trkpt>
      <trkpt lat="44.48806" lon="-1.10073">
        <ele>21</ele>
        <time>2014-07-26T17:38:01Z</time>
      </trkpt>
      <trkpt lat="44.48803" lon="-1.10081">
        <ele>21</ele>
        <time>2014-07-26T17:38:04Z</time>
      </trkpt>
      <trkpt lat="44.48803" lon="-1.10088">
        <ele>21</ele>
        <time>2014-07-26T17:38:07Z</time>
      </trkpt>
      <trkpt lat="44.48807" lon="-1.10092">
        <ele>21</ele>
        <time>2014-07-26T17:38:12Z</time>
      </trkpt>
      <trkpt lat="44.48811" lon="-1.10093">
        <ele>21</ele>
        <time>2014-07-26T17:38:16Z</time>
      </trkpt>
      <trkpt lat="44.48816" lon="-1.10096">
        <ele>21</ele>
        <time>2014-07-26T17:38:19Z</time>
      </trkpt>
      <trkpt lat="44.48821" lon="-1.10099">
        <ele>21</ele>
        <time>2014-07-26T17:38:22Z</time>
      </trkpt>
      <trkpt lat="44.4883" lon="-1.10104">
        <ele>21</ele>
        <time>2014-07-26T17:38:26Z</time>
      </trkpt>
      <trkpt lat="44.48836" lon="-1.10107">
        <ele>21</ele>
        <time>2014-07-26T17:38:29Z</time>
      </trkpt>
      <trkpt lat="44.4884" lon="-1.1011">
        <ele>21</ele>
        <time>2014-07-26T17:38:31Z</time>
      </trkpt>
      <trkpt lat="44.48845" lon="-1.10113">
        <ele>21</ele>
        <time>2014-07-26T17:38:33Z</time>
      </trkpt>
      <trkpt lat="44.48851" lon="-1.10117">
        <ele>21</ele>
        <time>2014-07-26T17:38:36Z</time>
      </trkpt>
      <trkpt lat="44.48856" lon="-1.1012">
        <ele>21</ele>
        <time>2014-07-26T17:38:38Z</time>
      </trkpt>
      <trkpt lat="44.48861" lon="-1.10124">
        <ele>21</ele>
        <time>2014-07-26T17:38:41Z</time>
      </trkpt>
      <trkpt lat="44.48867" lon="-1.10128">
        <ele>21</ele>
        <time>2014-07-26T17:38:44Z</time>
      </trkpt>
      <trkpt lat="44.48873" lon="-1.10132">
        <ele>21</ele>
        <time>2014-07-26T17:38:47Z</time>
      </trkpt>
      <trkpt lat="44.48878" lon="-1.10132">
        <ele>21</ele>
        <time>2014-07-26T17:38:49Z</time>
      </trkpt>
      <trkpt lat="44.48884" lon="-1.10136">
        <ele>21</ele>
        <time>2014-07-26T17:38:52Z</time>
      </trkpt>
      <trkpt lat="44.48891" lon="-1.10141">
        <ele>21</ele>
        <time>2014-07-26T17:38:56Z</time>
      </trkpt>
      <trkpt lat="44.48897" lon="-1.10145">
        <ele>21</ele>
        <time>2014-07-26T17:38:59Z</time>
      </trkpt>
      <trkpt lat="44.48902" lon="-1.10148">
        <ele>21</ele>
        <time>2014-07-26T17:39:01Z</time>
      </trkpt>
      <trkpt lat="44.48908" lon="-1.10152">
        <ele>21</ele>
        <time>2014-07-26T17:39:04Z</time>
      </trkpt>
      <trkpt lat="44.48912" lon="-1.10154">
        <ele>21</ele>
        <time>2014-07-26T17:39:06Z</time>
      </trkpt>
      <trkpt lat="44.48916" lon="-1.10156">
        <ele>21</ele>
        <time>2014-07-26T17:39:08Z</time>
      </trkpt>
      <trkpt lat="44.48923" lon="-1.1016">
        <ele>21</ele>
        <time>2014-07-26T17:39:11Z</time>
      </trkpt>
      <trkpt lat="44.48927" lon="-1.10162">
        <ele>21</ele>
        <time>2014-07-26T17:39:13Z</time>
      </trkpt>
      <trkpt lat="44.48934" lon="-1.10166">
        <ele>21</ele>
        <time>2014-07-26T17:39:16Z</time>
      </trkpt>
      <trkpt lat="44.48939" lon="-1.10168">
        <ele>21</ele>
        <time>2014-07-26T17:39:18Z</time>
      </trkpt>
      <trkpt lat="44.48945" lon="-1.10171">
        <ele>21</ele>
        <time>2014-07-26T17:39:21Z</time>
      </trkpt>
      <trkpt lat="44.48949" lon="-1.10174">
        <ele>21</ele>
        <time>2014-07-26T17:39:23Z</time>
      </trkpt>
      <trkpt lat="44.48956" lon="-1.10177">
        <ele>21</ele>
        <time>2014-07-26T17:39:26Z</time>
      </trkpt>
      <trkpt lat="44.4896" lon="-1.10179">
        <ele>21</ele>
        <time>2014-07-26T17:39:28Z</time>
      </trkpt>
      <trkpt lat="44.48967" lon="-1.10182">
        <ele>21</ele>
        <time>2014-07-26T17:39:31Z</time>
      </trkpt>
      <trkpt lat="44.48972" lon="-1.10184">
        <ele>21</ele>
        <time>2014-07-26T17:39:33Z</time>
      </trkpt>
      <trkpt lat="44.48979" lon="-1.10187">
        <ele>21</ele>
        <time>2014-07-26T17:39:36Z</time>
      </trkpt>
      <trkpt lat="44.48983" lon="-1.1019">
        <ele>21</ele>
        <time>2014-07-26T17:39:38Z</time>
      </trkpt>
      <trkpt lat="44.4899" lon="-1.10193">
        <ele>21</ele>
        <time>2014-07-26T17:39:41Z</time>
      </trkpt>
      <trkpt lat="44.48994" lon="-1.10196">
        <ele>21</ele>
        <time>2014-07-26T17:39:43Z</time>
      </trkpt>
      <trkpt lat="44.49001" lon="-1.102">
        <ele>21</ele>
        <time>2014-07-26T17:39:46Z</time>
      </trkpt>
      <trkpt lat="44.49006" lon="-1.10203">
        <ele>21</ele>
        <time>2014-07-26T17:39:48Z</time>
      </trkpt>
      <trkpt lat="44.49012" lon="-1.10205">
        <ele>21</ele>
        <time>2014-07-26T17:39:51Z</time>
      </trkpt>
      <trkpt lat="44.49017" lon="-1.10207">
        <ele>21</ele>
        <time>2014-07-26T17:39:54Z</time>
      </trkpt>
      <trkpt lat="44.49021" lon="-1.1021">
        <ele>21</ele>
        <time>2014-07-26T17:39:57Z</time>
      </trkpt>
      <trkpt lat="44.49027" lon="-1.10213">
        <ele>21</ele>
        <time>2014-07-26T17:40:01Z</time>
      </trkpt>
      <trkpt lat="44.49032" lon="-1.10215">
        <ele>21</ele>
        <time>2014-07-26T17:40:04Z</time>
      </trkpt>
      <trkpt lat="44.49037" lon="-1.10218">
        <ele>21</ele>
        <time>2014-07-26T17:40:07Z</time>
      </trkpt>
      <trkpt lat="44.49044" lon="-1.10221">
        <ele>21</ele>
        <time>2014-07-26T17:40:11Z</time>
      </trkpt>
      <trkpt lat="44.49055" lon="-1.10226">
        <ele>21</ele>
        <time>2014-07-26T17:40:16Z</time>
      </trkpt>
      <trkpt lat="44.49066" lon="-1.1023">
        <ele>21</ele>
        <time>2014-07-26T17:40:21Z</time>
      </trkpt>
      <trkpt lat="44.4907" lon="-1.10234">
        <ele>21</ele>
        <time>2014-07-26T17:40:23Z</time>
      </trkpt>
      <trkpt lat="44.49075" lon="-1.10237">
        <ele>21</ele>
        <time>2014-07-26T17:40:26Z</time>
      </trkpt>
      <trkpt lat="44.49081" lon="-1.10239">
        <ele>21</ele>
        <time>2014-07-26T17:40:29Z</time>
      </trkpt>
      <trkpt lat="44.49086" lon="-1.10242">
        <ele>21</ele>
        <time>2014-07-26T17:40:32Z</time>
      </trkpt>
      <trkpt lat="44.49091" lon="-1.10244">
        <ele>21</ele>
        <time>2014-07-26T17:40:34Z</time>
      </trkpt>
      <trkpt lat="44.49097" lon="-1.10246">
        <ele>21</ele>
        <time>2014-07-26T17:40:37Z</time>
      </trkpt>
      <trkpt lat="44.49102" lon="-1.10248">
        <ele>21</ele>
        <time>2014-07-26T17:40:39Z</time>
      </trkpt>
      <trkpt lat="44.49107" lon="-1.10251">
        <ele>21</ele>
        <time>2014-07-26T17:40:42Z</time>
      </trkpt>
      <trkpt lat="44.49114" lon="-1.10253">
        <ele>21</ele>
        <time>2014-07-26T17:40:46Z</time>
      </trkpt>
      <trkpt lat="44.4912" lon="-1.10256">
        <ele>21</ele>
        <time>2014-07-26T17:40:49Z</time>
      </trkpt>
      <trkpt lat="44.49126" lon="-1.10258">
        <ele>21</ele>
        <time>2014-07-26T17:40:52Z</time>
      </trkpt>
      <trkpt lat="44.49131" lon="-1.10259">
        <ele>21</ele>
        <time>2014-07-26T17:40:54Z</time>
      </trkpt>
      <trkpt lat="44.49135" lon="-1.10261">
        <ele>21</ele>
        <time>2014-07-26T17:40:56Z</time>
      </trkpt>
      <trkpt lat="44.4914" lon="-1.10263">
        <ele>21</ele>
        <time>2014-07-26T17:40:58Z</time>
      </trkpt>
      <trkpt lat="44.49147" lon="-1.10266">
        <ele>21</ele>
        <time>2014-07-26T17:41:01Z</time>
      </trkpt>
      <trkpt lat="44.49151" lon="-1.10267">
        <ele>21</ele>
        <time>2014-07-26T17:41:03Z</time>
      </trkpt>
      <trkpt lat="44.49158" lon="-1.10271">
        <ele>21</ele>
        <time>2014-07-26T17:41:06Z</time>
      </trkpt>
      <trkpt lat="44.49164" lon="-1.10273">
        <ele>21</ele>
        <time>2014-07-26T17:41:09Z</time>
      </trkpt>
      <trkpt lat="44.49168" lon="-1.10274">
        <ele>21</ele>
        <time>2014-07-26T17:41:11Z</time>
      </trkpt>
      <trkpt lat="44.49173" lon="-1.10276">
        <ele>21</ele>
        <time>2014-07-26T17:41:13Z</time>
      </trkpt>
      <trkpt lat="44.4918" lon="-1.10278">
        <ele>21</ele>
        <time>2014-07-26T17:41:16Z</time>
      </trkpt>
      <trkpt lat="44.49184" lon="-1.10279">
        <ele>21</ele>
        <time>2014-07-26T17:41:18Z</time>
      </trkpt>
      <trkpt lat="44.49191" lon="-1.10279">
        <ele>21</ele>
        <time>2014-07-26T17:41:21Z</time>
      </trkpt>
      <trkpt lat="44.49195" lon="-1.10281">
        <ele>21</ele>
        <time>2014-07-26T17:41:23Z</time>
      </trkpt>
      <trkpt lat="44.49202" lon="-1.10284">
        <ele>21</ele>
        <time>2014-07-26T17:41:26Z</time>
      </trkpt>
      <trkpt lat="44.49213" lon="-1.10288">
        <ele>21</ele>
        <time>2014-07-26T17:41:31Z</time>
      </trkpt>
      <trkpt lat="44.49223" lon="-1.10293">
        <ele>21</ele>
        <time>2014-07-26T17:41:36Z</time>
      </trkpt>
      <trkpt lat="44.49229" lon="-1.10297">
        <ele>21</ele>
        <time>2014-07-26T17:41:39Z</time>
      </trkpt>
      <trkpt lat="44.49235" lon="-1.10298">
        <ele>21</ele>
        <time>2014-07-26T17:41:42Z</time>
      </trkpt>
      <trkpt lat="44.49242" lon="-1.10302">
        <ele>21</ele>
        <time>2014-07-26T17:41:46Z</time>
      </trkpt>
      <trkpt lat="44.49248" lon="-1.10304">
        <ele>21</ele>
        <time>2014-07-26T17:41:49Z</time>
      </trkpt>
      <trkpt lat="44.49254" lon="-1.10306">
        <ele>21</ele>
        <time>2014-07-26T17:41:52Z</time>
      </trkpt>
      <trkpt lat="44.49263" lon="-1.10309">
        <ele>21</ele>
        <time>2014-07-26T17:41:56Z</time>
      </trkpt>
      <trkpt lat="44.49267" lon="-1.1031">
        <ele>21</ele>
        <time>2014-07-26T17:41:58Z</time>
      </trkpt>
      <trkpt lat="44.49274" lon="-1.10312">
        <ele>21</ele>
        <time>2014-07-26T17:42:01Z</time>
      </trkpt>
      <trkpt lat="44.49279" lon="-1.10313">
        <ele>21</ele>
        <time>2014-07-26T17:42:03Z</time>
      </trkpt>
      <trkpt lat="44.49286" lon="-1.10314">
        <ele>21</ele>
        <time>2014-07-26T17:42:06Z</time>
      </trkpt>
      <trkpt lat="44.49296" lon="-1.10318">
        <ele>21</ele>
        <time>2014-07-26T17:42:11Z</time>
      </trkpt>
      <trkpt lat="44.49302" lon="-1.1032">
        <ele>21</ele>
        <time>2014-07-26T17:42:14Z</time>
      </trkpt>
      <trkpt lat="44.49307" lon="-1.10322">
        <ele>21</ele>
        <time>2014-07-26T17:42:16Z</time>
      </trkpt>
      <trkpt lat="44.49313" lon="-1.10324">
        <ele>21</ele>
        <time>2014-07-26T17:42:19Z</time>
      </trkpt>
      <trkpt lat="44.49317" lon="-1.10326">
        <ele>21</ele>
        <time>2014-07-26T17:42:22Z</time>
      </trkpt>
      <trkpt lat="44.49325" lon="-1.10327">
        <ele>21</ele>
        <time>2014-07-26T17:42:26Z</time>
      </trkpt>
      <trkpt lat="44.49331" lon="-1.1033">
        <ele>21</ele>
        <time>2014-07-26T17:42:29Z</time>
      </trkpt>
      <trkpt lat="44.49336" lon="-1.10332">
        <ele>21</ele>
        <time>2014-07-26T17:42:31Z</time>
      </trkpt>
      <trkpt lat="44.49341" lon="-1.10334">
        <ele>21</ele>
        <time>2014-07-26T17:42:33Z</time>
      </trkpt>
      <trkpt lat="44.49348" lon="-1.10336">
        <ele>21</ele>
        <time>2014-07-26T17:42:36Z</time>
      </trkpt>
      <trkpt lat="44.49352" lon="-1.10338">
        <ele>21</ele>
        <time>2014-07-26T17:42:38Z</time>
      </trkpt>
      <trkpt lat="44.49359" lon="-1.10341">
        <ele>21</ele>
        <time>2014-07-26T17:42:41Z</time>
      </trkpt>
      <trkpt lat="44.49364" lon="-1.10344">
        <ele>21</ele>
        <time>2014-07-26T17:42:43Z</time>
      </trkpt>
      <trkpt lat="44.4937" lon="-1.10346">
        <ele>21</ele>
        <time>2014-07-26T17:42:46Z</time>
      </trkpt>
      <trkpt lat="44.49375" lon="-1.10348">
        <ele>21</ele>
        <time>2014-07-26T17:42:48Z</time>
      </trkpt>
      <trkpt lat="44.49382" lon="-1.1035">
        <ele>21</ele>
        <time>2014-07-26T17:42:51Z</time>
      </trkpt>
      <trkpt lat="44.49392" lon="-1.10354">
        <ele>21</ele>
        <time>2014-07-26T17:42:56Z</time>
      </trkpt>
      <trkpt lat="44.49397" lon="-1.10356">
        <ele>21</ele>
        <time>2014-07-26T17:42:58Z</time>
      </trkpt>
      <trkpt lat="44.49402" lon="-1.10361">
        <ele>21</ele>
        <time>2014-07-26T17:43:01Z</time>
      </trkpt>
      <trkpt lat="44.49408" lon="-1.10363">
        <ele>21</ele>
        <time>2014-07-26T17:43:04Z</time>
      </trkpt>
      <trkpt lat="44.49414" lon="-1.10366">
        <ele>21</ele>
        <time>2014-07-26T17:43:07Z</time>
      </trkpt>
      <trkpt lat="44.49422" lon="-1.1037">
        <ele>21</ele>
        <time>2014-07-26T17:43:11Z</time>
      </trkpt>
      <trkpt lat="44.49428" lon="-1.10372">
        <ele>21</ele>
        <time>2014-07-26T17:43:14Z</time>
      </trkpt>
      <trkpt lat="44.49433" lon="-1.10375">
        <ele>21</ele>
        <time>2014-07-26T17:43:17Z</time>
      </trkpt>
      <trkpt lat="44.4944" lon="-1.10377">
        <ele>21</ele>
        <time>2014-07-26T17:43:21Z</time>
      </trkpt>
      <trkpt lat="44.49446" lon="-1.10379">
        <ele>21</ele>
        <time>2014-07-26T17:43:24Z</time>
      </trkpt>
      <trkpt lat="44.49452" lon="-1.10382">
        <ele>21</ele>
        <time>2014-07-26T17:43:27Z</time>
      </trkpt>
      <trkpt lat="44.49459" lon="-1.10386">
        <ele>21</ele>
        <time>2014-07-26T17:43:31Z</time>
      </trkpt>
      <trkpt lat="44.49464" lon="-1.10387">
        <ele>21</ele>
        <time>2014-07-26T17:43:34Z</time>
      </trkpt>
      <trkpt lat="44.4947" lon="-1.10388">
        <ele>21</ele>
        <time>2014-07-26T17:43:37Z</time>
      </trkpt>
      <trkpt lat="44.49477" lon="-1.10391">
        <ele>21</ele>
        <time>2014-07-26T17:43:41Z</time>
      </trkpt>
      <trkpt lat="44.49482" lon="-1.10392">
        <ele>21</ele>
        <time>2014-07-26T17:43:44Z</time>
      </trkpt>
      <trkpt lat="44.49488" lon="-1.10394">
        <ele>21</ele>
        <time>2014-07-26T17:43:47Z</time>
      </trkpt>
      <trkpt lat="44.49495" lon="-1.10397">
        <ele>21</ele>
        <time>2014-07-26T17:43:51Z</time>
      </trkpt>
      <trkpt lat="44.495" lon="-1.10399">
        <ele>21</ele>
        <time>2014-07-26T17:43:54Z</time>
      </trkpt>
      <trkpt lat="44.49506" lon="-1.10401">
        <ele>21</ele>
        <time>2014-07-26T17:43:57Z</time>
      </trkpt>
      <trkpt lat="44.49515" lon="-1.10405">
        <ele>21</ele>
        <time>2014-07-26T17:44:01Z</time>
      </trkpt>
      <trkpt lat="44.4952" lon="-1.10406">
        <ele>21</ele>
        <time>2014-07-26T17:44:04Z</time>
      </trkpt>
      <trkpt lat="44.49526" lon="-1.10408">
        <ele>21</ele>
        <time>2014-07-26T17:44:07Z</time>
      </trkpt>
      <trkpt lat="44.49532" lon="-1.10412">
        <ele>21</ele>
        <time>2014-07-26T17:44:11Z</time>
      </trkpt>
      <trkpt lat="44.49537" lon="-1.10414">
        <ele>21</ele>
        <time>2014-07-26T17:44:14Z</time>
      </trkpt>
      <trkpt lat="44.49542" lon="-1.10416">
        <ele>21</ele>
        <time>2014-07-26T17:44:18Z</time>
      </trkpt>
      <trkpt lat="44.49548" lon="-1.10417">
        <ele>21</ele>
        <time>2014-07-26T17:44:22Z</time>
      </trkpt>
      <trkpt lat="44.49553" lon="-1.10419">
        <ele>21</ele>
        <time>2014-07-26T17:44:26Z</time>
      </trkpt>
      <trkpt lat="44.49558" lon="-1.10421">
        <ele>21</ele>
        <time>2014-07-26T17:44:29Z</time>
      </trkpt>
      <trkpt lat="44.49562" lon="-1.10424">
        <ele>21</ele>
        <time>2014-07-26T17:44:32Z</time>
      </trkpt>
      <trkpt lat="44.49569" lon="-1.10425">
        <ele>21</ele>
        <time>2014-07-26T17:44:36Z</time>
      </trkpt>
      <trkpt lat="44.49575" lon="-1.10425">
        <ele>21</ele>
        <time>2014-07-26T17:44:39Z</time>
      </trkpt>
      <trkpt lat="44.49581" lon="-1.10426">
        <ele>21</ele>
        <time>2014-07-26T17:44:42Z</time>
      </trkpt>
      <trkpt lat="44.49586" lon="-1.10427">
        <ele>21</ele>
        <time>2014-07-26T17:44:44Z</time>
      </trkpt>
      <trkpt lat="44.49595" lon="-1.10428">
        <ele>21</ele>
        <time>2014-07-26T17:44:48Z</time>
      </trkpt>
      <trkpt lat="44.49603" lon="-1.10429">
        <ele>21</ele>
        <time>2014-07-26T17:44:51Z</time>
      </trkpt>
      <trkpt lat="44.49607" lon="-1.1043">
        <ele>21</ele>
        <time>2014-07-26T17:44:53Z</time>
      </trkpt>
      <trkpt lat="44.49615" lon="-1.1043">
        <ele>21</ele>
        <time>2014-07-26T17:44:56Z</time>
      </trkpt>
      <trkpt lat="44.4962" lon="-1.10431">
        <ele>21</ele>
        <time>2014-07-26T17:44:58Z</time>
      </trkpt>
      <trkpt lat="44.49628" lon="-1.10431">
        <ele>21</ele>
        <time>2014-07-26T17:45:01Z</time>
      </trkpt>
      <trkpt lat="44.49633" lon="-1.10431">
        <ele>21</ele>
        <time>2014-07-26T17:45:03Z</time>
      </trkpt>
      <trkpt lat="44.4964" lon="-1.10431">
        <ele>21</ele>
        <time>2014-07-26T17:45:06Z</time>
      </trkpt>
      <trkpt lat="44.49646" lon="-1.10431">
        <ele>21</ele>
        <time>2014-07-26T17:45:08Z</time>
      </trkpt>
      <trkpt lat="44.49653" lon="-1.10432">
        <ele>21</ele>
        <time>2014-07-26T17:45:11Z</time>
      </trkpt>
      <trkpt lat="44.49658" lon="-1.10432">
        <ele>21</ele>
        <time>2014-07-26T17:45:13Z</time>
      </trkpt>
      <trkpt lat="44.49666" lon="-1.10433">
        <ele>21</ele>
        <time>2014-07-26T17:45:16Z</time>
      </trkpt>
      <trkpt lat="44.49671" lon="-1.10433">
        <ele>21</ele>
        <time>2014-07-26T17:45:18Z</time>
      </trkpt>
      <trkpt lat="44.49679" lon="-1.10435">
        <ele>21</ele>
        <time>2014-07-26T17:45:21Z</time>
      </trkpt>
      <trkpt lat="44.49684" lon="-1.10435">
        <ele>21</ele>
        <time>2014-07-26T17:45:23Z</time>
      </trkpt>
      <trkpt lat="44.49691" lon="-1.10435">
        <ele>21</ele>
        <time>2014-07-26T17:45:26Z</time>
      </trkpt>
      <trkpt lat="44.49696" lon="-1.10436">
        <ele>21</ele>
        <time>2014-07-26T17:45:28Z</time>
      </trkpt>
      <trkpt lat="44.49702" lon="-1.10437">
        <ele>21</ele>
        <time>2014-07-26T17:45:31Z</time>
      </trkpt>
      <trkpt lat="44.49707" lon="-1.10438">
        <ele>21</ele>
        <time>2014-07-26T17:45:33Z</time>
      </trkpt>
      <trkpt lat="44.49713" lon="-1.10441">
        <ele>21</ele>
        <time>2014-07-26T17:45:36Z</time>
      </trkpt>
      <trkpt lat="44.49719" lon="-1.10442">
        <ele>21</ele>
        <time>2014-07-26T17:45:39Z</time>
      </trkpt>
      <trkpt lat="44.49725" lon="-1.10442">
        <ele>21</ele>
        <time>2014-07-26T17:45:42Z</time>
      </trkpt>
      <trkpt lat="44.49732" lon="-1.10443">
        <ele>21</ele>
        <time>2014-07-26T17:45:46Z</time>
      </trkpt>
      <trkpt lat="44.49737" lon="-1.10446">
        <ele>21</ele>
        <time>2014-07-26T17:45:49Z</time>
      </trkpt>
      <trkpt lat="44.4974" lon="-1.10452">
        <ele>21</ele>
        <time>2014-07-26T17:45:54Z</time>
      </trkpt>
      <trkpt lat="44.49737" lon="-1.10456">
        <ele>21</ele>
        <time>2014-07-26T17:46:08Z</time>
      </trkpt>
      <trkpt lat="44.49732" lon="-1.10461">
        <ele>21</ele>
        <time>2014-07-26T17:46:12Z</time>
      </trkpt>
      <trkpt lat="44.49727" lon="-1.10468">
        <ele>21</ele>
        <time>2014-07-26T17:46:16Z</time>
      </trkpt>
      <trkpt lat="44.49724" lon="-1.10473">
        <ele>21</ele>
        <time>2014-07-26T17:46:18Z</time>
      </trkpt>
      <trkpt lat="44.49717" lon="-1.1048">
        <ele>21</ele>
        <time>2014-07-26T17:46:21Z</time>
      </trkpt>
      <trkpt lat="44.49713" lon="-1.10485">
        <ele>21</ele>
        <time>2014-07-26T17:46:23Z</time>
      </trkpt>
      <trkpt lat="44.49706" lon="-1.10493">
        <ele>21</ele>
        <time>2014-07-26T17:46:26Z</time>
      </trkpt>
      <trkpt lat="44.49702" lon="-1.10499">
        <ele>21</ele>
        <time>2014-07-26T17:46:28Z</time>
      </trkpt>
      <trkpt lat="44.49696" lon="-1.10507">
        <ele>21</ele>
        <time>2014-07-26T17:46:31Z</time>
      </trkpt>
      <trkpt lat="44.49692" lon="-1.10511">
        <ele>21</ele>
        <time>2014-07-26T17:46:33Z</time>
      </trkpt>
      <trkpt lat="44.49686" lon="-1.10518">
        <ele>21</ele>
        <time>2014-07-26T17:46:36Z</time>
      </trkpt>
      <trkpt lat="44.49683" lon="-1.10523">
        <ele>21</ele>
        <time>2014-07-26T17:46:38Z</time>
      </trkpt>
      <trkpt lat="44.49677" lon="-1.10532">
        <ele>21</ele>
        <time>2014-07-26T17:46:41Z</time>
      </trkpt>
      <trkpt lat="44.49673" lon="-1.10538">
        <ele>21</ele>
        <time>2014-07-26T17:46:43Z</time>
      </trkpt>
      <trkpt lat="44.49667" lon="-1.10546">
        <ele>21</ele>
        <time>2014-07-26T17:46:46Z</time>
      </trkpt>
      <trkpt lat="44.49663" lon="-1.10551">
        <ele>21</ele>
        <time>2014-07-26T17:46:48Z</time>
      </trkpt>
      <trkpt lat="44.49656" lon="-1.10559">
        <ele>21</ele>
        <time>2014-07-26T17:46:51Z</time>
      </trkpt>
      <trkpt lat="44.49653" lon="-1.10565">
        <ele>21</ele>
        <time>2014-07-26T17:46:53Z</time>
      </trkpt>
      <trkpt lat="44.49647" lon="-1.10573">
        <ele>21</ele>
        <time>2014-07-26T17:46:56Z</time>
      </trkpt>
      <trkpt lat="44.49643" lon="-1.10579">
        <ele>21</ele>
        <time>2014-07-26T17:46:58Z</time>
      </trkpt>
      <trkpt lat="44.49636" lon="-1.10588">
        <ele>21</ele>
        <time>2014-07-26T17:47:01Z</time>
      </trkpt>
      <trkpt lat="44.49634" lon="-1.10594">
        <ele>21</ele>
        <time>2014-07-26T17:47:03Z</time>
      </trkpt>
      <trkpt lat="44.49629" lon="-1.10603">
        <ele>21</ele>
        <time>2014-07-26T17:47:06Z</time>
      </trkpt>
      <trkpt lat="44.49626" lon="-1.10609">
        <ele>21</ele>
        <time>2014-07-26T17:47:08Z</time>
      </trkpt>
      <trkpt lat="44.4962" lon="-1.10617">
        <ele>21</ele>
        <time>2014-07-26T17:47:11Z</time>
      </trkpt>
      <trkpt lat="44.49616" lon="-1.10623">
        <ele>21</ele>
        <time>2014-07-26T17:47:13Z</time>
      </trkpt>
      <trkpt lat="44.4961" lon="-1.10632">
        <ele>21</ele>
        <time>2014-07-26T17:47:16Z</time>
      </trkpt>
      <trkpt lat="44.49606" lon="-1.10638">
        <ele>21</ele>
        <time>2014-07-26T17:47:18Z</time>
      </trkpt>
      <trkpt lat="44.496" lon="-1.10647">
        <ele>21</ele>
        <time>2014-07-26T17:47:21Z</time>
      </trkpt>
      <trkpt lat="44.49596" lon="-1.10653">
        <ele>21</ele>
        <time>2014-07-26T17:47:23Z</time>
      </trkpt>
      <trkpt lat="44.4959" lon="-1.10662">
        <ele>21</ele>
        <time>2014-07-26T17:47:26Z</time>
      </trkpt>
      <trkpt lat="44.49586" lon="-1.10668">
        <ele>21</ele>
        <time>2014-07-26T17:47:28Z</time>
      </trkpt>
      <trkpt lat="44.4958" lon="-1.10677">
        <ele>21</ele>
        <time>2014-07-26T17:47:31Z</time>
      </trkpt>
      <trkpt lat="44.49576" lon="-1.10683">
        <ele>21</ele>
        <time>2014-07-26T17:47:33Z</time>
      </trkpt>
      <trkpt lat="44.4957" lon="-1.10692">
        <ele>21</ele>
        <time>2014-07-26T17:47:36Z</time>
      </trkpt>
      <trkpt lat="44.49566" lon="-1.10698">
        <ele>21</ele>
        <time>2014-07-26T17:47:38Z</time>
      </trkpt>
      <trkpt lat="44.4956" lon="-1.10706">
        <ele>21</ele>
        <time>2014-07-26T17:47:41Z</time>
      </trkpt>
      <trkpt lat="44.49556" lon="-1.10712">
        <ele>21</ele>
        <time>2014-07-26T17:47:43Z</time>
      </trkpt>
      <trkpt lat="44.49551" lon="-1.10721">
        <ele>21</ele>
        <time>2014-07-26T17:47:46Z</time>
      </trkpt>
      <trkpt lat="44.49546" lon="-1.10726">
        <ele>21</ele>
        <time>2014-07-26T17:47:48Z</time>
      </trkpt>
      <trkpt lat="44.49538" lon="-1.10733">
        <ele>21</ele>
        <time>2014-07-26T17:47:51Z</time>
      </trkpt>
      <trkpt lat="44.49533" lon="-1.10737">
        <ele>21</ele>
        <time>2014-07-26T17:47:53Z</time>
      </trkpt>
      <trkpt lat="44.49526" lon="-1.10744">
        <ele>21</ele>
        <time>2014-07-26T17:47:56Z</time>
      </trkpt>
      <trkpt lat="44.49521" lon="-1.1075">
        <ele>21</ele>
        <time>2014-07-26T17:47:58Z</time>
      </trkpt>
      <trkpt lat="44.49513" lon="-1.10757">
        <ele>21</ele>
        <time>2014-07-26T17:48:01Z</time>
      </trkpt>
      <trkpt lat="44.49508" lon="-1.10762">
        <ele>21</ele>
        <time>2014-07-26T17:48:03Z</time>
      </trkpt>
      <trkpt lat="44.49501" lon="-1.10769">
        <ele>21</ele>
        <time>2014-07-26T17:48:06Z</time>
      </trkpt>
      <trkpt lat="44.49495" lon="-1.10774">
        <ele>21</ele>
        <time>2014-07-26T17:48:08Z</time>
      </trkpt>
      <trkpt lat="44.49487" lon="-1.1078">
        <ele>21</ele>
        <time>2014-07-26T17:48:11Z</time>
      </trkpt>
      <trkpt lat="44.49482" lon="-1.10784">
        <ele>21</ele>
        <time>2014-07-26T17:48:13Z</time>
      </trkpt>
      <trkpt lat="44.49474" lon="-1.10791">
        <ele>21</ele>
        <time>2014-07-26T17:48:16Z</time>
      </trkpt>
      <trkpt lat="44.49469" lon="-1.10795">
        <ele>21</ele>
        <time>2014-07-26T17:48:18Z</time>
      </trkpt>
      <trkpt lat="44.49462" lon="-1.10803">
        <ele>21</ele>
        <time>2014-07-26T17:48:21Z</time>
      </trkpt>
      <trkpt lat="44.49458" lon="-1.10807">
        <ele>21</ele>
        <time>2014-07-26T17:48:23Z</time>
      </trkpt>
      <trkpt lat="44.49451" lon="-1.10814">
        <ele>21</ele>
        <time>2014-07-26T17:48:26Z</time>
      </trkpt>
      <trkpt lat="44.49446" lon="-1.1082">
        <ele>21</ele>
        <time>2014-07-26T17:48:28Z</time>
      </trkpt>
      <trkpt lat="44.4944" lon="-1.10828">
        <ele>21</ele>
        <time>2014-07-26T17:48:31Z</time>
      </trkpt>
      <trkpt lat="44.49436" lon="-1.10834">
        <ele>21</ele>
        <time>2014-07-26T17:48:33Z</time>
      </trkpt>
      <trkpt lat="44.4943" lon="-1.10842">
        <ele>21</ele>
        <time>2014-07-26T17:48:36Z</time>
      </trkpt>
      <trkpt lat="44.49426" lon="-1.10847">
        <ele>21</ele>
        <time>2014-07-26T17:48:38Z</time>
      </trkpt>
      <trkpt lat="44.4942" lon="-1.10855">
        <ele>21</ele>
        <time>2014-07-26T17:48:41Z</time>
      </trkpt>
      <trkpt lat="44.49416" lon="-1.10861">
        <ele>21</ele>
        <time>2014-07-26T17:48:43Z</time>
      </trkpt>
      <trkpt lat="44.49411" lon="-1.1087">
        <ele>21</ele>
        <time>2014-07-26T17:48:46Z</time>
      </trkpt>
      <trkpt lat="44.49407" lon="-1.10875">
        <ele>21</ele>
        <time>2014-07-26T17:48:48Z</time>
      </trkpt>
      <trkpt lat="44.49401" lon="-1.10884">
        <ele>21</ele>
        <time>2014-07-26T17:48:51Z</time>
      </trkpt>
      <trkpt lat="44.49397" lon="-1.10889">
        <ele>21</ele>
        <time>2014-07-26T17:48:53Z</time>
      </trkpt>
      <trkpt lat="44.49391" lon="-1.10897">
        <ele>21</ele>
        <time>2014-07-26T17:48:56Z</time>
      </trkpt>
      <trkpt lat="44.49388" lon="-1.10903">
        <ele>21</ele>
        <time>2014-07-26T17:48:58Z</time>
      </trkpt>
      <trkpt lat="44.49382" lon="-1.10912">
        <ele>21</ele>
        <time>2014-07-26T17:49:01Z</time>
      </trkpt>
      <trkpt lat="44.49378" lon="-1.10918">
        <ele>21</ele>
        <time>2014-07-26T17:49:03Z</time>
      </trkpt>
      <trkpt lat="44.49372" lon="-1.10927">
        <ele>21</ele>
        <time>2014-07-26T17:49:06Z</time>
      </trkpt>
      <trkpt lat="44.49368" lon="-1.10933">
        <ele>21</ele>
        <time>2014-07-26T17:49:08Z</time>
      </trkpt>
      <trkpt lat="44.49362" lon="-1.10941">
        <ele>21</ele>
        <time>2014-07-26T17:49:11Z</time>
      </trkpt>
      <trkpt lat="44.49359" lon="-1.10947">
        <ele>21</ele>
        <time>2014-07-26T17:49:13Z</time>
      </trkpt>
      <trkpt lat="44.49355" lon="-1.10954">
        <ele>21</ele>
        <time>2014-07-26T17:49:16Z</time>
      </trkpt>
      <trkpt lat="44.49352" lon="-1.1096">
        <ele>21</ele>
        <time>2014-07-26T17:49:18Z</time>
      </trkpt>
      <trkpt lat="44.49348" lon="-1.10968">
        <ele>21</ele>
        <time>2014-07-26T17:49:21Z</time>
      </trkpt>
      <trkpt lat="44.49345" lon="-1.10974">
        <ele>21</ele>
        <time>2014-07-26T17:49:23Z</time>
      </trkpt>
      <trkpt lat="44.4934" lon="-1.10983">
        <ele>21</ele>
        <time>2014-07-26T17:49:26Z</time>
      </trkpt>
      <trkpt lat="44.49336" lon="-1.10988">
        <ele>21</ele>
        <time>2014-07-26T17:49:28Z</time>
      </trkpt>
      <trkpt lat="44.49328" lon="-1.10996">
        <ele>21</ele>
        <time>2014-07-26T17:49:31Z</time>
      </trkpt>
      <trkpt lat="44.49324" lon="-1.11001">
        <ele>21</ele>
        <time>2014-07-26T17:49:33Z</time>
      </trkpt>
      <trkpt lat="44.49317" lon="-1.1101">
        <ele>21</ele>
        <time>2014-07-26T17:49:36Z</time>
      </trkpt>
      <trkpt lat="44.49312" lon="-1.11014">
        <ele>21</ele>
        <time>2014-07-26T17:49:38Z</time>
      </trkpt>
      <trkpt lat="44.49306" lon="-1.11022">
        <ele>21</ele>
        <time>2014-07-26T17:49:41Z</time>
      </trkpt>
      <trkpt lat="44.49301" lon="-1.11028">
        <ele>21</ele>
        <time>2014-07-26T17:49:43Z</time>
      </trkpt>
      <trkpt lat="44.49294" lon="-1.11036">
        <ele>21</ele>
        <time>2014-07-26T17:49:46Z</time>
      </trkpt>
      <trkpt lat="44.49289" lon="-1.11041">
        <ele>21</ele>
        <time>2014-07-26T17:49:48Z</time>
      </trkpt>
      <trkpt lat="44.49282" lon="-1.11049">
        <ele>21</ele>
        <time>2014-07-26T17:49:51Z</time>
      </trkpt>
      <trkpt lat="44.49277" lon="-1.11053">
        <ele>21</ele>
        <time>2014-07-26T17:49:53Z</time>
      </trkpt>
      <trkpt lat="44.49269" lon="-1.11059">
        <ele>21</ele>
        <time>2014-07-26T17:49:56Z</time>
      </trkpt>
      <trkpt lat="44.49263" lon="-1.11063">
        <ele>21</ele>
        <time>2014-07-26T17:49:58Z</time>
      </trkpt>
      <trkpt lat="44.49255" lon="-1.11068">
        <ele>21</ele>
        <time>2014-07-26T17:50:01Z</time>
      </trkpt>
      <trkpt lat="44.4925" lon="-1.11072">
        <ele>21</ele>
        <time>2014-07-26T17:50:03Z</time>
      </trkpt>
      <trkpt lat="44.49243" lon="-1.1108">
        <ele>21</ele>
        <time>2014-07-26T17:50:06Z</time>
      </trkpt>
      <trkpt lat="44.49238" lon="-1.11085">
        <ele>21</ele>
        <time>2014-07-26T17:50:08Z</time>
      </trkpt>
      <trkpt lat="44.49231" lon="-1.11094">
        <ele>21</ele>
        <time>2014-07-26T17:50:11Z</time>
      </trkpt>
      <trkpt lat="44.49227" lon="-1.111">
        <ele>21</ele>
        <time>2014-07-26T17:50:13Z</time>
      </trkpt>
      <trkpt lat="44.4922" lon="-1.11108">
        <ele>21</ele>
        <time>2014-07-26T17:50:16Z</time>
      </trkpt>
      <trkpt lat="44.49216" lon="-1.11114">
        <ele>21</ele>
        <time>2014-07-26T17:50:18Z</time>
      </trkpt>
      <trkpt lat="44.49209" lon="-1.11121">
        <ele>21</ele>
        <time>2014-07-26T17:50:21Z</time>
      </trkpt>
      <trkpt lat="44.49205" lon="-1.11126">
        <ele>21</ele>
        <time>2014-07-26T17:50:23Z</time>
      </trkpt>
      <trkpt lat="44.49199" lon="-1.11133">
        <ele>21</ele>
        <time>2014-07-26T17:50:26Z</time>
      </trkpt>
      <trkpt lat="44.49195" lon="-1.11139">
        <ele>21</ele>
        <time>2014-07-26T17:50:28Z</time>
      </trkpt>
      <trkpt lat="44.49189" lon="-1.11147">
        <ele>21</ele>
        <time>2014-07-26T17:50:31Z</time>
      </trkpt>
      <trkpt lat="44.49186" lon="-1.11152">
        <ele>21</ele>
        <time>2014-07-26T17:50:33Z</time>
      </trkpt>
      <trkpt lat="44.4918" lon="-1.11159">
        <ele>21</ele>
        <time>2014-07-26T17:50:36Z</time>
      </trkpt>
      <trkpt lat="44.49176" lon="-1.11164">
        <ele>21</ele>
        <time>2014-07-26T17:50:38Z</time>
      </trkpt>
      <trkpt lat="44.49169" lon="-1.1117">
        <ele>21</ele>
        <time>2014-07-26T17:50:41Z</time>
      </trkpt>
      <trkpt lat="44.49164" lon="-1.11174">
        <ele>21</ele>
        <time>2014-07-26T17:50:43Z</time>
      </trkpt>
      <trkpt lat="44.49157" lon="-1.1118">
        <ele>21</ele>
        <time>2014-07-26T17:50:46Z</time>
      </trkpt>
      <trkpt lat="44.49152" lon="-1.11184">
        <ele>21</ele>
        <time>2014-07-26T17:50:48Z</time>
      </trkpt>
      <trkpt lat="44.49145" lon="-1.11188">
        <ele>21</ele>
        <time>2014-07-26T17:50:51Z</time>
      </trkpt>
      <trkpt lat="44.4914" lon="-1.11191">
        <ele>21</ele>
        <time>2014-07-26T17:50:53Z</time>
      </trkpt>
      <trkpt lat="44.49133" lon="-1.11196">
        <ele>21</ele>
        <time>2014-07-26T17:50:56Z</time>
      </trkpt>
      <trkpt lat="44.49128" lon="-1.11199">
        <ele>21</ele>
        <time>2014-07-26T17:50:58Z</time>
      </trkpt>
      <trkpt lat="44.4912" lon="-1.11204">
        <ele>21</ele>
        <time>2014-07-26T17:51:01Z</time>
      </trkpt>
      <trkpt lat="44.49115" lon="-1.11207">
        <ele>21</ele>
        <time>2014-07-26T17:51:03Z</time>
      </trkpt>
      <trkpt lat="44.49108" lon="-1.11212">
        <ele>21</ele>
        <time>2014-07-26T17:51:06Z</time>
      </trkpt>
      <trkpt lat="44.49103" lon="-1.11215">
        <ele>21</ele>
        <time>2014-07-26T17:51:08Z</time>
      </trkpt>
      <trkpt lat="44.49095" lon="-1.11221">
        <ele>21</ele>
        <time>2014-07-26T17:51:11Z</time>
      </trkpt>
      <trkpt lat="44.4909" lon="-1.11225">
        <ele>21</ele>
        <time>2014-07-26T17:51:13Z</time>
      </trkpt>
      <trkpt lat="44.49082" lon="-1.11231">
        <ele>21</ele>
        <time>2014-07-26T17:51:16Z</time>
      </trkpt>
      <trkpt lat="44.49077" lon="-1.11235">
        <ele>21</ele>
        <time>2014-07-26T17:51:18Z</time>
      </trkpt>
      <trkpt lat="44.49069" lon="-1.11241">
        <ele>21</ele>
        <time>2014-07-26T17:51:21Z</time>
      </trkpt>
      <trkpt lat="44.49065" lon="-1.11245">
        <ele>21</ele>
        <time>2014-07-26T17:51:23Z</time>
      </trkpt>
      <trkpt lat="44.49058" lon="-1.1125">
        <ele>21</ele>
        <time>2014-07-26T17:51:26Z</time>
      </trkpt>
      <trkpt lat="44.49053" lon="-1.11254">
        <ele>21</ele>
        <time>2014-07-26T17:51:28Z</time>
      </trkpt>
      <trkpt lat="44.49046" lon="-1.1126">
        <ele>21</ele>
        <time>2014-07-26T17:51:31Z</time>
      </trkpt>
      <trkpt lat="44.49041" lon="-1.11264">
        <ele>21</ele>
        <time>2014-07-26T17:51:33Z</time>
      </trkpt>
      <trkpt lat="44.49034" lon="-1.11269">
        <ele>21</ele>
        <time>2014-07-26T17:51:36Z</time>
      </trkpt>
      <trkpt lat="44.49029" lon="-1.11274">
        <ele>21</ele>
        <time>2014-07-26T17:51:38Z</time>
      </trkpt>
      <trkpt lat="44.49024" lon="-1.11281">
        <ele>21</ele>
        <time>2014-07-26T17:51:41Z</time>
      </trkpt>
      <trkpt lat="44.4902" lon="-1.11285">
        <ele>21</ele>
        <time>2014-07-26T17:51:43Z</time>
      </trkpt>
      <trkpt lat="44.49013" lon="-1.11291">
        <ele>21</ele>
        <time>2014-07-26T17:51:46Z</time>
      </trkpt>
      <trkpt lat="44.4901" lon="-1.11296">
        <ele>21</ele>
        <time>2014-07-26T17:51:48Z</time>
      </trkpt>
      <trkpt lat="44.49004" lon="-1.11303">
        <ele>21</ele>
        <time>2014-07-26T17:51:51Z</time>
      </trkpt>
      <trkpt lat="44.48999" lon="-1.11307">
        <ele>21</ele>
        <time>2014-07-26T17:51:53Z</time>
      </trkpt>
      <trkpt lat="44.48996" lon="-1.11312">
        <ele>21</ele>
        <time>2014-07-26T17:51:55Z</time>
      </trkpt>
      <trkpt lat="44.48992" lon="-1.11318">
        <ele>21</ele>
        <time>2014-07-26T17:51:57Z</time>
      </trkpt>
      <trkpt lat="44.48989" lon="-1.11322">
        <ele>21</ele>
        <time>2014-07-26T17:51:59Z</time>
      </trkpt>
      <trkpt lat="44.48985" lon="-1.11327">
        <ele>21</ele>
        <time>2014-07-26T17:52:01Z</time>
      </trkpt>
      <trkpt lat="44.48981" lon="-1.11332">
        <ele>21</ele>
        <time>2014-07-26T17:52:03Z</time>
      </trkpt>
      <trkpt lat="44.48977" lon="-1.11336">
        <ele>21</ele>
        <time>2014-07-26T17:52:05Z</time>
      </trkpt>
      <trkpt lat="44.48973" lon="-1.11342">
        <ele>21</ele>
        <time>2014-07-26T17:52:07Z</time>
      </trkpt>
      <trkpt lat="44.48969" lon="-1.11347">
        <ele>21</ele>
        <time>2014-07-26T17:52:09Z</time>
      </trkpt>
      <trkpt lat="44.48965" lon="-1.11352">
        <ele>21</ele>
        <time>2014-07-26T17:52:11Z</time>
      </trkpt>
      <trkpt lat="44.4896" lon="-1.11356">
        <ele>21</ele>
        <time>2014-07-26T17:52:13Z</time>
      </trkpt>
      <trkpt lat="44.48956" lon="-1.11361">
        <ele>21</ele>
        <time>2014-07-26T17:52:15Z</time>
      </trkpt>
      <trkpt lat="44.48952" lon="-1.11366">
        <ele>21</ele>
        <time>2014-07-26T17:52:17Z</time>
      </trkpt>
      <trkpt lat="44.48948" lon="-1.11372">
        <ele>21</ele>
        <time>2014-07-26T17:52:19Z</time>
      </trkpt>
      <trkpt lat="44.48944" lon="-1.11377">
        <ele>21</ele>
        <time>2014-07-26T17:52:21Z</time>
      </trkpt>
      <trkpt lat="44.4894" lon="-1.11382">
        <ele>21</ele>
        <time>2014-07-26T17:52:23Z</time>
      </trkpt>
      <trkpt lat="44.48936" lon="-1.11388">
        <ele>21</ele>
        <time>2014-07-26T17:52:25Z</time>
      </trkpt>
      <trkpt lat="44.48932" lon="-1.11392">
        <ele>21</ele>
        <time>2014-07-26T17:52:27Z</time>
      </trkpt>
      <trkpt lat="44.48928" lon="-1.11397">
        <ele>21</ele>
        <time>2014-07-26T17:52:29Z</time>
      </trkpt>
      <trkpt lat="44.48925" lon="-1.11401">
        <ele>21</ele>
        <time>2014-07-26T17:52:31Z</time>
      </trkpt>
      <trkpt lat="44.48921" lon="-1.11406">
        <ele>21</ele>
        <time>2014-07-26T17:52:33Z</time>
      </trkpt>
      <trkpt lat="44.48917" lon="-1.11411">
        <ele>21</ele>
        <time>2014-07-26T17:52:35Z</time>
      </trkpt>
      <trkpt lat="44.48912" lon="-1.11415">
        <ele>21</ele>
        <time>2014-07-26T17:52:37Z</time>
      </trkpt>
      <trkpt lat="44.48908" lon="-1.1142">
        <ele>21</ele>
        <time>2014-07-26T17:52:39Z</time>
      </trkpt>
      <trkpt lat="44.48905" lon="-1.11425">
        <ele>21</ele>
        <time>2014-07-26T17:52:41Z</time>
      </trkpt>
      <trkpt lat="44.48901" lon="-1.11432">
        <ele>21</ele>
        <time>2014-07-26T17:52:44Z</time>
      </trkpt>
      <trkpt lat="44.48902" lon="-1.1144">
        <ele>21</ele>
        <time>2014-07-26T17:52:48Z</time>
      </trkpt>
      <trkpt lat="44.48905" lon="-1.11445">
        <ele>21</ele>
        <time>2014-07-26T17:52:56Z</time>
      </trkpt>
      <trkpt lat="44.48911" lon="-1.11448">
        <ele>21</ele>
        <time>2014-07-26T17:53:00Z</time>
      </trkpt>
      <trkpt lat="44.4892" lon="-1.11447">
        <ele>21</ele>
        <time>2014-07-26T17:53:04Z</time>
      </trkpt>
      <trkpt lat="44.48926" lon="-1.11447">
        <ele>21</ele>
        <time>2014-07-26T17:53:06Z</time>
      </trkpt>
      <trkpt lat="44.48931" lon="-1.11447">
        <ele>21</ele>
        <time>2014-07-26T17:53:08Z</time>
      </trkpt>
      <trkpt lat="44.48936" lon="-1.11449">
        <ele>21</ele>
        <time>2014-07-26T17:53:10Z</time>
      </trkpt>
      <trkpt lat="44.48941" lon="-1.11451">
        <ele>21</ele>
        <time>2014-07-26T17:53:12Z</time>
      </trkpt>
      <trkpt lat="44.48946" lon="-1.11451">
        <ele>21</ele>
        <time>2014-07-26T17:53:14Z</time>
      </trkpt>
      <trkpt lat="44.48951" lon="-1.11451">
        <ele>21</ele>
        <time>2014-07-26T17:53:16Z</time>
      </trkpt>
      <trkpt lat="44.48957" lon="-1.11451">
        <ele>21</ele>
        <time>2014-07-26T17:53:18Z</time>
      </trkpt>
      <trkpt lat="44.48962" lon="-1.1145">
        <ele>21</ele>
        <time>2014-07-26T17:53:20Z</time>
      </trkpt>
      <trkpt lat="44.48968" lon="-1.1145">
        <ele>21</ele>
        <time>2014-07-26T17:53:22Z</time>
      </trkpt>
      <trkpt lat="44.48974" lon="-1.11451">
        <ele>21</ele>
        <time>2014-07-26T17:53:24Z</time>
      </trkpt>
      <trkpt lat="44.48979" lon="-1.11451">
        <ele>21</ele>
        <time>2014-07-26T17:53:26Z</time>
      </trkpt>
      <trkpt lat="44.48985" lon="-1.11451">
        <ele>21</ele>
        <time>2014-07-26T17:53:28Z</time>
      </trkpt>
      <trkpt lat="44.48991" lon="-1.1145">
        <ele>21</ele>
        <time>2014-07-26T17:53:30Z</time>
      </trkpt>
      <trkpt lat="44.48996" lon="-1.11449">
        <ele>21</ele>
        <time>2014-07-26T17:53:32Z</time>
      </trkpt>
      <trkpt lat="44.49002" lon="-1.1145">
        <ele>21</ele>
        <time>2014-07-26T17:53:34Z</time>
      </trkpt>
      <trkpt lat="44.49008" lon="-1.1145">
        <ele>21</ele>
        <time>2014-07-26T17:53:36Z</time>
      </trkpt>
      <trkpt lat="44.49013" lon="-1.11451">
        <ele>21</ele>
        <time>2014-07-26T17:53:38Z</time>
      </trkpt>
      <trkpt lat="44.49019" lon="-1.11452">
        <ele>21</ele>
        <time>2014-07-26T17:53:40Z</time>
      </trkpt>
      <trkpt lat="44.49025" lon="-1.11453">
        <ele>21</ele>
        <time>2014-07-26T17:53:42Z</time>
      </trkpt>
      <trkpt lat="44.4903" lon="-1.11453">
        <ele>21</ele>
        <time>2014-07-26T17:53:44Z</time>
      </trkpt>
      <trkpt lat="44.49035" lon="-1.11453">
        <ele>21</ele>
        <time>2014-07-26T17:53:46Z</time>
      </trkpt>
      <trkpt lat="44.49041" lon="-1.11453">
        <ele>21</ele>
        <time>2014-07-26T17:53:48Z</time>
      </trkpt>
      <trkpt lat="44.49046" lon="-1.11453">
        <ele>21</ele>
        <time>2014-07-26T17:53:50Z</time>
      </trkpt>
      <trkpt lat="44.49051" lon="-1.11453">
        <ele>21</ele>
        <time>2014-07-26T17:53:52Z</time>
      </trkpt>
      <trkpt lat="44.49057" lon="-1.11452">
        <ele>21</ele>
        <time>2014-07-26T17:53:54Z</time>
      </trkpt>
      <trkpt lat="44.49062" lon="-1.11452">
        <ele>21</ele>
        <time>2014-07-26T17:53:56Z</time>
      </trkpt>
      <trkpt lat="44.49067" lon="-1.11452">
        <ele>21</ele>
        <time>2014-07-26T17:53:58Z</time>
      </trkpt>
      <trkpt lat="44.49072" lon="-1.11452">
        <ele>21</ele>
        <time>2014-07-26T17:54:00Z</time>
      </trkpt>
      <trkpt lat="44.49077" lon="-1.11453">
        <ele>21</ele>
        <time>2014-07-26T17:54:02Z</time>
      </trkpt>
      <trkpt lat="44.49082" lon="-1.11455">
        <ele>21</ele>
        <time>2014-07-26T17:54:04Z</time>
      </trkpt>
      <trkpt lat="44.49087" lon="-1.11455">
        <ele>21</ele>
        <time>2014-07-26T17:54:06Z</time>
      </trkpt>
      <trkpt lat="44.49092" lon="-1.11455">
        <ele>21</ele>
        <time>2014-07-26T17:54:08Z</time>
      </trkpt>
      <trkpt lat="44.49097" lon="-1.11455">
        <ele>21</ele>
        <time>2014-07-26T17:54:10Z</time>
      </trkpt>
      <trkpt lat="44.49102" lon="-1.11456">
        <ele>21</ele>
        <time>2014-07-26T17:54:12Z</time>
      </trkpt>
      <trkpt lat="44.49107" lon="-1.11458">
        <ele>21</ele>
        <time>2014-07-26T17:54:14Z</time>
      </trkpt>
      <trkpt lat="44.49112" lon="-1.11459">
        <ele>21</ele>
        <time>2014-07-26T17:54:16Z</time>
      </trkpt>
      <trkpt lat="44.49117" lon="-1.1146">
        <ele>21</ele>
        <time>2014-07-26T17:54:18Z</time>
      </trkpt>
      <trkpt lat="44.49122" lon="-1.1146">
        <ele>21</ele>
        <time>2014-07-26T17:54:20Z</time>
      </trkpt>
      <trkpt lat="44.49127" lon="-1.11461">
        <ele>21</ele>
        <time>2014-07-26T17:54:22Z</time>
      </trkpt>
      <trkpt lat="44.49132" lon="-1.11461">
        <ele>21</ele>
        <time>2014-07-26T17:54:24Z</time>
      </trkpt>
      <trkpt lat="44.49137" lon="-1.11462">
        <ele>21</ele>
        <time>2014-07-26T17:54:26Z</time>
      </trkpt>
      <trkpt lat="44.49142" lon="-1.11463">
        <ele>21</ele>
        <time>2014-07-26T17:54:28Z</time>
      </trkpt>
      <trkpt lat="44.49148" lon="-1.11464">
        <ele>21</ele>
        <time>2014-07-26T17:54:31Z</time>
      </trkpt>
      <trkpt lat="44.49153" lon="-1.11464">
        <ele>21</ele>
        <time>2014-07-26T17:54:33Z</time>
      </trkpt>
      <trkpt lat="44.49158" lon="-1.11464">
        <ele>21</ele>
        <time>2014-07-26T17:54:35Z</time>
      </trkpt>
      <trkpt lat="44.49163" lon="-1.11463">
        <ele>21</ele>
        <time>2014-07-26T17:54:37Z</time>
      </trkpt>
      <trkpt lat="44.49168" lon="-1.11464">
        <ele>21</ele>
        <time>2014-07-26T17:54:39Z</time>
      </trkpt>
      <trkpt lat="44.49172" lon="-1.11465">
        <ele>21</ele>
        <time>2014-07-26T17:54:41Z</time>
      </trkpt>
      <trkpt lat="44.49177" lon="-1.11466">
        <ele>21</ele>
        <time>2014-07-26T17:54:43Z</time>
      </trkpt>
      <trkpt lat="44.49182" lon="-1.11466">
        <ele>21</ele>
        <time>2014-07-26T17:54:45Z</time>
      </trkpt>
      <trkpt lat="44.49187" lon="-1.11466">
        <ele>21</ele>
        <time>2014-07-26T17:54:47Z</time>
      </trkpt>
      <trkpt lat="44.49192" lon="-1.11467">
        <ele>21</ele>
        <time>2014-07-26T17:54:49Z</time>
      </trkpt>
      <trkpt lat="44.49198" lon="-1.11468">
        <ele>21</ele>
        <time>2014-07-26T17:54:51Z</time>
      </trkpt>
      <trkpt lat="44.49203" lon="-1.11469">
        <ele>21</ele>
        <time>2014-07-26T17:54:53Z</time>
      </trkpt>
      <trkpt lat="44.49208" lon="-1.11469">
        <ele>21</ele>
        <time>2014-07-26T17:54:55Z</time>
      </trkpt>
      <trkpt lat="44.49213" lon="-1.11469">
        <ele>21</ele>
        <time>2014-07-26T17:54:57Z</time>
      </trkpt>
      <trkpt lat="44.49218" lon="-1.11469">
        <ele>21</ele>
        <time>2014-07-26T17:54:59Z</time>
      </trkpt>
      <trkpt lat="44.49224" lon="-1.1147">
        <ele>21</ele>
        <time>2014-07-26T17:55:01Z</time>
      </trkpt>
      <trkpt lat="44.49229" lon="-1.11471">
        <ele>21</ele>
        <time>2014-07-26T17:55:03Z</time>
      </trkpt>
      <trkpt lat="44.49235" lon="-1.11472">
        <ele>21</ele>
        <time>2014-07-26T17:55:05Z</time>
      </trkpt>
      <trkpt lat="44.49241" lon="-1.11473">
        <ele>21</ele>
        <time>2014-07-26T17:55:07Z</time>
      </trkpt>
      <trkpt lat="44.49246" lon="-1.11475">
        <ele>21</ele>
        <time>2014-07-26T17:55:09Z</time>
      </trkpt>
      <trkpt lat="44.49252" lon="-1.11476">
        <ele>21</ele>
        <time>2014-07-26T17:55:11Z</time>
      </trkpt>
      <trkpt lat="44.49257" lon="-1.11476">
        <ele>21</ele>
        <time>2014-07-26T17:55:13Z</time>
      </trkpt>
      <trkpt lat="44.49263" lon="-1.11476">
        <ele>21</ele>
        <time>2014-07-26T17:55:15Z</time>
      </trkpt>
      <trkpt lat="44.49268" lon="-1.11476">
        <ele>21</ele>
        <time>2014-07-26T17:55:17Z</time>
      </trkpt>
      <trkpt lat="44.49273" lon="-1.11476">
        <ele>21</ele>
        <time>2014-07-26T17:55:19Z</time>
      </trkpt>
      <trkpt lat="44.49279" lon="-1.11476">
        <ele>21</ele>
        <time>2014-07-26T17:55:21Z</time>
      </trkpt>
      <trkpt lat="44.49284" lon="-1.11476">
        <ele>21</ele>
        <time>2014-07-26T17:55:23Z</time>
      </trkpt>
      <trkpt lat="44.49289" lon="-1.11477">
        <ele>21</ele>
        <time>2014-07-26T17:55:25Z</time>
      </trkpt>
      <trkpt lat="44.49294" lon="-1.11479">
        <ele>21</ele>
        <time>2014-07-26T17:55:27Z</time>
      </trkpt>
      <trkpt lat="44.49299" lon="-1.1148">
        <ele>21</ele>
        <time>2014-07-26T17:55:29Z</time>
      </trkpt>
      <trkpt lat="44.49304" lon="-1.11481">
        <ele>21</ele>
        <time>2014-07-26T17:55:31Z</time>
      </trkpt>
      <trkpt lat="44.49309" lon="-1.11482">
        <ele>21</ele>
        <time>2014-07-26T17:55:33Z</time>
      </trkpt>
      <trkpt lat="44.49315" lon="-1.11483">
        <ele>21</ele>
        <time>2014-07-26T17:55:35Z</time>
      </trkpt>
      <trkpt lat="44.4932" lon="-1.11483">
        <ele>21</ele>
        <time>2014-07-26T17:55:37Z</time>
      </trkpt>
      <trkpt lat="44.49325" lon="-1.11484">
        <ele>21</ele>
        <time>2014-07-26T17:55:39Z</time>
      </trkpt>
      <trkpt lat="44.4933" lon="-1.11485">
        <ele>21</ele>
        <time>2014-07-26T17:55:41Z</time>
      </trkpt>
      <trkpt lat="44.49335" lon="-1.11486">
        <ele>21</ele>
        <time>2014-07-26T17:55:43Z</time>
      </trkpt>
      <trkpt lat="44.4934" lon="-1.11487">
        <ele>21</ele>
        <time>2014-07-26T17:55:45Z</time>
      </trkpt>
      <trkpt lat="44.49344" lon="-1.11488">
        <ele>21</ele>
        <time>2014-07-26T17:55:47Z</time>
      </trkpt>
      <trkpt lat="44.49349" lon="-1.11488">
        <ele>21</ele>
        <time>2014-07-26T17:55:49Z</time>
      </trkpt>
      <trkpt lat="44.49355" lon="-1.11491">
        <ele>21</ele>
        <time>2014-07-26T17:55:52Z</time>
      </trkpt>
      <trkpt lat="44.49359" lon="-1.11492">
        <ele>21</ele>
        <time>2014-07-26T17:55:54Z</time>
      </trkpt>
      <trkpt lat="44.49364" lon="-1.11493">
        <ele>21</ele>
        <time>2014-07-26T17:55:56Z</time>
      </trkpt>
      <trkpt lat="44.49368" lon="-1.11494">
        <ele>21</ele>
        <time>2014-07-26T17:55:58Z</time>
      </trkpt>
      <trkpt lat="44.49373" lon="-1.11496">
        <ele>21</ele>
        <time>2014-07-26T17:56:00Z</time>
      </trkpt>
      <trkpt lat="44.49378" lon="-1.11497">
        <ele>21</ele>
        <time>2014-07-26T17:56:02Z</time>
      </trkpt>
      <trkpt lat="44.49382" lon="-1.11499">
        <ele>21</ele>
        <time>2014-07-26T17:56:04Z</time>
      </trkpt>
      <trkpt lat="44.49387" lon="-1.115">
        <ele>21</ele>
        <time>2014-07-26T17:56:06Z</time>
      </trkpt>
      <trkpt lat="44.49391" lon="-1.11501">
        <ele>21</ele>
        <time>2014-07-26T17:56:08Z</time>
      </trkpt>
      <trkpt lat="44.49396" lon="-1.11502">
        <ele>21</ele>
        <time>2014-07-26T17:56:10Z</time>
      </trkpt>
      <trkpt lat="44.49401" lon="-1.11504">
        <ele>21</ele>
        <time>2014-07-26T17:56:12Z</time>
      </trkpt>
      <trkpt lat="44.49405" lon="-1.11506">
        <ele>21</ele>
        <time>2014-07-26T17:56:14Z</time>
      </trkpt>
      <trkpt lat="44.4941" lon="-1.11508">
        <ele>21</ele>
        <time>2014-07-26T17:56:16Z</time>
      </trkpt>
      <trkpt lat="44.49415" lon="-1.11509">
        <ele>21</ele>
        <time>2014-07-26T17:56:18Z</time>
      </trkpt>
      <trkpt lat="44.4942" lon="-1.11509">
        <ele>21</ele>
        <time>2014-07-26T17:56:20Z</time>
      </trkpt>
      <trkpt lat="44.49424" lon="-1.11511">
        <ele>21</ele>
        <time>2014-07-26T17:56:22Z</time>
      </trkpt>
      <trkpt lat="44.49429" lon="-1.11512">
        <ele>21</ele>
        <time>2014-07-26T17:56:24Z</time>
      </trkpt>
      <trkpt lat="44.49434" lon="-1.11513">
        <ele>21</ele>
        <time>2014-07-26T17:56:26Z</time>
      </trkpt>
      <trkpt lat="44.49439" lon="-1.11514">
        <ele>21</ele>
        <time>2014-07-26T17:56:28Z</time>
      </trkpt>
      <trkpt lat="44.49446" lon="-1.11516">
        <ele>21</ele>
        <time>2014-07-26T17:56:31Z</time>
      </trkpt>
      <trkpt lat="44.4945" lon="-1.11517">
        <ele>21</ele>
        <time>2014-07-26T17:56:33Z</time>
      </trkpt>
      <trkpt lat="44.49455" lon="-1.11517">
        <ele>21</ele>
        <time>2014-07-26T17:56:35Z</time>
      </trkpt>
      <trkpt lat="44.4946" lon="-1.11517">
        <ele>21</ele>
        <time>2014-07-26T17:56:37Z</time>
      </trkpt>
      <trkpt lat="44.49466" lon="-1.1152">
        <ele>21</ele>
        <time>2014-07-26T17:56:40Z</time>
      </trkpt>
      <trkpt lat="44.49471" lon="-1.11521">
        <ele>21</ele>
        <time>2014-07-26T17:56:42Z</time>
      </trkpt>
      <trkpt lat="44.49477" lon="-1.11522">
        <ele>21</ele>
        <time>2014-07-26T17:56:44Z</time>
      </trkpt>
      <trkpt lat="44.49483" lon="-1.11524">
        <ele>21</ele>
        <time>2014-07-26T17:56:47Z</time>
      </trkpt>
      <trkpt lat="44.49488" lon="-1.11526">
        <ele>21</ele>
        <time>2014-07-26T17:56:49Z</time>
      </trkpt>
      <trkpt lat="44.49494" lon="-1.11529">
        <ele>21</ele>
        <time>2014-07-26T17:56:52Z</time>
      </trkpt>
      <trkpt lat="44.49499" lon="-1.1153">
        <ele>21</ele>
        <time>2014-07-26T17:56:54Z</time>
      </trkpt>
      <trkpt lat="44.49504" lon="-1.11531">
        <ele>21</ele>
        <time>2014-07-26T17:56:56Z</time>
      </trkpt>
      <trkpt lat="44.49508" lon="-1.11532">
        <ele>21</ele>
        <time>2014-07-26T17:56:58Z</time>
      </trkpt>
      <trkpt lat="44.49512" lon="-1.11535">
        <ele>21</ele>
        <time>2014-07-26T17:57:00Z</time>
      </trkpt>
      <trkpt lat="44.49517" lon="-1.11537">
        <ele>21</ele>
        <time>2014-07-26T17:57:02Z</time>
      </trkpt>
      <trkpt lat="44.49521" lon="-1.11539">
        <ele>21</ele>
        <time>2014-07-26T17:57:04Z</time>
      </trkpt>
      <trkpt lat="44.49526" lon="-1.11541">
        <ele>21</ele>
        <time>2014-07-26T17:57:06Z</time>
      </trkpt>
      <trkpt lat="44.49531" lon="-1.11542">
        <ele>21</ele>
        <time>2014-07-26T17:57:08Z</time>
      </trkpt>
      <trkpt lat="44.49535" lon="-1.11546">
        <ele>21</ele>
        <time>2014-07-26T17:57:10Z</time>
      </trkpt>
      <trkpt lat="44.49541" lon="-1.11547">
        <ele>21</ele>
        <time>2014-07-26T17:57:13Z</time>
      </trkpt>
      <trkpt lat="44.49545" lon="-1.11547">
        <ele>21</ele>
        <time>2014-07-26T17:57:15Z</time>
      </trkpt>
      <trkpt lat="44.49551" lon="-1.11547">
        <ele>21</ele>
        <time>2014-07-26T17:57:17Z</time>
      </trkpt>
      <trkpt lat="44.49556" lon="-1.11548">
        <ele>21</ele>
        <time>2014-07-26T17:57:19Z</time>
      </trkpt>
      <trkpt lat="44.49562" lon="-1.11548">
        <ele>21</ele>
        <time>2014-07-26T17:57:21Z</time>
      </trkpt>
      <trkpt lat="44.49568" lon="-1.11549">
        <ele>21</ele>
        <time>2014-07-26T17:57:23Z</time>
      </trkpt>
      <trkpt lat="44.49574" lon="-1.11549">
        <ele>21</ele>
        <time>2014-07-26T17:57:25Z</time>
      </trkpt>
      <trkpt lat="44.4958" lon="-1.11549">
        <ele>21</ele>
        <time>2014-07-26T17:57:27Z</time>
      </trkpt>
      <trkpt lat="44.49585" lon="-1.11549">
        <ele>21</ele>
        <time>2014-07-26T17:57:29Z</time>
      </trkpt>
      <trkpt lat="44.4959" lon="-1.1155">
        <ele>21</ele>
        <time>2014-07-26T17:57:31Z</time>
      </trkpt>
      <trkpt lat="44.49595" lon="-1.11552">
        <ele>21</ele>
        <time>2014-07-26T17:57:33Z</time>
      </trkpt>
      <trkpt lat="44.496" lon="-1.11552">
        <ele>21</ele>
        <time>2014-07-26T17:57:35Z</time>
      </trkpt>
      <trkpt lat="44.49605" lon="-1.11553">
        <ele>21</ele>
        <time>2014-07-26T17:57:37Z</time>
      </trkpt>
      <trkpt lat="44.4961" lon="-1.11553">
        <ele>21</ele>
        <time>2014-07-26T17:57:39Z</time>
      </trkpt>
      <trkpt lat="44.49616" lon="-1.11554">
        <ele>21</ele>
        <time>2014-07-26T17:57:41Z</time>
      </trkpt>
      <trkpt lat="44.49621" lon="-1.11555">
        <ele>21</ele>
        <time>2014-07-26T17:57:43Z</time>
      </trkpt>
      <trkpt lat="44.49626" lon="-1.11556">
        <ele>21</ele>
        <time>2014-07-26T17:57:45Z</time>
      </trkpt>
      <trkpt lat="44.49632" lon="-1.11558">
        <ele>21</ele>
        <time>2014-07-26T17:57:47Z</time>
      </trkpt>
      <trkpt lat="44.49637" lon="-1.11559">
        <ele>21</ele>
        <time>2014-07-26T17:57:49Z</time>
      </trkpt>
      <trkpt lat="44.49641" lon="-1.11561">
        <ele>21</ele>
        <time>2014-07-26T17:57:51Z</time>
      </trkpt>
      <trkpt lat="44.49645" lon="-1.11567">
        <ele>21</ele>
        <time>2014-07-26T17:57:54Z</time>
      </trkpt>
      <trkpt lat="44.49646" lon="-1.11573">
        <ele>21</ele>
        <time>2014-07-26T17:57:57Z</time>
      </trkpt>
      <trkpt lat="44.49644" lon="-1.1158">
        <ele>21</ele>
        <time>2014-07-26T17:58:03Z</time>
      </trkpt>
      <trkpt lat="44.49641" lon="-1.11586">
        <ele>21</ele>
        <time>2014-07-26T17:58:07Z</time>
      </trkpt>
      <trkpt lat="44.49637" lon="-1.11591">
        <ele>21</ele>
        <time>2014-07-26T17:58:10Z</time>
      </trkpt>
      <trkpt lat="44.49632" lon="-1.11597">
        <ele>21</ele>
        <time>2014-07-26T17:58:13Z</time>
      </trkpt>
      <trkpt lat="44.49629" lon="-1.11603">
        <ele>21</ele>
        <time>2014-07-26T17:58:15Z</time>
      </trkpt>
      <trkpt lat="44.49626" lon="-1.1161">
        <ele>21</ele>
        <time>2014-07-26T17:58:18Z</time>
      </trkpt>
      <trkpt lat="44.49622" lon="-1.11616">
        <ele>21</ele>
        <time>2014-07-26T17:58:21Z</time>
      </trkpt>
      <trkpt lat="44.49618" lon="-1.11623">
        <ele>21</ele>
        <time>2014-07-26T17:58:24Z</time>
      </trkpt>
      <trkpt lat="44.49614" lon="-1.11629">
        <ele>21</ele>
        <time>2014-07-26T17:58:27Z</time>
      </trkpt>
      <trkpt lat="44.49611" lon="-1.11634">
        <ele>21</ele>
        <time>2014-07-26T17:58:29Z</time>
      </trkpt>
      <trkpt lat="44.49607" lon="-1.11641">
        <ele>21</ele>
        <time>2014-07-26T17:58:32Z</time>
      </trkpt>
      <trkpt lat="44.49603" lon="-1.11648">
        <ele>21</ele>
        <time>2014-07-26T17:58:35Z</time>
      </trkpt>
      <trkpt lat="44.496" lon="-1.11653">
        <ele>21</ele>
        <time>2014-07-26T17:58:37Z</time>
      </trkpt>
      <trkpt lat="44.49597" lon="-1.11659">
        <ele>21</ele>
        <time>2014-07-26T17:58:39Z</time>
      </trkpt>
      <trkpt lat="44.49593" lon="-1.11665">
        <ele>21</ele>
        <time>2014-07-26T17:58:41Z</time>
      </trkpt>
      <trkpt lat="44.49589" lon="-1.1167">
        <ele>21</ele>
        <time>2014-07-26T17:58:43Z</time>
      </trkpt>
      <trkpt lat="44.49585" lon="-1.11674">
        <ele>21</ele>
        <time>2014-07-26T17:58:45Z</time>
      </trkpt>
      <trkpt lat="44.49582" lon="-1.11679">
        <ele>21</ele>
        <time>2014-07-26T17:58:47Z</time>
      </trkpt>
      <trkpt lat="44.49579" lon="-1.11685">
        <ele>21</ele>
        <time>2014-07-26T17:58:49Z</time>
      </trkpt>
      <trkpt lat="44.49575" lon="-1.1169">
        <ele>21</ele>
        <time>2014-07-26T17:58:51Z</time>
      </trkpt>
      <trkpt lat="44.49572" lon="-1.11696">
        <ele>21</ele>
        <time>2014-07-26T17:58:53Z</time>
      </trkpt>
      <trkpt lat="44.49568" lon="-1.11701">
        <ele>21</ele>
        <time>2014-07-26T17:58:55Z</time>
      </trkpt>
      <trkpt lat="44.49565" lon="-1.11706">
        <ele>21</ele>
        <time>2014-07-26T17:58:57Z</time>
      </trkpt>
      <trkpt lat="44.49561" lon="-1.1171">
        <ele>21</ele>
        <time>2014-07-26T17:58:59Z</time>
      </trkpt>
      <trkpt lat="44.49557" lon="-1.11715">
        <ele>21</ele>
        <time>2014-07-26T17:59:01Z</time>
      </trkpt>
      <trkpt lat="44.49554" lon="-1.1172">
        <ele>21</ele>
        <time>2014-07-26T17:59:03Z</time>
      </trkpt>
      <trkpt lat="44.49551" lon="-1.11726">
        <ele>21</ele>
        <time>2014-07-26T17:59:05Z</time>
      </trkpt>
      <trkpt lat="44.49548" lon="-1.11732">
        <ele>21</ele>
        <time>2014-07-26T17:59:07Z</time>
      </trkpt>
      <trkpt lat="44.49544" lon="-1.11738">
        <ele>21</ele>
        <time>2014-07-26T17:59:09Z</time>
      </trkpt>
      <trkpt lat="44.49542" lon="-1.11744">
        <ele>21</ele>
        <time>2014-07-26T17:59:11Z</time>
      </trkpt>
      <trkpt lat="44.49539" lon="-1.1175">
        <ele>21</ele>
        <time>2014-07-26T17:59:13Z</time>
      </trkpt>
      <trkpt lat="44.49536" lon="-1.11756">
        <ele>21</ele>
        <time>2014-07-26T17:59:15Z</time>
      </trkpt>
      <trkpt lat="44.49533" lon="-1.11762">
        <ele>21</ele>
        <time>2014-07-26T17:59:17Z</time>
      </trkpt>
      <trkpt lat="44.4953" lon="-1.11767">
        <ele>21</ele>
        <time>2014-07-26T17:59:19Z</time>
      </trkpt>
      <trkpt lat="44.49527" lon="-1.11773">
        <ele>21</ele>
        <time>2014-07-26T17:59:21Z</time>
      </trkpt>
      <trkpt lat="44.49524" lon="-1.11778">
        <ele>21</ele>
        <time>2014-07-26T17:59:23Z</time>
      </trkpt>
      <trkpt lat="44.4952" lon="-1.11783">
        <ele>21</ele>
        <time>2014-07-26T17:59:25Z</time>
      </trkpt>
      <trkpt lat="44.49517" lon="-1.11788">
        <ele>21</ele>
        <time>2014-07-26T17:59:27Z</time>
      </trkpt>
      <trkpt lat="44.49513" lon="-1.11793">
        <ele>21</ele>
        <time>2014-07-26T17:59:29Z</time>
      </trkpt>
      <trkpt lat="44.49511" lon="-1.11799">
        <ele>21</ele>
        <time>2014-07-26T17:59:31Z</time>
      </trkpt>
      <trkpt lat="44.49507" lon="-1.11806">
        <ele>21</ele>
        <time>2014-07-26T17:59:34Z</time>
      </trkpt>
      <trkpt lat="44.49502" lon="-1.11812">
        <ele>21</ele>
        <time>2014-07-26T17:59:37Z</time>
      </trkpt>
      <trkpt lat="44.49499" lon="-1.11817">
        <ele>21</ele>
        <time>2014-07-26T17:59:39Z</time>
      </trkpt>
      <trkpt lat="44.49497" lon="-1.11824">
        <ele>21</ele>
        <time>2014-07-26T17:59:41Z</time>
      </trkpt>
      <trkpt lat="44.49494" lon="-1.1183">
        <ele>21</ele>
        <time>2014-07-26T17:59:43Z</time>
      </trkpt>
      <trkpt lat="44.49491" lon="-1.11835">
        <ele>21</ele>
        <time>2014-07-26T17:59:45Z</time>
      </trkpt>
      <trkpt lat="44.49488" lon="-1.1184">
        <ele>21</ele>
        <time>2014-07-26T17:59:47Z</time>
      </trkpt>
      <trkpt lat="44.49485" lon="-1.11845">
        <ele>21</ele>
        <time>2014-07-26T17:59:49Z</time>
      </trkpt>
      <trkpt lat="44.49482" lon="-1.11851">
        <ele>21</ele>
        <time>2014-07-26T17:59:51Z</time>
      </trkpt>
      <trkpt lat="44.49479" lon="-1.11857">
        <ele>21</ele>
        <time>2014-07-26T17:59:53Z</time>
      </trkpt>
      <trkpt lat="44.49476" lon="-1.11863">
        <ele>21</ele>
        <time>2014-07-26T17:59:55Z</time>
      </trkpt>
      <trkpt lat="44.49473" lon="-1.11868">
        <ele>21</ele>
        <time>2014-07-26T17:59:57Z</time>
      </trkpt>
      <trkpt lat="44.49469" lon="-1.11875">
        <ele>21</ele>
        <time>2014-07-26T18:00:00Z</time>
      </trkpt>
      <trkpt lat="44.49465" lon="-1.11883">
        <ele>21</ele>
        <time>2014-07-26T18:00:03Z</time>
      </trkpt>
      <trkpt lat="44.49462" lon="-1.11887">
        <ele>21</ele>
        <time>2014-07-26T18:00:05Z</time>
      </trkpt>
      <trkpt lat="44.49458" lon="-1.11892">
        <ele>21</ele>
        <time>2014-07-26T18:00:07Z</time>
      </trkpt>
      <trkpt lat="44.49455" lon="-1.11897">
        <ele>21</ele>
        <time>2014-07-26T18:00:09Z</time>
      </trkpt>
      <trkpt lat="44.49452" lon="-1.11902">
        <ele>21</ele>
        <time>2014-07-26T18:00:11Z</time>
      </trkpt>
      <trkpt lat="44.49449" lon="-1.11907">
        <ele>21</ele>
        <time>2014-07-26T18:00:13Z</time>
      </trkpt>
      <trkpt lat="44.49446" lon="-1.11912">
        <ele>21</ele>
        <time>2014-07-26T18:00:15Z</time>
      </trkpt>
      <trkpt lat="44.49443" lon="-1.11917">
        <ele>21</ele>
        <time>2014-07-26T18:00:17Z</time>
      </trkpt>
      <trkpt lat="44.4944" lon="-1.11923">
        <ele>21</ele>
        <time>2014-07-26T18:00:19Z</time>
      </trkpt>
      <trkpt lat="44.49436" lon="-1.11928">
        <ele>21</ele>
        <time>2014-07-26T18:00:21Z</time>
      </trkpt>
      <trkpt lat="44.49433" lon="-1.11933">
        <ele>21</ele>
        <time>2014-07-26T18:00:23Z</time>
      </trkpt>
      <trkpt lat="44.4943" lon="-1.11938">
        <ele>21</ele>
        <time>2014-07-26T18:00:25Z</time>
      </trkpt>
      <trkpt lat="44.49426" lon="-1.11944">
        <ele>21</ele>
        <time>2014-07-26T18:00:27Z</time>
      </trkpt>
      <trkpt lat="44.49422" lon="-1.11949">
        <ele>21</ele>
        <time>2014-07-26T18:00:29Z</time>
      </trkpt>
      <trkpt lat="44.49417" lon="-1.11957">
        <ele>21</ele>
        <time>2014-07-26T18:00:32Z</time>
      </trkpt>
      <trkpt lat="44.49413" lon="-1.11962">
        <ele>21</ele>
        <time>2014-07-26T18:00:34Z</time>
      </trkpt>
      <trkpt lat="44.4941" lon="-1.11968">
        <ele>21</ele>
        <time>2014-07-26T18:00:36Z</time>
      </trkpt>
      <trkpt lat="44.49406" lon="-1.11974">
        <ele>21</ele>
        <time>2014-07-26T18:00:38Z</time>
      </trkpt>
      <trkpt lat="44.49401" lon="-1.1198">
        <ele>21</ele>
        <time>2014-07-26T18:00:40Z</time>
      </trkpt>
      <trkpt lat="44.49397" lon="-1.11986">
        <ele>21</ele>
        <time>2014-07-26T18:00:42Z</time>
      </trkpt>
      <trkpt lat="44.49394" lon="-1.11991">
        <ele>21</ele>
        <time>2014-07-26T18:00:44Z</time>
      </trkpt>
      <trkpt lat="44.4939" lon="-1.11996">
        <ele>21</ele>
        <time>2014-07-26T18:00:46Z</time>
      </trkpt>
      <trkpt lat="44.49386" lon="-1.12001">
        <ele>21</ele>
        <time>2014-07-26T18:00:48Z</time>
      </trkpt>
      <trkpt lat="44.49382" lon="-1.12007">
        <ele>21</ele>
        <time>2014-07-26T18:00:50Z</time>
      </trkpt>
      <trkpt lat="44.49378" lon="-1.12012">
        <ele>21</ele>
        <time>2014-07-26T18:00:52Z</time>
      </trkpt>
      <trkpt lat="44.49373" lon="-1.12018">
        <ele>21</ele>
        <time>2014-07-26T18:00:54Z</time>
      </trkpt>
      <trkpt lat="44.49369" lon="-1.12023">
        <ele>21</ele>
        <time>2014-07-26T18:00:56Z</time>
      </trkpt>
      <trkpt lat="44.49365" lon="-1.12029">
        <ele>21</ele>
        <time>2014-07-26T18:00:58Z</time>
      </trkpt>
      <trkpt lat="44.4936" lon="-1.12034">
        <ele>21</ele>
        <time>2014-07-26T18:01:00Z</time>
      </trkpt>
      <trkpt lat="44.49355" lon="-1.1204">
        <ele>21</ele>
        <time>2014-07-26T18:01:02Z</time>
      </trkpt>
      <trkpt lat="44.49351" lon="-1.12044">
        <ele>21</ele>
        <time>2014-07-26T18:01:04Z</time>
      </trkpt>
      <trkpt lat="44.49346" lon="-1.12049">
        <ele>21</ele>
        <time>2014-07-26T18:01:06Z</time>
      </trkpt>
      <trkpt lat="44.49341" lon="-1.12054">
        <ele>21</ele>
        <time>2014-07-26T18:01:08Z</time>
      </trkpt>
      <trkpt lat="44.49337" lon="-1.1206">
        <ele>21</ele>
        <time>2014-07-26T18:01:10Z</time>
      </trkpt>
      <trkpt lat="44.49334" lon="-1.12066">
        <ele>21</ele>
        <time>2014-07-26T18:01:12Z</time>
      </trkpt>
      <trkpt lat="44.4933" lon="-1.12073">
        <ele>21</ele>
        <time>2014-07-26T18:01:14Z</time>
      </trkpt>
      <trkpt lat="44.49326" lon="-1.1208">
        <ele>21</ele>
        <time>2014-07-26T18:01:16Z</time>
      </trkpt>
      <trkpt lat="44.49323" lon="-1.12086">
        <ele>21</ele>
        <time>2014-07-26T18:01:18Z</time>
      </trkpt>
      <trkpt lat="44.49319" lon="-1.12092">
        <ele>21</ele>
        <time>2014-07-26T18:01:20Z</time>
      </trkpt>
      <trkpt lat="44.49315" lon="-1.12097">
        <ele>21</ele>
        <time>2014-07-26T18:01:22Z</time>
      </trkpt>
      <trkpt lat="44.49312" lon="-1.12104">
        <ele>21</ele>
        <time>2014-07-26T18:01:24Z</time>
      </trkpt>
      <trkpt lat="44.49309" lon="-1.1211">
        <ele>21</ele>
        <time>2014-07-26T18:01:26Z</time>
      </trkpt>
      <trkpt lat="44.49306" lon="-1.12117">
        <ele>21</ele>
        <time>2014-07-26T18:01:28Z</time>
      </trkpt>
      <trkpt lat="44.49302" lon="-1.12124">
        <ele>21</ele>
        <time>2014-07-26T18:01:30Z</time>
      </trkpt>
      <trkpt lat="44.49298" lon="-1.12131">
        <ele>21</ele>
        <time>2014-07-26T18:01:32Z</time>
      </trkpt>
      <trkpt lat="44.49295" lon="-1.12137">
        <ele>21</ele>
        <time>2014-07-26T18:01:34Z</time>
      </trkpt>
      <trkpt lat="44.49291" lon="-1.12144">
        <ele>21</ele>
        <time>2014-07-26T18:01:36Z</time>
      </trkpt>
      <trkpt lat="44.49287" lon="-1.12149">
        <ele>21</ele>
        <time>2014-07-26T18:01:38Z</time>
      </trkpt>
      <trkpt lat="44.49283" lon="-1.12155">
        <ele>21</ele>
        <time>2014-07-26T18:01:40Z</time>
      </trkpt>
      <trkpt lat="44.49279" lon="-1.12161">
        <ele>21</ele>
        <time>2014-07-26T18:01:42Z</time>
      </trkpt>
      <trkpt lat="44.49274" lon="-1.12167">
        <ele>21</ele>
        <time>2014-07-26T18:01:44Z</time>
      </trkpt>
      <trkpt lat="44.49269" lon="-1.12173">
        <ele>21</ele>
        <time>2014-07-26T18:01:46Z</time>
      </trkpt>
      <trkpt lat="44.49265" lon="-1.12179">
        <ele>21</ele>
        <time>2014-07-26T18:01:48Z</time>
      </trkpt>
      <trkpt lat="44.49261" lon="-1.12184">
        <ele>21</ele>
        <time>2014-07-26T18:01:50Z</time>
      </trkpt>
      <trkpt lat="44.49257" lon="-1.1219">
        <ele>21</ele>
        <time>2014-07-26T18:01:52Z</time>
      </trkpt>
      <trkpt lat="44.49254" lon="-1.12196">
        <ele>21</ele>
        <time>2014-07-26T18:01:54Z</time>
      </trkpt>
      <trkpt lat="44.4925" lon="-1.12202">
        <ele>21</ele>
        <time>2014-07-26T18:01:56Z</time>
      </trkpt>
      <trkpt lat="44.49246" lon="-1.12207">
        <ele>21</ele>
        <time>2014-07-26T18:01:58Z</time>
      </trkpt>
      <trkpt lat="44.49242" lon="-1.12212">
        <ele>21</ele>
        <time>2014-07-26T18:02:00Z</time>
      </trkpt>
      <trkpt lat="44.49238" lon="-1.12217">
        <ele>21</ele>
        <time>2014-07-26T18:02:02Z</time>
      </trkpt>
      <trkpt lat="44.49233" lon="-1.12222">
        <ele>21</ele>
        <time>2014-07-26T18:02:04Z</time>
      </trkpt>
      <trkpt lat="44.49229" lon="-1.12227">
        <ele>21</ele>
        <time>2014-07-26T18:02:06Z</time>
      </trkpt>
      <trkpt lat="44.49226" lon="-1.12233">
        <ele>21</ele>
        <time>2014-07-26T18:02:08Z</time>
      </trkpt>
      <trkpt lat="44.49223" lon="-1.12239">
        <ele>21</ele>
        <time>2014-07-26T18:02:10Z</time>
      </trkpt>
      <trkpt lat="44.4922" lon="-1.12245">
        <ele>21</ele>
        <time>2014-07-26T18:02:12Z</time>
      </trkpt>
      <trkpt lat="44.49217" lon="-1.12252">
        <ele>21</ele>
        <time>2014-07-26T18:02:14Z</time>
      </trkpt>
      <trkpt lat="44.49215" lon="-1.12258">
        <ele>21</ele>
        <time>2014-07-26T18:02:16Z</time>
      </trkpt>
      <trkpt lat="44.49212" lon="-1.12266">
        <ele>21</ele>
        <time>2014-07-26T18:02:19Z</time>
      </trkpt>
      <trkpt lat="44.49209" lon="-1.12272">
        <ele>21</ele>
        <time>2014-07-26T18:02:21Z</time>
      </trkpt>
      <trkpt lat="44.49206" lon="-1.12277">
        <ele>21</ele>
        <time>2014-07-26T18:02:23Z</time>
      </trkpt>
      <trkpt lat="44.49203" lon="-1.12282">
        <ele>21</ele>
        <time>2014-07-26T18:02:25Z</time>
      </trkpt>
      <trkpt lat="44.492" lon="-1.12288">
        <ele>21</ele>
        <time>2014-07-26T18:02:27Z</time>
      </trkpt>
      <trkpt lat="44.49197" lon="-1.12293">
        <ele>21</ele>
        <time>2014-07-26T18:02:29Z</time>
      </trkpt>
      <trkpt lat="44.49194" lon="-1.12299">
        <ele>21</ele>
        <time>2014-07-26T18:02:31Z</time>
      </trkpt>
      <trkpt lat="44.49191" lon="-1.12305">
        <ele>21</ele>
        <time>2014-07-26T18:02:33Z</time>
      </trkpt>
      <trkpt lat="44.49188" lon="-1.1231">
        <ele>21</ele>
        <time>2014-07-26T18:02:35Z</time>
      </trkpt>
      <trkpt lat="44.49184" lon="-1.12316">
        <ele>21</ele>
        <time>2014-07-26T18:02:37Z</time>
      </trkpt>
      <trkpt lat="44.49181" lon="-1.12322">
        <ele>21</ele>
        <time>2014-07-26T18:02:39Z</time>
      </trkpt>
      <trkpt lat="44.49178" lon="-1.12328">
        <ele>21</ele>
        <time>2014-07-26T18:02:41Z</time>
      </trkpt>
      <trkpt lat="44.49176" lon="-1.12333">
        <ele>21</ele>
        <time>2014-07-26T18:02:43Z</time>
      </trkpt>
      <trkpt lat="44.49172" lon="-1.12339">
        <ele>21</ele>
        <time>2014-07-26T18:02:45Z</time>
      </trkpt>
      <trkpt lat="44.49169" lon="-1.12345">
        <ele>21</ele>
        <time>2014-07-26T18:02:47Z</time>
      </trkpt>
      <trkpt lat="44.49165" lon="-1.12351">
        <ele>21</ele>
        <time>2014-07-26T18:02:49Z</time>
      </trkpt>
      <trkpt lat="44.49161" lon="-1.12357">
        <ele>21</ele>
        <time>2014-07-26T18:02:51Z</time>
      </trkpt>
      <trkpt lat="44.49157" lon="-1.12363">
        <ele>21</ele>
        <time>2014-07-26T18:02:53Z</time>
      </trkpt>
      <trkpt lat="44.49153" lon="-1.12368">
        <ele>21</ele>
        <time>2014-07-26T18:02:55Z</time>
      </trkpt>
      <trkpt lat="44.49149" lon="-1.12374">
        <ele>21</ele>
        <time>2014-07-26T18:02:57Z</time>
      </trkpt>
      <trkpt lat="44.49145" lon="-1.12379">
        <ele>21</ele>
        <time>2014-07-26T18:02:59Z</time>
      </trkpt>
      <trkpt lat="44.49142" lon="-1.12385">
        <ele>21</ele>
        <time>2014-07-26T18:03:01Z</time>
      </trkpt>
      <trkpt lat="44.49138" lon="-1.12391">
        <ele>21</ele>
        <time>2014-07-26T18:03:03Z</time>
      </trkpt>
      <trkpt lat="44.49135" lon="-1.12396">
        <ele>21</ele>
        <time>2014-07-26T18:03:05Z</time>
      </trkpt>
      <trkpt lat="44.49131" lon="-1.12402">
        <ele>21</ele>
        <time>2014-07-26T18:03:07Z</time>
      </trkpt>
      <trkpt lat="44.49128" lon="-1.12407">
        <ele>21</ele>
        <time>2014-07-26T18:03:09Z</time>
      </trkpt>
      <trkpt lat="44.49124" lon="-1.12413">
        <ele>21</ele>
        <time>2014-07-26T18:03:12Z</time>
      </trkpt>
      <trkpt lat="44.49119" lon="-1.1242">
        <ele>21</ele>
        <time>2014-07-26T18:03:15Z</time>
      </trkpt>
      <trkpt lat="44.49116" lon="-1.12425">
        <ele>21</ele>
        <time>2014-07-26T18:03:17Z</time>
      </trkpt>
      <trkpt lat="44.49112" lon="-1.12429">
        <ele>21</ele>
        <time>2014-07-26T18:03:19Z</time>
      </trkpt>
      <trkpt lat="44.49108" lon="-1.12435">
        <ele>21</ele>
        <time>2014-07-26T18:03:21Z</time>
      </trkpt>
      <trkpt lat="44.49104" lon="-1.1244">
        <ele>21</ele>
        <time>2014-07-26T18:03:23Z</time>
      </trkpt>
      <trkpt lat="44.49101" lon="-1.12445">
        <ele>21</ele>
        <time>2014-07-26T18:03:25Z</time>
      </trkpt>
      <trkpt lat="44.49098" lon="-1.1245">
        <ele>21</ele>
        <time>2014-07-26T18:03:27Z</time>
      </trkpt>
      <trkpt lat="44.49095" lon="-1.12458">
        <ele>21</ele>
        <time>2014-07-26T18:03:30Z</time>
      </trkpt>
      <trkpt lat="44.49096" lon="-1.12465">
        <ele>21</ele>
        <time>2014-07-26T18:03:34Z</time>
      </trkpt>
      <trkpt lat="44.49101" lon="-1.12468">
        <ele>21</ele>
        <time>2014-07-26T18:03:39Z</time>
      </trkpt>
      <trkpt lat="44.49107" lon="-1.1247">
        <ele>21</ele>
        <time>2014-07-26T18:03:43Z</time>
      </trkpt>
      <trkpt lat="44.49112" lon="-1.12473">
        <ele>21</ele>
        <time>2014-07-26T18:03:46Z</time>
      </trkpt>
      <trkpt lat="44.49118" lon="-1.12476">
        <ele>21</ele>
        <time>2014-07-26T18:03:49Z</time>
      </trkpt>
      <trkpt lat="44.49122" lon="-1.12477">
        <ele>21</ele>
        <time>2014-07-26T18:03:51Z</time>
      </trkpt>
      <trkpt lat="44.49128" lon="-1.12481">
        <ele>21</ele>
        <time>2014-07-26T18:03:54Z</time>
      </trkpt>
      <trkpt lat="44.49133" lon="-1.12485">
        <ele>21</ele>
        <time>2014-07-26T18:03:57Z</time>
      </trkpt>
      <trkpt lat="44.49141" lon="-1.12488">
        <ele>21</ele>
        <time>2014-07-26T18:04:01Z</time>
      </trkpt>
      <trkpt lat="44.49147" lon="-1.12491">
        <ele>21</ele>
        <time>2014-07-26T18:04:04Z</time>
      </trkpt>
      <trkpt lat="44.49152" lon="-1.12493">
        <ele>21</ele>
        <time>2014-07-26T18:04:07Z</time>
      </trkpt>
      <trkpt lat="44.4916" lon="-1.12494">
        <ele>21</ele>
        <time>2014-07-26T18:04:11Z</time>
      </trkpt>
      <trkpt lat="44.49171" lon="-1.12497">
        <ele>21</ele>
        <time>2014-07-26T18:04:16Z</time>
      </trkpt>
      <trkpt lat="44.49175" lon="-1.12498">
        <ele>21</ele>
        <time>2014-07-26T18:04:18Z</time>
      </trkpt>
      <trkpt lat="44.49181" lon="-1.12498">
        <ele>21</ele>
        <time>2014-07-26T18:04:21Z</time>
      </trkpt>
      <trkpt lat="44.49188" lon="-1.12499">
        <ele>21</ele>
        <time>2014-07-26T18:04:24Z</time>
      </trkpt>
      <trkpt lat="44.49194" lon="-1.125">
        <ele>21</ele>
        <time>2014-07-26T18:04:27Z</time>
      </trkpt>
      <trkpt lat="44.49203" lon="-1.12501">
        <ele>21</ele>
        <time>2014-07-26T18:04:31Z</time>
      </trkpt>
      <trkpt lat="44.49209" lon="-1.125">
        <ele>21</ele>
        <time>2014-07-26T18:04:34Z</time>
      </trkpt>
      <trkpt lat="44.49214" lon="-1.12499">
        <ele>21</ele>
        <time>2014-07-26T18:04:36Z</time>
      </trkpt>
      <trkpt lat="44.49219" lon="-1.12499">
        <ele>21</ele>
        <time>2014-07-26T18:04:38Z</time>
      </trkpt>
      <trkpt lat="44.49228" lon="-1.12499">
        <ele>21</ele>
        <time>2014-07-26T18:04:41Z</time>
      </trkpt>
      <trkpt lat="44.49233" lon="-1.125">
        <ele>21</ele>
        <time>2014-07-26T18:04:43Z</time>
      </trkpt>
      <trkpt lat="44.4924" lon="-1.12499">
        <ele>21</ele>
        <time>2014-07-26T18:04:46Z</time>
      </trkpt>
      <trkpt lat="44.49245" lon="-1.12499">
        <ele>21</ele>
        <time>2014-07-26T18:04:48Z</time>
      </trkpt>
      <trkpt lat="44.49253" lon="-1.12499">
        <ele>21</ele>
        <time>2014-07-26T18:04:51Z</time>
      </trkpt>
      <trkpt lat="44.49258" lon="-1.125">
        <ele>21</ele>
        <time>2014-07-26T18:04:53Z</time>
      </trkpt>
      <trkpt lat="44.49265" lon="-1.125">
        <ele>21</ele>
        <time>2014-07-26T18:04:56Z</time>
      </trkpt>
      <trkpt lat="44.4927" lon="-1.12501">
        <ele>21</ele>
        <time>2014-07-26T18:04:58Z</time>
      </trkpt>
      <trkpt lat="44.49277" lon="-1.12501">
        <ele>21</ele>
        <time>2014-07-26T18:05:01Z</time>
      </trkpt>
      <trkpt lat="44.49282" lon="-1.12502">
        <ele>21</ele>
        <time>2014-07-26T18:05:03Z</time>
      </trkpt>
      <trkpt lat="44.49289" lon="-1.12503">
        <ele>21</ele>
        <time>2014-07-26T18:05:06Z</time>
      </trkpt>
      <trkpt lat="44.49294" lon="-1.12503">
        <ele>21</ele>
        <time>2014-07-26T18:05:08Z</time>
      </trkpt>
      <trkpt lat="44.49301" lon="-1.12504">
        <ele>21</ele>
        <time>2014-07-26T18:05:11Z</time>
      </trkpt>
      <trkpt lat="44.49306" lon="-1.12504">
        <ele>21</ele>
        <time>2014-07-26T18:05:13Z</time>
      </trkpt>
      <trkpt lat="44.49313" lon="-1.12505">
        <ele>21</ele>
        <time>2014-07-26T18:05:16Z</time>
      </trkpt>
      <trkpt lat="44.49318" lon="-1.12505">
        <ele>21</ele>
        <time>2014-07-26T18:05:18Z</time>
      </trkpt>
      <trkpt lat="44.49325" lon="-1.12506">
        <ele>21</ele>
        <time>2014-07-26T18:05:21Z</time>
      </trkpt>
      <trkpt lat="44.4933" lon="-1.12507">
        <ele>21</ele>
        <time>2014-07-26T18:05:23Z</time>
      </trkpt>
      <trkpt lat="44.49336" lon="-1.12507">
        <ele>21</ele>
        <time>2014-07-26T18:05:26Z</time>
      </trkpt>
      <trkpt lat="44.49341" lon="-1.12508">
        <ele>21</ele>
        <time>2014-07-26T18:05:28Z</time>
      </trkpt>
      <trkpt lat="44.49348" lon="-1.12508">
        <ele>21</ele>
        <time>2014-07-26T18:05:31Z</time>
      </trkpt>
      <trkpt lat="44.49353" lon="-1.12508">
        <ele>21</ele>
        <time>2014-07-26T18:05:33Z</time>
      </trkpt>
      <trkpt lat="44.4936" lon="-1.12506">
        <ele>21</ele>
        <time>2014-07-26T18:05:36Z</time>
      </trkpt>
      <trkpt lat="44.49365" lon="-1.12505">
        <ele>21</ele>
        <time>2014-07-26T18:05:38Z</time>
      </trkpt>
      <trkpt lat="44.49372" lon="-1.12503">
        <ele>21</ele>
        <time>2014-07-26T18:05:41Z</time>
      </trkpt>
      <trkpt lat="44.49378" lon="-1.12504">
        <ele>21</ele>
        <time>2014-07-26T18:05:44Z</time>
      </trkpt>
      <trkpt lat="44.49387" lon="-1.12504">
        <ele>21</ele>
        <time>2014-07-26T18:05:48Z</time>
      </trkpt>
      <trkpt lat="44.49394" lon="-1.12504">
        <ele>21</ele>
        <time>2014-07-26T18:05:51Z</time>
      </trkpt>
      <trkpt lat="44.49398" lon="-1.12503">
        <ele>21</ele>
        <time>2014-07-26T18:05:53Z</time>
      </trkpt>
      <trkpt lat="44.49406" lon="-1.12502">
        <ele>21</ele>
        <time>2014-07-26T18:05:56Z</time>
      </trkpt>
      <trkpt lat="44.49411" lon="-1.12501">
        <ele>21</ele>
        <time>2014-07-26T18:05:58Z</time>
      </trkpt>
      <trkpt lat="44.49419" lon="-1.12501">
        <ele>21</ele>
        <time>2014-07-26T18:06:01Z</time>
      </trkpt>
      <trkpt lat="44.49424" lon="-1.12502">
        <ele>21</ele>
        <time>2014-07-26T18:06:03Z</time>
      </trkpt>
      <trkpt lat="44.49432" lon="-1.12503">
        <ele>21</ele>
        <time>2014-07-26T18:06:06Z</time>
      </trkpt>
      <trkpt lat="44.49437" lon="-1.12504">
        <ele>21</ele>
        <time>2014-07-26T18:06:08Z</time>
      </trkpt>
      <trkpt lat="44.49443" lon="-1.12504">
        <ele>21</ele>
        <time>2014-07-26T18:06:11Z</time>
      </trkpt>
      <trkpt lat="44.49448" lon="-1.12505">
        <ele>21</ele>
        <time>2014-07-26T18:06:13Z</time>
      </trkpt>
      <trkpt lat="44.49454" lon="-1.12507">
        <ele>21</ele>
        <time>2014-07-26T18:06:16Z</time>
      </trkpt>
      <trkpt lat="44.49461" lon="-1.12508">
        <ele>21</ele>
        <time>2014-07-26T18:06:19Z</time>
      </trkpt>
      <trkpt lat="44.49466" lon="-1.12508">
        <ele>21</ele>
        <time>2014-07-26T18:06:21Z</time>
      </trkpt>
      <trkpt lat="44.49472" lon="-1.1251">
        <ele>21</ele>
        <time>2014-07-26T18:06:24Z</time>
      </trkpt>
      <trkpt lat="44.49477" lon="-1.12509">
        <ele>21</ele>
        <time>2014-07-26T18:06:26Z</time>
      </trkpt>
      <trkpt lat="44.49483" lon="-1.12511">
        <ele>21</ele>
        <time>2014-07-26T18:06:29Z</time>
      </trkpt>
      <trkpt lat="44.4949" lon="-1.12512">
        <ele>21</ele>
        <time>2014-07-26T18:06:32Z</time>
      </trkpt>
      <trkpt lat="44.49499" lon="-1.12512">
        <ele>21</ele>
        <time>2014-07-26T18:06:36Z</time>
      </trkpt>
      <trkpt lat="44.49505" lon="-1.12513">
        <ele>21</ele>
        <time>2014-07-26T18:06:39Z</time>
      </trkpt>
      <trkpt lat="44.49511" lon="-1.12516">
        <ele>21</ele>
        <time>2014-07-26T18:06:42Z</time>
      </trkpt>
      <trkpt lat="44.49518" lon="-1.12518">
        <ele>21</ele>
        <time>2014-07-26T18:06:46Z</time>
      </trkpt>
      <trkpt lat="44.49524" lon="-1.1252">
        <ele>21</ele>
        <time>2014-07-26T18:06:49Z</time>
      </trkpt>
      <trkpt lat="44.49529" lon="-1.12523">
        <ele>21</ele>
        <time>2014-07-26T18:06:52Z</time>
      </trkpt>
      <trkpt lat="44.49535" lon="-1.12525">
        <ele>21</ele>
        <time>2014-07-26T18:06:56Z</time>
      </trkpt>
      <trkpt lat="44.4954" lon="-1.12528">
        <ele>21</ele>
        <time>2014-07-26T18:06:59Z</time>
      </trkpt>
      <trkpt lat="44.49545" lon="-1.1253">
        <ele>21</ele>
        <time>2014-07-26T18:07:02Z</time>
      </trkpt>
      <trkpt lat="44.49552" lon="-1.12532">
        <ele>21</ele>
        <time>2014-07-26T18:07:06Z</time>
      </trkpt>
      <trkpt lat="44.49557" lon="-1.12535">
        <ele>21</ele>
        <time>2014-07-26T18:07:09Z</time>
      </trkpt>
      <trkpt lat="44.49562" lon="-1.12537">
        <ele>21</ele>
        <time>2014-07-26T18:07:11Z</time>
      </trkpt>
      <trkpt lat="44.49568" lon="-1.12537">
        <ele>21</ele>
        <time>2014-07-26T18:07:14Z</time>
      </trkpt>
      <trkpt lat="44.49573" lon="-1.1254">
        <ele>21</ele>
        <time>2014-07-26T18:07:17Z</time>
      </trkpt>
      <trkpt lat="44.49578" lon="-1.12542">
        <ele>21</ele>
        <time>2014-07-26T18:07:21Z</time>
      </trkpt>
      <trkpt lat="44.49584" lon="-1.12542">
        <ele>21</ele>
        <time>2014-07-26T18:07:24Z</time>
      </trkpt>
      <trkpt lat="44.4959" lon="-1.12543">
        <ele>21</ele>
        <time>2014-07-26T18:07:27Z</time>
      </trkpt>
      <trkpt lat="44.49601" lon="-1.12544">
        <ele>21</ele>
        <time>2014-07-26T18:07:32Z</time>
      </trkpt>
      <trkpt lat="44.49612" lon="-1.12547">
        <ele>21</ele>
        <time>2014-07-26T18:07:37Z</time>
      </trkpt>
      <trkpt lat="44.49621" lon="-1.12549">
        <ele>21</ele>
        <time>2014-07-26T18:07:41Z</time>
      </trkpt>
      <trkpt lat="44.49631" lon="-1.12551">
        <ele>21</ele>
        <time>2014-07-26T18:07:46Z</time>
      </trkpt>
      <trkpt lat="44.49637" lon="-1.12553">
        <ele>21</ele>
        <time>2014-07-26T18:07:49Z</time>
      </trkpt>
      <trkpt lat="44.49643" lon="-1.12554">
        <ele>21</ele>
        <time>2014-07-26T18:07:52Z</time>
      </trkpt>
      <trkpt lat="44.49651" lon="-1.12557">
        <ele>21</ele>
        <time>2014-07-26T18:07:56Z</time>
      </trkpt>
      <trkpt lat="44.49656" lon="-1.12558">
        <ele>21</ele>
        <time>2014-07-26T18:07:58Z</time>
      </trkpt>
      <trkpt lat="44.49663" lon="-1.12559">
        <ele>21</ele>
        <time>2014-07-26T18:08:01Z</time>
      </trkpt>
      <trkpt lat="44.49674" lon="-1.12561">
        <ele>21</ele>
        <time>2014-07-26T18:08:06Z</time>
      </trkpt>
      <trkpt lat="44.49679" lon="-1.12561">
        <ele>21</ele>
        <time>2014-07-26T18:08:08Z</time>
      </trkpt>
      <trkpt lat="44.49686" lon="-1.12563">
        <ele>21</ele>
        <time>2014-07-26T18:08:11Z</time>
      </trkpt>
      <trkpt lat="44.4969" lon="-1.12563">
        <ele>21</ele>
        <time>2014-07-26T18:08:13Z</time>
      </trkpt>
      <trkpt lat="44.49696" lon="-1.12565">
        <ele>21</ele>
        <time>2014-07-26T18:08:16Z</time>
      </trkpt>
      <trkpt lat="44.49703" lon="-1.12567">
        <ele>21</ele>
        <time>2014-07-26T18:08:19Z</time>
      </trkpt>
      <trkpt lat="44.49714" lon="-1.12569">
        <ele>21</ele>
        <time>2014-07-26T18:08:24Z</time>
      </trkpt>
      <trkpt lat="44.4972" lon="-1.12571">
        <ele>21</ele>
        <time>2014-07-26T18:08:27Z</time>
      </trkpt>
      <trkpt lat="44.49725" lon="-1.12571">
        <ele>21</ele>
        <time>2014-07-26T18:08:29Z</time>
      </trkpt>
      <trkpt lat="44.49729" lon="-1.12572">
        <ele>21</ele>
        <time>2014-07-26T18:08:31Z</time>
      </trkpt>
      <trkpt lat="44.49734" lon="-1.12573">
        <ele>21</ele>
        <time>2014-07-26T18:08:33Z</time>
      </trkpt>
      <trkpt lat="44.49741" lon="-1.12574">
        <ele>21</ele>
        <time>2014-07-26T18:08:36Z</time>
      </trkpt>
      <trkpt lat="44.49746" lon="-1.12574">
        <ele>21</ele>
        <time>2014-07-26T18:08:38Z</time>
      </trkpt>
      <trkpt lat="44.49754" lon="-1.12575">
        <ele>21</ele>
        <time>2014-07-26T18:08:41Z</time>
      </trkpt>
      <trkpt lat="44.49759" lon="-1.12576">
        <ele>21</ele>
        <time>2014-07-26T18:08:43Z</time>
      </trkpt>
      <trkpt lat="44.49766" lon="-1.12577">
        <ele>21</ele>
        <time>2014-07-26T18:08:46Z</time>
      </trkpt>
      <trkpt lat="44.49772" lon="-1.12577">
        <ele>21</ele>
        <time>2014-07-26T18:08:49Z</time>
      </trkpt>
      <trkpt lat="44.49778" lon="-1.12578">
        <ele>21</ele>
        <time>2014-07-26T18:08:52Z</time>
      </trkpt>
      <trkpt lat="44.49783" lon="-1.12578">
        <ele>21</ele>
        <time>2014-07-26T18:08:54Z</time>
      </trkpt>
      <trkpt lat="44.49788" lon="-1.12579">
        <ele>21</ele>
        <time>2014-07-26T18:08:56Z</time>
      </trkpt>
      <trkpt lat="44.49793" lon="-1.1258">
        <ele>21</ele>
        <time>2014-07-26T18:08:58Z</time>
      </trkpt>
      <trkpt lat="44.49799" lon="-1.12581">
        <ele>21</ele>
        <time>2014-07-26T18:09:01Z</time>
      </trkpt>
      <trkpt lat="44.49806" lon="-1.12582">
        <ele>21</ele>
        <time>2014-07-26T18:09:04Z</time>
      </trkpt>
      <trkpt lat="44.49812" lon="-1.12583">
        <ele>21</ele>
        <time>2014-07-26T18:09:07Z</time>
      </trkpt>
      <trkpt lat="44.49816" lon="-1.12584">
        <ele>21</ele>
        <time>2014-07-26T18:09:09Z</time>
      </trkpt>
      <trkpt lat="44.49823" lon="-1.12585">
        <ele>21</ele>
        <time>2014-07-26T18:09:12Z</time>
      </trkpt>
      <trkpt lat="44.49832" lon="-1.12588">
        <ele>21</ele>
        <time>2014-07-26T18:09:16Z</time>
      </trkpt>
      <trkpt lat="44.49836" lon="-1.12589">
        <ele>21</ele>
        <time>2014-07-26T18:09:18Z</time>
      </trkpt>
      <trkpt lat="44.49843" lon="-1.12591">
        <ele>21</ele>
        <time>2014-07-26T18:09:21Z</time>
      </trkpt>
      <trkpt lat="44.49854" lon="-1.12592">
        <ele>21</ele>
        <time>2014-07-26T18:09:26Z</time>
      </trkpt>
      <trkpt lat="44.49859" lon="-1.12593">
        <ele>21</ele>
        <time>2014-07-26T18:09:28Z</time>
      </trkpt>
      <trkpt lat="44.49865" lon="-1.12594">
        <ele>21</ele>
        <time>2014-07-26T18:09:31Z</time>
      </trkpt>
      <trkpt lat="44.49871" lon="-1.12594">
        <ele>21</ele>
        <time>2014-07-26T18:09:34Z</time>
      </trkpt>
      <trkpt lat="44.49876" lon="-1.12594">
        <ele>21</ele>
        <time>2014-07-26T18:09:37Z</time>
      </trkpt>
      <trkpt lat="44.49885" lon="-1.12594">
        <ele>21</ele>
        <time>2014-07-26T18:09:41Z</time>
      </trkpt>
      <trkpt lat="44.49895" lon="-1.12593">
        <ele>21</ele>
        <time>2014-07-26T18:09:46Z</time>
      </trkpt>
      <trkpt lat="44.499" lon="-1.12596">
        <ele>21</ele>
        <time>2014-07-26T18:09:49Z</time>
      </trkpt>
      <trkpt lat="44.49904" lon="-1.12601">
        <ele>21</ele>
        <time>2014-07-26T18:09:53Z</time>
      </trkpt>
      <trkpt lat="44.49902" lon="-1.12608">
        <ele>21</ele>
        <time>2014-07-26T18:09:58Z</time>
      </trkpt>
      <trkpt lat="44.499" lon="-1.12613">
        <ele>21</ele>
        <time>2014-07-26T18:10:02Z</time>
      </trkpt>
      <trkpt lat="44.49896" lon="-1.12621">
        <ele>21</ele>
        <time>2014-07-26T18:10:06Z</time>
      </trkpt>
      <trkpt lat="44.49893" lon="-1.12628">
        <ele>21</ele>
        <time>2014-07-26T18:10:09Z</time>
      </trkpt>
      <trkpt lat="44.49889" lon="-1.12634">
        <ele>21</ele>
        <time>2014-07-26T18:10:12Z</time>
      </trkpt>
      <trkpt lat="44.49886" lon="-1.12639">
        <ele>21</ele>
        <time>2014-07-26T18:10:14Z</time>
      </trkpt>
      <trkpt lat="44.49882" lon="-1.12645">
        <ele>21</ele>
        <time>2014-07-26T18:10:16Z</time>
      </trkpt>
      <trkpt lat="44.49879" lon="-1.1265">
        <ele>21</ele>
        <time>2014-07-26T18:10:18Z</time>
      </trkpt>
      <trkpt lat="44.49873" lon="-1.12658">
        <ele>21</ele>
        <time>2014-07-26T18:10:21Z</time>
      </trkpt>
      <trkpt lat="44.49868" lon="-1.12663">
        <ele>21</ele>
        <time>2014-07-26T18:10:23Z</time>
      </trkpt>
      <trkpt lat="44.49862" lon="-1.1267">
        <ele>21</ele>
        <time>2014-07-26T18:10:26Z</time>
      </trkpt>
      <trkpt lat="44.49859" lon="-1.12676">
        <ele>21</ele>
        <time>2014-07-26T18:10:28Z</time>
      </trkpt>
      <trkpt lat="44.49856" lon="-1.12684">
        <ele>21</ele>
        <time>2014-07-26T18:10:31Z</time>
      </trkpt>
      <trkpt lat="44.49852" lon="-1.12689">
        <ele>21</ele>
        <time>2014-07-26T18:10:33Z</time>
      </trkpt>
      <trkpt lat="44.49847" lon="-1.12696">
        <ele>21</ele>
        <time>2014-07-26T18:10:36Z</time>
      </trkpt>
      <trkpt lat="44.49843" lon="-1.12702">
        <ele>21</ele>
        <time>2014-07-26T18:10:38Z</time>
      </trkpt>
      <trkpt lat="44.49838" lon="-1.12711">
        <ele>21</ele>
        <time>2014-07-26T18:10:41Z</time>
      </trkpt>
      <trkpt lat="44.49834" lon="-1.12717">
        <ele>21</ele>
        <time>2014-07-26T18:10:43Z</time>
      </trkpt>
      <trkpt lat="44.49828" lon="-1.12725">
        <ele>21</ele>
        <time>2014-07-26T18:10:46Z</time>
      </trkpt>
      <trkpt lat="44.49824" lon="-1.12731">
        <ele>21</ele>
        <time>2014-07-26T18:10:48Z</time>
      </trkpt>
      <trkpt lat="44.4982" lon="-1.12741">
        <ele>21</ele>
        <time>2014-07-26T18:10:51Z</time>
      </trkpt>
      <trkpt lat="44.49817" lon="-1.12748">
        <ele>21</ele>
        <time>2014-07-26T18:10:53Z</time>
      </trkpt>
      <trkpt lat="44.49813" lon="-1.12757">
        <ele>21</ele>
        <time>2014-07-26T18:10:56Z</time>
      </trkpt>
      <trkpt lat="44.4981" lon="-1.12764">
        <ele>21</ele>
        <time>2014-07-26T18:10:58Z</time>
      </trkpt>
      <trkpt lat="44.49806" lon="-1.12774">
        <ele>21</ele>
        <time>2014-07-26T18:11:01Z</time>
      </trkpt>
      <trkpt lat="44.49803" lon="-1.1278">
        <ele>21</ele>
        <time>2014-07-26T18:11:03Z</time>
      </trkpt>
      <trkpt lat="44.49799" lon="-1.1279">
        <ele>21</ele>
        <time>2014-07-26T18:11:06Z</time>
      </trkpt>
      <trkpt lat="44.49796" lon="-1.12796">
        <ele>21</ele>
        <time>2014-07-26T18:11:08Z</time>
      </trkpt>
      <trkpt lat="44.49792" lon="-1.12805">
        <ele>21</ele>
        <time>2014-07-26T18:11:11Z</time>
      </trkpt>
      <trkpt lat="44.4979" lon="-1.12811">
        <ele>21</ele>
        <time>2014-07-26T18:11:13Z</time>
      </trkpt>
      <trkpt lat="44.49785" lon="-1.1282">
        <ele>21</ele>
        <time>2014-07-26T18:11:16Z</time>
      </trkpt>
      <trkpt lat="44.49782" lon="-1.12826">
        <ele>21</ele>
        <time>2014-07-26T18:11:18Z</time>
      </trkpt>
      <trkpt lat="44.49778" lon="-1.12834">
        <ele>21</ele>
        <time>2014-07-26T18:11:21Z</time>
      </trkpt>
      <trkpt lat="44.49774" lon="-1.12841">
        <ele>21</ele>
        <time>2014-07-26T18:11:23Z</time>
      </trkpt>
      <trkpt lat="44.4977" lon="-1.12849">
        <ele>21</ele>
        <time>2014-07-26T18:11:26Z</time>
      </trkpt>
      <trkpt lat="44.49766" lon="-1.12855">
        <ele>21</ele>
        <time>2014-07-26T18:11:28Z</time>
      </trkpt>
      <trkpt lat="44.49761" lon="-1.12864">
        <ele>21</ele>
        <time>2014-07-26T18:11:31Z</time>
      </trkpt>
      <trkpt lat="44.49756" lon="-1.12869">
        <ele>21</ele>
        <time>2014-07-26T18:11:33Z</time>
      </trkpt>
      <trkpt lat="44.49751" lon="-1.12878">
        <ele>21</ele>
        <time>2014-07-26T18:11:36Z</time>
      </trkpt>
      <trkpt lat="44.49747" lon="-1.12883">
        <ele>21</ele>
        <time>2014-07-26T18:11:38Z</time>
      </trkpt>
      <trkpt lat="44.49742" lon="-1.12892">
        <ele>21</ele>
        <time>2014-07-26T18:11:41Z</time>
      </trkpt>
      <trkpt lat="44.49738" lon="-1.12898">
        <ele>21</ele>
        <time>2014-07-26T18:11:43Z</time>
      </trkpt>
      <trkpt lat="44.49732" lon="-1.12906">
        <ele>21</ele>
        <time>2014-07-26T18:11:46Z</time>
      </trkpt>
      <trkpt lat="44.49729" lon="-1.12912">
        <ele>21</ele>
        <time>2014-07-26T18:11:48Z</time>
      </trkpt>
      <trkpt lat="44.49725" lon="-1.12921">
        <ele>21</ele>
        <time>2014-07-26T18:11:51Z</time>
      </trkpt>
      <trkpt lat="44.49721" lon="-1.12927">
        <ele>21</ele>
        <time>2014-07-26T18:11:53Z</time>
      </trkpt>
      <trkpt lat="44.49716" lon="-1.12936">
        <ele>21</ele>
        <time>2014-07-26T18:11:56Z</time>
      </trkpt>
      <trkpt lat="44.49713" lon="-1.12942">
        <ele>21</ele>
        <time>2014-07-26T18:11:58Z</time>
      </trkpt>
      <trkpt lat="44.49708" lon="-1.1295">
        <ele>21</ele>
        <time>2014-07-26T18:12:01Z</time>
      </trkpt>
      <trkpt lat="44.49705" lon="-1.12955">
        <ele>21</ele>
        <time>2014-07-26T18:12:03Z</time>
      </trkpt>
      <trkpt lat="44.497" lon="-1.12962">
        <ele>21</ele>
        <time>2014-07-26T18:12:06Z</time>
      </trkpt>
      <trkpt lat="44.49697" lon="-1.12968">
        <ele>21</ele>
        <time>2014-07-26T18:12:08Z</time>
      </trkpt>
      <trkpt lat="44.49689" lon="-1.12976">
        <ele>21</ele>
        <time>2014-07-26T18:12:11Z</time>
      </trkpt>
      <trkpt lat="44.49685" lon="-1.1298">
        <ele>21</ele>
        <time>2014-07-26T18:12:13Z</time>
      </trkpt>
      <trkpt lat="44.49679" lon="-1.12988">
        <ele>21</ele>
        <time>2014-07-26T18:12:16Z</time>
      </trkpt>
      <trkpt lat="44.49674" lon="-1.12994">
        <ele>21</ele>
        <time>2014-07-26T18:12:18Z</time>
      </trkpt>
      <trkpt lat="44.49668" lon="-1.13003">
        <ele>21</ele>
        <time>2014-07-26T18:12:21Z</time>
      </trkpt>
      <trkpt lat="44.49665" lon="-1.13009">
        <ele>21</ele>
        <time>2014-07-26T18:12:23Z</time>
      </trkpt>
      <trkpt lat="44.49659" lon="-1.13018">
        <ele>21</ele>
        <time>2014-07-26T18:12:26Z</time>
      </trkpt>
      <trkpt lat="44.49655" lon="-1.13023">
        <ele>21</ele>
        <time>2014-07-26T18:12:28Z</time>
      </trkpt>
      <trkpt lat="44.4965" lon="-1.13032">
        <ele>21</ele>
        <time>2014-07-26T18:12:31Z</time>
      </trkpt>
      <trkpt lat="44.49646" lon="-1.13037">
        <ele>21</ele>
        <time>2014-07-26T18:12:33Z</time>
      </trkpt>
      <trkpt lat="44.49641" lon="-1.13045">
        <ele>21</ele>
        <time>2014-07-26T18:12:36Z</time>
      </trkpt>
      <trkpt lat="44.49638" lon="-1.13052">
        <ele>21</ele>
        <time>2014-07-26T18:12:38Z</time>
      </trkpt>
      <trkpt lat="44.49633" lon="-1.13062">
        <ele>21</ele>
        <time>2014-07-26T18:12:41Z</time>
      </trkpt>
      <trkpt lat="44.4963" lon="-1.13068">
        <ele>21</ele>
        <time>2014-07-26T18:12:43Z</time>
      </trkpt>
      <trkpt lat="44.49625" lon="-1.13077">
        <ele>21</ele>
        <time>2014-07-26T18:12:46Z</time>
      </trkpt>
      <trkpt lat="44.49622" lon="-1.13083">
        <ele>21</ele>
        <time>2014-07-26T18:12:48Z</time>
      </trkpt>
      <trkpt lat="44.49617" lon="-1.13092">
        <ele>21</ele>
        <time>2014-07-26T18:12:51Z</time>
      </trkpt>
      <trkpt lat="44.49613" lon="-1.13098">
        <ele>21</ele>
        <time>2014-07-26T18:12:53Z</time>
      </trkpt>
      <trkpt lat="44.49608" lon="-1.13107">
        <ele>21</ele>
        <time>2014-07-26T18:12:56Z</time>
      </trkpt>
      <trkpt lat="44.49604" lon="-1.13113">
        <ele>21</ele>
        <time>2014-07-26T18:12:58Z</time>
      </trkpt>
      <trkpt lat="44.49598" lon="-1.13122">
        <ele>21</ele>
        <time>2014-07-26T18:13:01Z</time>
      </trkpt>
      <trkpt lat="44.49595" lon="-1.13127">
        <ele>21</ele>
        <time>2014-07-26T18:13:03Z</time>
      </trkpt>
      <trkpt lat="44.49589" lon="-1.13136">
        <ele>21</ele>
        <time>2014-07-26T18:13:06Z</time>
      </trkpt>
      <trkpt lat="44.49585" lon="-1.13141">
        <ele>21</ele>
        <time>2014-07-26T18:13:08Z</time>
      </trkpt>
      <trkpt lat="44.4958" lon="-1.13149">
        <ele>21</ele>
        <time>2014-07-26T18:13:11Z</time>
      </trkpt>
      <trkpt lat="44.49577" lon="-1.13154">
        <ele>21</ele>
        <time>2014-07-26T18:13:13Z</time>
      </trkpt>
      <trkpt lat="44.49571" lon="-1.13162">
        <ele>21</ele>
        <time>2014-07-26T18:13:16Z</time>
      </trkpt>
      <trkpt lat="44.49568" lon="-1.13168">
        <ele>21</ele>
        <time>2014-07-26T18:13:18Z</time>
      </trkpt>
      <trkpt lat="44.49563" lon="-1.13176">
        <ele>21</ele>
        <time>2014-07-26T18:13:21Z</time>
      </trkpt>
      <trkpt lat="44.49559" lon="-1.13181">
        <ele>21</ele>
        <time>2014-07-26T18:13:23Z</time>
      </trkpt>
      <trkpt lat="44.49554" lon="-1.13189">
        <ele>21</ele>
        <time>2014-07-26T18:13:26Z</time>
      </trkpt>
      <trkpt lat="44.4955" lon="-1.13195">
        <ele>21</ele>
        <time>2014-07-26T18:13:28Z</time>
      </trkpt>
      <trkpt lat="44.49546" lon="-1.13203">
        <ele>21</ele>
        <time>2014-07-26T18:13:31Z</time>
      </trkpt>
      <trkpt lat="44.49543" lon="-1.13209">
        <ele>21</ele>
        <time>2014-07-26T18:13:33Z</time>
      </trkpt>
      <trkpt lat="44.49538" lon="-1.13218">
        <ele>21</ele>
        <time>2014-07-26T18:13:36Z</time>
      </trkpt>
      <trkpt lat="44.49536" lon="-1.13224">
        <ele>21</ele>
        <time>2014-07-26T18:13:38Z</time>
      </trkpt>
      <trkpt lat="44.49531" lon="-1.13233">
        <ele>21</ele>
        <time>2014-07-26T18:13:41Z</time>
      </trkpt>
      <trkpt lat="44.49528" lon="-1.13239">
        <ele>21</ele>
        <time>2014-07-26T18:13:43Z</time>
      </trkpt>
      <trkpt lat="44.49523" lon="-1.13249">
        <ele>21</ele>
        <time>2014-07-26T18:13:46Z</time>
      </trkpt>
      <trkpt lat="44.4952" lon="-1.13255">
        <ele>21</ele>
        <time>2014-07-26T18:13:48Z</time>
      </trkpt>
      <trkpt lat="44.49516" lon="-1.13265">
        <ele>21</ele>
        <time>2014-07-26T18:13:51Z</time>
      </trkpt>
      <trkpt lat="44.49514" lon="-1.13272">
        <ele>21</ele>
        <time>2014-07-26T18:13:53Z</time>
      </trkpt>
      <trkpt lat="44.4951" lon="-1.13282">
        <ele>21</ele>
        <time>2014-07-26T18:13:56Z</time>
      </trkpt>
      <trkpt lat="44.49507" lon="-1.13288">
        <ele>21</ele>
        <time>2014-07-26T18:13:58Z</time>
      </trkpt>
      <trkpt lat="44.49504" lon="-1.13297">
        <ele>21</ele>
        <time>2014-07-26T18:14:01Z</time>
      </trkpt>
      <trkpt lat="44.49503" lon="-1.13303">
        <ele>21</ele>
        <time>2014-07-26T18:14:03Z</time>
      </trkpt>
      <trkpt lat="44.49503" lon="-1.13311">
        <ele>21</ele>
        <time>2014-07-26T18:14:06Z</time>
      </trkpt>
      <trkpt lat="44.49506" lon="-1.13317">
        <ele>21</ele>
        <time>2014-07-26T18:14:11Z</time>
      </trkpt>
      <trkpt lat="44.49511" lon="-1.13319">
        <ele>21</ele>
        <time>2014-07-26T18:14:19Z</time>
      </trkpt>
      <trkpt lat="44.49516" lon="-1.13319">
        <ele>21</ele>
        <time>2014-07-26T18:14:31Z</time>
      </trkpt>
      <trkpt lat="44.4952" lon="-1.13319">
        <ele>21</ele>
        <time>2014-07-26T18:14:36Z</time>
      </trkpt>
      <trkpt lat="44.49527" lon="-1.1332">
        <ele>21</ele>
        <time>2014-07-26T18:14:41Z</time>
      </trkpt>
      <trkpt lat="44.49532" lon="-1.13318">
        <ele>21</ele>
        <time>2014-07-26T18:14:44Z</time>
      </trkpt>
      <trkpt lat="44.4954" lon="-1.13311">
        <ele>21</ele>
        <time>2014-07-26T18:14:48Z</time>
      </trkpt>
      <trkpt lat="44.49545" lon="-1.13301">
        <ele>21</ele>
        <time>2014-07-26T18:14:51Z</time>
      </trkpt>
      <trkpt lat="44.49546" lon="-1.13294">
        <ele>21</ele>
        <time>2014-07-26T18:14:53Z</time>
      </trkpt>
      <trkpt lat="44.49544" lon="-1.13282">
        <ele>21</ele>
        <time>2014-07-26T18:14:56Z</time>
      </trkpt>
      <trkpt lat="44.49543" lon="-1.13276">
        <ele>21</ele>
        <time>2014-07-26T18:14:58Z</time>
      </trkpt>
      <trkpt lat="44.49543" lon="-1.13266">
        <ele>21</ele>
        <time>2014-07-26T18:15:01Z</time>
      </trkpt>
      <trkpt lat="44.49543" lon="-1.13259">
        <ele>21</ele>
        <time>2014-07-26T18:15:03Z</time>
      </trkpt>
      <trkpt lat="44.49543" lon="-1.1325">
        <ele>21</ele>
        <time>2014-07-26T18:15:06Z</time>
      </trkpt>
      <trkpt lat="44.4954" lon="-1.13242">
        <ele>21</ele>
        <time>2014-07-26T18:15:09Z</time>
      </trkpt>
      <trkpt lat="44.49539" lon="-1.13233">
        <ele>21</ele>
        <time>2014-07-26T18:15:12Z</time>
      </trkpt>
      <trkpt lat="44.4954" lon="-1.13226">
        <ele>21</ele>
        <time>2014-07-26T18:15:14Z</time>
      </trkpt>
      <trkpt lat="44.49538" lon="-1.13213">
        <ele>21</ele>
        <time>2014-07-26T18:15:18Z</time>
      </trkpt>
      <trkpt lat="44.49535" lon="-1.13204">
        <ele>21</ele>
        <time>2014-07-26T18:15:21Z</time>
      </trkpt>
      <trkpt lat="44.49533" lon="-1.13196">
        <ele>21</ele>
        <time>2014-07-26T18:15:24Z</time>
      </trkpt>
      <trkpt lat="44.49531" lon="-1.13187">
        <ele>21</ele>
        <time>2014-07-26T18:15:27Z</time>
      </trkpt>
      <trkpt lat="44.49528" lon="-1.13176">
        <ele>21</ele>
        <time>2014-07-26T18:15:31Z</time>
      </trkpt>
      <trkpt lat="44.49525" lon="-1.13168">
        <ele>21</ele>
        <time>2014-07-26T18:15:34Z</time>
      </trkpt>
      <trkpt lat="44.49523" lon="-1.13159">
        <ele>21</ele>
        <time>2014-07-26T18:15:37Z</time>
      </trkpt>
      <trkpt lat="44.49519" lon="-1.13148">
        <ele>21</ele>
        <time>2014-07-26T18:15:41Z</time>
      </trkpt>
      <trkpt lat="44.49517" lon="-1.13139">
        <ele>21</ele>
        <time>2014-07-26T18:15:44Z</time>
      </trkpt>
      <trkpt lat="44.49515" lon="-1.1313">
        <ele>21</ele>
        <time>2014-07-26T18:15:47Z</time>
      </trkpt>
      <trkpt lat="44.49514" lon="-1.13117">
        <ele>21</ele>
        <time>2014-07-26T18:15:51Z</time>
      </trkpt>
      <trkpt lat="44.49511" lon="-1.13109">
        <ele>21</ele>
        <time>2014-07-26T18:15:54Z</time>
      </trkpt>
      <trkpt lat="44.49509" lon="-1.13103">
        <ele>21</ele>
        <time>2014-07-26T18:15:56Z</time>
      </trkpt>
      <trkpt lat="44.49506" lon="-1.13095">
        <ele>21</ele>
        <time>2014-07-26T18:15:59Z</time>
      </trkpt>
      <trkpt lat="44.49504" lon="-1.13086">
        <ele>21</ele>
        <time>2014-07-26T18:16:02Z</time>
      </trkpt>
      <trkpt lat="44.49502" lon="-1.1308">
        <ele>21</ele>
        <time>2014-07-26T18:16:04Z</time>
      </trkpt>
      <trkpt lat="44.49501" lon="-1.13071">
        <ele>21</ele>
        <time>2014-07-26T18:16:07Z</time>
      </trkpt>
      <trkpt lat="44.49499" lon="-1.13064">
        <ele>21</ele>
        <time>2014-07-26T18:16:09Z</time>
      </trkpt>
      <trkpt lat="44.49498" lon="-1.13056">
        <ele>21</ele>
        <time>2014-07-26T18:16:12Z</time>
      </trkpt>
      <trkpt lat="44.49497" lon="-1.13049">
        <ele>21</ele>
        <time>2014-07-26T18:16:14Z</time>
      </trkpt>
      <trkpt lat="44.49496" lon="-1.1304">
        <ele>21</ele>
        <time>2014-07-26T18:16:17Z</time>
      </trkpt>
      <trkpt lat="44.49494" lon="-1.13027">
        <ele>21</ele>
        <time>2014-07-26T18:16:21Z</time>
      </trkpt>
      <trkpt lat="44.49493" lon="-1.13021">
        <ele>21</ele>
        <time>2014-07-26T18:16:23Z</time>
      </trkpt>
      <trkpt lat="44.49493" lon="-1.13012">
        <ele>21</ele>
        <time>2014-07-26T18:16:26Z</time>
      </trkpt>
      <trkpt lat="44.49493" lon="-1.13004">
        <ele>21</ele>
        <time>2014-07-26T18:16:29Z</time>
      </trkpt>
      <trkpt lat="44.49492" lon="-1.12995">
        <ele>21</ele>
        <time>2014-07-26T18:16:32Z</time>
      </trkpt>
      <trkpt lat="44.4949" lon="-1.12981">
        <ele>21</ele>
        <time>2014-07-26T18:16:36Z</time>
      </trkpt>
      <trkpt lat="44.49489" lon="-1.12974">
        <ele>21</ele>
        <time>2014-07-26T18:16:38Z</time>
      </trkpt>
      <trkpt lat="44.49487" lon="-1.12964">
        <ele>21</ele>
        <time>2014-07-26T18:16:41Z</time>
      </trkpt>
      <trkpt lat="44.49485" lon="-1.12955">
        <ele>21</ele>
        <time>2014-07-26T18:16:44Z</time>
      </trkpt>
      <trkpt lat="44.49484" lon="-1.12948">
        <ele>21</ele>
        <time>2014-07-26T18:16:46Z</time>
      </trkpt>
      <trkpt lat="44.49483" lon="-1.1294">
        <ele>21</ele>
        <time>2014-07-26T18:16:49Z</time>
      </trkpt>
      <trkpt lat="44.49482" lon="-1.12931">
        <ele>21</ele>
        <time>2014-07-26T18:16:52Z</time>
      </trkpt>
      <trkpt lat="44.4948" lon="-1.12925">
        <ele>21</ele>
        <time>2014-07-26T18:16:54Z</time>
      </trkpt>
      <trkpt lat="44.49479" lon="-1.12919">
        <ele>21</ele>
        <time>2014-07-26T18:16:56Z</time>
      </trkpt>
      <trkpt lat="44.49477" lon="-1.1291">
        <ele>21</ele>
        <time>2014-07-26T18:16:59Z</time>
      </trkpt>
      <trkpt lat="44.49474" lon="-1.12895">
        <ele>21</ele>
        <time>2014-07-26T18:17:04Z</time>
      </trkpt>
      <trkpt lat="44.49472" lon="-1.12886">
        <ele>21</ele>
        <time>2014-07-26T18:17:07Z</time>
      </trkpt>
      <trkpt lat="44.49468" lon="-1.12875">
        <ele>21</ele>
        <time>2014-07-26T18:17:11Z</time>
      </trkpt>
      <trkpt lat="44.49467" lon="-1.12866">
        <ele>21</ele>
        <time>2014-07-26T18:17:14Z</time>
      </trkpt>
      <trkpt lat="44.49466" lon="-1.12859">
        <ele>21</ele>
        <time>2014-07-26T18:17:16Z</time>
      </trkpt>
      <trkpt lat="44.49465" lon="-1.12853">
        <ele>21</ele>
        <time>2014-07-26T18:17:18Z</time>
      </trkpt>
      <trkpt lat="44.49464" lon="-1.12844">
        <ele>21</ele>
        <time>2014-07-26T18:17:21Z</time>
      </trkpt>
      <trkpt lat="44.49464" lon="-1.12835">
        <ele>21</ele>
        <time>2014-07-26T18:17:24Z</time>
      </trkpt>
      <trkpt lat="44.49464" lon="-1.12826">
        <ele>21</ele>
        <time>2014-07-26T18:17:27Z</time>
      </trkpt>
      <trkpt lat="44.49464" lon="-1.12819">
        <ele>21</ele>
        <time>2014-07-26T18:17:29Z</time>
      </trkpt>
      <trkpt lat="44.49463" lon="-1.12813">
        <ele>21</ele>
        <time>2014-07-26T18:17:31Z</time>
      </trkpt>
      <trkpt lat="44.49462" lon="-1.12807">
        <ele>21</ele>
        <time>2014-07-26T18:17:33Z</time>
      </trkpt>
      <trkpt lat="44.49462" lon="-1.12797">
        <ele>21</ele>
        <time>2014-07-26T18:17:36Z</time>
      </trkpt>
      <trkpt lat="44.49462" lon="-1.12788">
        <ele>21</ele>
        <time>2014-07-26T18:17:39Z</time>
      </trkpt>
      <trkpt lat="44.49461" lon="-1.12779">
        <ele>21</ele>
        <time>2014-07-26T18:17:42Z</time>
      </trkpt>
      <trkpt lat="44.4946" lon="-1.12768">
        <ele>21</ele>
        <time>2014-07-26T18:17:46Z</time>
      </trkpt>
      <trkpt lat="44.4946" lon="-1.12759">
        <ele>21</ele>
        <time>2014-07-26T18:17:49Z</time>
      </trkpt>
      <trkpt lat="44.49459" lon="-1.1275">
        <ele>21</ele>
        <time>2014-07-26T18:17:52Z</time>
      </trkpt>
      <trkpt lat="44.49458" lon="-1.12743">
        <ele>21</ele>
        <time>2014-07-26T18:17:54Z</time>
      </trkpt>
      <trkpt lat="44.49458" lon="-1.12734">
        <ele>21</ele>
        <time>2014-07-26T18:17:57Z</time>
      </trkpt>
      <trkpt lat="44.49457" lon="-1.12722">
        <ele>21</ele>
        <time>2014-07-26T18:18:01Z</time>
      </trkpt>
      <trkpt lat="44.49456" lon="-1.12714">
        <ele>21</ele>
        <time>2014-07-26T18:18:04Z</time>
      </trkpt>
      <trkpt lat="44.49456" lon="-1.12706">
        <ele>21</ele>
        <time>2014-07-26T18:18:07Z</time>
      </trkpt>
      <trkpt lat="44.49455" lon="-1.12694">
        <ele>21</ele>
        <time>2014-07-26T18:18:11Z</time>
      </trkpt>
      <trkpt lat="44.49455" lon="-1.12685">
        <ele>21</ele>
        <time>2014-07-26T18:18:14Z</time>
      </trkpt>
      <trkpt lat="44.49454" lon="-1.12676">
        <ele>21</ele>
        <time>2014-07-26T18:18:17Z</time>
      </trkpt>
      <trkpt lat="44.49453" lon="-1.12664">
        <ele>21</ele>
        <time>2014-07-26T18:18:21Z</time>
      </trkpt>
      <trkpt lat="44.49453" lon="-1.12657">
        <ele>21</ele>
        <time>2014-07-26T18:18:23Z</time>
      </trkpt>
      <trkpt lat="44.49452" lon="-1.12647">
        <ele>21</ele>
        <time>2014-07-26T18:18:26Z</time>
      </trkpt>
      <trkpt lat="44.49452" lon="-1.12641">
        <ele>21</ele>
        <time>2014-07-26T18:18:28Z</time>
      </trkpt>
      <trkpt lat="44.49452" lon="-1.12631">
        <ele>21</ele>
        <time>2014-07-26T18:18:31Z</time>
      </trkpt>
      <trkpt lat="44.49451" lon="-1.12615">
        <ele>21</ele>
        <time>2014-07-26T18:18:36Z</time>
      </trkpt>
      <trkpt lat="44.4945" lon="-1.12608">
        <ele>21</ele>
        <time>2014-07-26T18:18:38Z</time>
      </trkpt>
      <trkpt lat="44.49448" lon="-1.12599">
        <ele>21</ele>
        <time>2014-07-26T18:18:41Z</time>
      </trkpt>
      <trkpt lat="44.49447" lon="-1.12593">
        <ele>21</ele>
        <time>2014-07-26T18:18:43Z</time>
      </trkpt>
      <trkpt lat="44.49445" lon="-1.12584">
        <ele>21</ele>
        <time>2014-07-26T18:18:46Z</time>
      </trkpt>
      <trkpt lat="44.49444" lon="-1.12575">
        <ele>21</ele>
        <time>2014-07-26T18:18:49Z</time>
      </trkpt>
      <trkpt lat="44.49442" lon="-1.12565">
        <ele>21</ele>
        <time>2014-07-26T18:18:52Z</time>
      </trkpt>
      <trkpt lat="44.4944" lon="-1.12554">
        <ele>21</ele>
        <time>2014-07-26T18:18:56Z</time>
      </trkpt>
      <trkpt lat="44.4944" lon="-1.12545">
        <ele>21</ele>
        <time>2014-07-26T18:18:59Z</time>
      </trkpt>
      <trkpt lat="44.4944" lon="-1.12536">
        <ele>21</ele>
        <time>2014-07-26T18:19:02Z</time>
      </trkpt>
      <trkpt lat="44.49438" lon="-1.12525">
        <ele>21</ele>
        <time>2014-07-26T18:19:06Z</time>
      </trkpt>
      <trkpt lat="44.49438" lon="-1.12516">
        <ele>21</ele>
        <time>2014-07-26T18:19:09Z</time>
      </trkpt>
      <trkpt lat="44.49437" lon="-1.12507">
        <ele>21</ele>
        <time>2014-07-26T18:19:12Z</time>
      </trkpt>
      <trkpt lat="44.49436" lon="-1.12496">
        <ele>21</ele>
        <time>2014-07-26T18:19:16Z</time>
      </trkpt>
      <trkpt lat="44.49436" lon="-1.12487">
        <ele>21</ele>
        <time>2014-07-26T18:19:19Z</time>
      </trkpt>
      <trkpt lat="44.49437" lon="-1.12479">
        <ele>21</ele>
        <time>2014-07-26T18:19:22Z</time>
      </trkpt>
      <trkpt lat="44.49437" lon="-1.12472">
        <ele>21</ele>
        <time>2014-07-26T18:19:24Z</time>
      </trkpt>
      <trkpt lat="44.49436" lon="-1.12465">
        <ele>21</ele>
        <time>2014-07-26T18:19:26Z</time>
      </trkpt>
      <trkpt lat="44.49436" lon="-1.12458">
        <ele>21</ele>
        <time>2014-07-26T18:19:28Z</time>
      </trkpt>
      <trkpt lat="44.49435" lon="-1.12447">
        <ele>21</ele>
        <time>2014-07-26T18:19:31Z</time>
      </trkpt>
      <trkpt lat="44.49435" lon="-1.1244">
        <ele>21</ele>
        <time>2014-07-26T18:19:33Z</time>
      </trkpt>
      <trkpt lat="44.49435" lon="-1.12431">
        <ele>21</ele>
        <time>2014-07-26T18:19:36Z</time>
      </trkpt>
      <trkpt lat="44.49435" lon="-1.12422">
        <ele>21</ele>
        <time>2014-07-26T18:19:39Z</time>
      </trkpt>
      <trkpt lat="44.49436" lon="-1.12415">
        <ele>21</ele>
        <time>2014-07-26T18:19:41Z</time>
      </trkpt>
      <trkpt lat="44.49436" lon="-1.12408">
        <ele>21</ele>
        <time>2014-07-26T18:19:43Z</time>
      </trkpt>
      <trkpt lat="44.49437" lon="-1.12398">
        <ele>21</ele>
        <time>2014-07-26T18:19:46Z</time>
      </trkpt>
      <trkpt lat="44.49438" lon="-1.12391">
        <ele>21</ele>
        <time>2014-07-26T18:19:48Z</time>
      </trkpt>
      <trkpt lat="44.49439" lon="-1.1238">
        <ele>21</ele>
        <time>2014-07-26T18:19:51Z</time>
      </trkpt>
      <trkpt lat="44.4944" lon="-1.12373">
        <ele>21</ele>
        <time>2014-07-26T18:19:53Z</time>
      </trkpt>
      <trkpt lat="44.49442" lon="-1.12363">
        <ele>21</ele>
        <time>2014-07-26T18:19:56Z</time>
      </trkpt>
      <trkpt lat="44.49443" lon="-1.12357">
        <ele>21</ele>
        <time>2014-07-26T18:19:58Z</time>
      </trkpt>
      <trkpt lat="44.49445" lon="-1.12347">
        <ele>21</ele>
        <time>2014-07-26T18:20:01Z</time>
      </trkpt>
      <trkpt lat="44.49446" lon="-1.1234">
        <ele>21</ele>
        <time>2014-07-26T18:20:03Z</time>
      </trkpt>
      <trkpt lat="44.49447" lon="-1.1233">
        <ele>21</ele>
        <time>2014-07-26T18:20:06Z</time>
      </trkpt>
      <trkpt lat="44.49449" lon="-1.12323">
        <ele>21</ele>
        <time>2014-07-26T18:20:08Z</time>
      </trkpt>
      <trkpt lat="44.4945" lon="-1.12313">
        <ele>21</ele>
        <time>2014-07-26T18:20:11Z</time>
      </trkpt>
      <trkpt lat="44.49451" lon="-1.12306">
        <ele>21</ele>
        <time>2014-07-26T18:20:13Z</time>
      </trkpt>
      <trkpt lat="44.49453" lon="-1.12296">
        <ele>21</ele>
        <time>2014-07-26T18:20:16Z</time>
      </trkpt>
      <trkpt lat="44.49454" lon="-1.12289">
        <ele>21</ele>
        <time>2014-07-26T18:20:18Z</time>
      </trkpt>
      <trkpt lat="44.49456" lon="-1.12279">
        <ele>21</ele>
        <time>2014-07-26T18:20:21Z</time>
      </trkpt>
      <trkpt lat="44.49457" lon="-1.12273">
        <ele>21</ele>
        <time>2014-07-26T18:20:23Z</time>
      </trkpt>
      <trkpt lat="44.4946" lon="-1.12262">
        <ele>21</ele>
        <time>2014-07-26T18:20:26Z</time>
      </trkpt>
      <trkpt lat="44.49462" lon="-1.12256">
        <ele>21</ele>
        <time>2014-07-26T18:20:28Z</time>
      </trkpt>
      <trkpt lat="44.49464" lon="-1.12246">
        <ele>21</ele>
        <time>2014-07-26T18:20:31Z</time>
      </trkpt>
      <trkpt lat="44.49466" lon="-1.1224">
        <ele>21</ele>
        <time>2014-07-26T18:20:33Z</time>
      </trkpt>
      <trkpt lat="44.49468" lon="-1.1223">
        <ele>21</ele>
        <time>2014-07-26T18:20:36Z</time>
      </trkpt>
      <trkpt lat="44.49469" lon="-1.12223">
        <ele>21</ele>
        <time>2014-07-26T18:20:38Z</time>
      </trkpt>
      <trkpt lat="44.4947" lon="-1.12212">
        <ele>21</ele>
        <time>2014-07-26T18:20:41Z</time>
      </trkpt>
      <trkpt lat="44.49471" lon="-1.12206">
        <ele>21</ele>
        <time>2014-07-26T18:20:43Z</time>
      </trkpt>
      <trkpt lat="44.49472" lon="-1.12196">
        <ele>21</ele>
        <time>2014-07-26T18:20:46Z</time>
      </trkpt>
      <trkpt lat="44.49472" lon="-1.12189">
        <ele>21</ele>
        <time>2014-07-26T18:20:48Z</time>
      </trkpt>
      <trkpt lat="44.49472" lon="-1.12178">
        <ele>21</ele>
        <time>2014-07-26T18:20:51Z</time>
      </trkpt>
      <trkpt lat="44.49472" lon="-1.12172">
        <ele>21</ele>
        <time>2014-07-26T18:20:53Z</time>
      </trkpt>
      <trkpt lat="44.49471" lon="-1.12162">
        <ele>21</ele>
        <time>2014-07-26T18:20:56Z</time>
      </trkpt>
      <trkpt lat="44.49471" lon="-1.12155">
        <ele>21</ele>
        <time>2014-07-26T18:20:58Z</time>
      </trkpt>
      <trkpt lat="44.49471" lon="-1.12145">
        <ele>21</ele>
        <time>2014-07-26T18:21:01Z</time>
      </trkpt>
      <trkpt lat="44.49471" lon="-1.12139">
        <ele>21</ele>
        <time>2014-07-26T18:21:03Z</time>
      </trkpt>
      <trkpt lat="44.4947" lon="-1.1213">
        <ele>21</ele>
        <time>2014-07-26T18:21:06Z</time>
      </trkpt>
      <trkpt lat="44.4947" lon="-1.12123">
        <ele>21</ele>
        <time>2014-07-26T18:21:08Z</time>
      </trkpt>
      <trkpt lat="44.49469" lon="-1.12113">
        <ele>21</ele>
        <time>2014-07-26T18:21:11Z</time>
      </trkpt>
      <trkpt lat="44.49468" lon="-1.12106">
        <ele>21</ele>
        <time>2014-07-26T18:21:13Z</time>
      </trkpt>
      <trkpt lat="44.49468" lon="-1.12096">
        <ele>21</ele>
        <time>2014-07-26T18:21:16Z</time>
      </trkpt>
      <trkpt lat="44.49467" lon="-1.12089">
        <ele>21</ele>
        <time>2014-07-26T18:21:18Z</time>
      </trkpt>
      <trkpt lat="44.49467" lon="-1.12079">
        <ele>21</ele>
        <time>2014-07-26T18:21:21Z</time>
      </trkpt>
      <trkpt lat="44.49466" lon="-1.12072">
        <ele>21</ele>
        <time>2014-07-26T18:21:23Z</time>
      </trkpt>
      <trkpt lat="44.49464" lon="-1.12061">
        <ele>21</ele>
        <time>2014-07-26T18:21:26Z</time>
      </trkpt>
      <trkpt lat="44.49463" lon="-1.12055">
        <ele>21</ele>
        <time>2014-07-26T18:21:28Z</time>
      </trkpt>
      <trkpt lat="44.49462" lon="-1.12044">
        <ele>21</ele>
        <time>2014-07-26T18:21:31Z</time>
      </trkpt>
      <trkpt lat="44.49462" lon="-1.12037">
        <ele>21</ele>
        <time>2014-07-26T18:21:33Z</time>
      </trkpt>
      <trkpt lat="44.4946" lon="-1.12025">
        <ele>21</ele>
        <time>2014-07-26T18:21:36Z</time>
      </trkpt>
      <trkpt lat="44.49459" lon="-1.12017">
        <ele>21</ele>
        <time>2014-07-26T18:21:38Z</time>
      </trkpt>
      <trkpt lat="44.49457" lon="-1.12006">
        <ele>21</ele>
        <time>2014-07-26T18:21:41Z</time>
      </trkpt>
      <trkpt lat="44.49456" lon="-1.11999">
        <ele>21</ele>
        <time>2014-07-26T18:21:43Z</time>
      </trkpt>
      <trkpt lat="44.49455" lon="-1.11987">
        <ele>21</ele>
        <time>2014-07-26T18:21:46Z</time>
      </trkpt>
      <trkpt lat="44.49454" lon="-1.11979">
        <ele>21</ele>
        <time>2014-07-26T18:21:48Z</time>
      </trkpt>
      <trkpt lat="44.49451" lon="-1.11968">
        <ele>21</ele>
        <time>2014-07-26T18:21:51Z</time>
      </trkpt>
      <trkpt lat="44.4945" lon="-1.11961">
        <ele>21</ele>
        <time>2014-07-26T18:21:53Z</time>
      </trkpt>
      <trkpt lat="44.49448" lon="-1.11951">
        <ele>21</ele>
        <time>2014-07-26T18:21:56Z</time>
      </trkpt>
      <trkpt lat="44.49447" lon="-1.11944">
        <ele>21</ele>
        <time>2014-07-26T18:21:58Z</time>
      </trkpt>
      <trkpt lat="44.49446" lon="-1.11934">
        <ele>21</ele>
        <time>2014-07-26T18:22:01Z</time>
      </trkpt>
      <trkpt lat="44.49446" lon="-1.11926">
        <ele>21</ele>
        <time>2014-07-26T18:22:03Z</time>
      </trkpt>
      <trkpt lat="44.49445" lon="-1.11915">
        <ele>21</ele>
        <time>2014-07-26T18:22:06Z</time>
      </trkpt>
      <trkpt lat="44.49445" lon="-1.11907">
        <ele>21</ele>
        <time>2014-07-26T18:22:08Z</time>
      </trkpt>
      <trkpt lat="44.49444" lon="-1.11895">
        <ele>21</ele>
        <time>2014-07-26T18:22:11Z</time>
      </trkpt>
      <trkpt lat="44.49444" lon="-1.11887">
        <ele>21</ele>
        <time>2014-07-26T18:22:13Z</time>
      </trkpt>
      <trkpt lat="44.49442" lon="-1.11877">
        <ele>21</ele>
        <time>2014-07-26T18:22:16Z</time>
      </trkpt>
      <trkpt lat="44.4944" lon="-1.1187">
        <ele>21</ele>
        <time>2014-07-26T18:22:18Z</time>
      </trkpt>
      <trkpt lat="44.49439" lon="-1.11859">
        <ele>21</ele>
        <time>2014-07-26T18:22:21Z</time>
      </trkpt>
      <trkpt lat="44.49437" lon="-1.11852">
        <ele>21</ele>
        <time>2014-07-26T18:22:23Z</time>
      </trkpt>
      <trkpt lat="44.49436" lon="-1.11842">
        <ele>21</ele>
        <time>2014-07-26T18:22:26Z</time>
      </trkpt>
      <trkpt lat="44.49436" lon="-1.11836">
        <ele>21</ele>
        <time>2014-07-26T18:22:28Z</time>
      </trkpt>
      <trkpt lat="44.49435" lon="-1.11826">
        <ele>21</ele>
        <time>2014-07-26T18:22:31Z</time>
      </trkpt>
      <trkpt lat="44.49435" lon="-1.11819">
        <ele>21</ele>
        <time>2014-07-26T18:22:33Z</time>
      </trkpt>
      <trkpt lat="44.49433" lon="-1.1181">
        <ele>21</ele>
        <time>2014-07-26T18:22:36Z</time>
      </trkpt>
      <trkpt lat="44.49432" lon="-1.11802">
        <ele>21</ele>
        <time>2014-07-26T18:22:39Z</time>
      </trkpt>
      <trkpt lat="44.4943" lon="-1.11793">
        <ele>21</ele>
        <time>2014-07-26T18:22:42Z</time>
      </trkpt>
      <trkpt lat="44.49429" lon="-1.11781">
        <ele>21</ele>
        <time>2014-07-26T18:22:46Z</time>
      </trkpt>
      <trkpt lat="44.49428" lon="-1.11772">
        <ele>21</ele>
        <time>2014-07-26T18:22:49Z</time>
      </trkpt>
      <trkpt lat="44.49427" lon="-1.11763">
        <ele>21</ele>
        <time>2014-07-26T18:22:52Z</time>
      </trkpt>
      <trkpt lat="44.49426" lon="-1.11751">
        <ele>21</ele>
        <time>2014-07-26T18:22:56Z</time>
      </trkpt>
      <trkpt lat="44.49426" lon="-1.11735">
        <ele>21</ele>
        <time>2014-07-26T18:23:01Z</time>
      </trkpt>
      <trkpt lat="44.49425" lon="-1.11725">
        <ele>21</ele>
        <time>2014-07-26T18:23:04Z</time>
      </trkpt>
      <trkpt lat="44.49425" lon="-1.11716">
        <ele>21</ele>
        <time>2014-07-26T18:23:07Z</time>
      </trkpt>
      <trkpt lat="44.49424" lon="-1.11704">
        <ele>21</ele>
        <time>2014-07-26T18:23:11Z</time>
      </trkpt>
      <trkpt lat="44.49422" lon="-1.11695">
        <ele>21</ele>
        <time>2014-07-26T18:23:14Z</time>
      </trkpt>
      <trkpt lat="44.49421" lon="-1.11686">
        <ele>21</ele>
        <time>2014-07-26T18:23:17Z</time>
      </trkpt>
      <trkpt lat="44.49421" lon="-1.1168">
        <ele>21</ele>
        <time>2014-07-26T18:23:19Z</time>
      </trkpt>
      <trkpt lat="44.49421" lon="-1.1167">
        <ele>21</ele>
        <time>2014-07-26T18:23:22Z</time>
      </trkpt>
      <trkpt lat="44.49421" lon="-1.11664">
        <ele>21</ele>
        <time>2014-07-26T18:23:24Z</time>
      </trkpt>
      <trkpt lat="44.49422" lon="-1.11657">
        <ele>21</ele>
        <time>2014-07-26T18:23:26Z</time>
      </trkpt>
      <trkpt lat="44.49422" lon="-1.11642">
        <ele>21</ele>
        <time>2014-07-26T18:23:31Z</time>
      </trkpt>
      <trkpt lat="44.49422" lon="-1.11626">
        <ele>21</ele>
        <time>2014-07-26T18:23:36Z</time>
      </trkpt>
      <trkpt lat="44.49422" lon="-1.11618">
        <ele>21</ele>
        <time>2014-07-26T18:23:39Z</time>
      </trkpt>
      <trkpt lat="44.49422" lon="-1.11609">
        <ele>21</ele>
        <time>2014-07-26T18:23:42Z</time>
      </trkpt>
      <trkpt lat="44.49422" lon="-1.11597">
        <ele>21</ele>
        <time>2014-07-26T18:23:46Z</time>
      </trkpt>
      <trkpt lat="44.49422" lon="-1.11588">
        <ele>21</ele>
        <time>2014-07-26T18:23:49Z</time>
      </trkpt>
      <trkpt lat="44.49422" lon="-1.11582">
        <ele>21</ele>
        <time>2014-07-26T18:23:51Z</time>
      </trkpt>
      <trkpt lat="44.49421" lon="-1.11573">
        <ele>21</ele>
        <time>2014-07-26T18:23:54Z</time>
      </trkpt>
      <trkpt lat="44.49421" lon="-1.11564">
        <ele>21</ele>
        <time>2014-07-26T18:23:57Z</time>
      </trkpt>
      <trkpt lat="44.49421" lon="-1.11554">
        <ele>21</ele>
        <time>2014-07-26T18:24:01Z</time>
      </trkpt>
      <trkpt lat="44.49421" lon="-1.11545">
        <ele>21</ele>
        <time>2014-07-26T18:24:04Z</time>
      </trkpt>
      <trkpt lat="44.49421" lon="-1.11537">
        <ele>21</ele>
        <time>2014-07-26T18:24:07Z</time>
      </trkpt>
      <trkpt lat="44.49422" lon="-1.11526">
        <ele>21</ele>
        <time>2014-07-26T18:24:11Z</time>
      </trkpt>
      <trkpt lat="44.49422" lon="-1.11517">
        <ele>21</ele>
        <time>2014-07-26T18:24:14Z</time>
      </trkpt>
      <trkpt lat="44.49422" lon="-1.11509">
        <ele>21</ele>
        <time>2014-07-26T18:24:17Z</time>
      </trkpt>
      <trkpt lat="44.49422" lon="-1.11498">
        <ele>21</ele>
        <time>2014-07-26T18:24:21Z</time>
      </trkpt>
      <trkpt lat="44.49422" lon="-1.11489">
        <ele>21</ele>
        <time>2014-07-26T18:24:24Z</time>
      </trkpt>
      <trkpt lat="44.49421" lon="-1.11481">
        <ele>21</ele>
        <time>2014-07-26T18:24:27Z</time>
      </trkpt>
      <trkpt lat="44.4942" lon="-1.1147">
        <ele>21</ele>
        <time>2014-07-26T18:24:31Z</time>
      </trkpt>
      <trkpt lat="44.4942" lon="-1.11462">
        <ele>21</ele>
        <time>2014-07-26T18:24:34Z</time>
      </trkpt>
      <trkpt lat="44.4942" lon="-1.11455">
        <ele>21</ele>
        <time>2014-07-26T18:24:37Z</time>
      </trkpt>
      <trkpt lat="44.49419" lon="-1.11444">
        <ele>21</ele>
        <time>2014-07-26T18:24:41Z</time>
      </trkpt>
      <trkpt lat="44.49418" lon="-1.11437">
        <ele>21</ele>
        <time>2014-07-26T18:24:44Z</time>
      </trkpt>
      <trkpt lat="44.49418" lon="-1.11429">
        <ele>21</ele>
        <time>2014-07-26T18:24:47Z</time>
      </trkpt>
      <trkpt lat="44.49418" lon="-1.11418">
        <ele>21</ele>
        <time>2014-07-26T18:24:51Z</time>
      </trkpt>
      <trkpt lat="44.49417" lon="-1.1141">
        <ele>21</ele>
        <time>2014-07-26T18:24:54Z</time>
      </trkpt>
      <trkpt lat="44.49417" lon="-1.11402">
        <ele>21</ele>
        <time>2014-07-26T18:24:57Z</time>
      </trkpt>
      <trkpt lat="44.49417" lon="-1.1139">
        <ele>21</ele>
        <time>2014-07-26T18:25:01Z</time>
      </trkpt>
      <trkpt lat="44.49417" lon="-1.11382">
        <ele>21</ele>
        <time>2014-07-26T18:25:04Z</time>
      </trkpt>
      <trkpt lat="44.49418" lon="-1.11373">
        <ele>21</ele>
        <time>2014-07-26T18:25:07Z</time>
      </trkpt>
      <trkpt lat="44.49418" lon="-1.11362">
        <ele>21</ele>
        <time>2014-07-26T18:25:11Z</time>
      </trkpt>
      <trkpt lat="44.49418" lon="-1.11354">
        <ele>21</ele>
        <time>2014-07-26T18:25:14Z</time>
      </trkpt>
      <trkpt lat="44.49417" lon="-1.11346">
        <ele>21</ele>
        <time>2014-07-26T18:25:17Z</time>
      </trkpt>
      <trkpt lat="44.49415" lon="-1.11335">
        <ele>21</ele>
        <time>2014-07-26T18:25:21Z</time>
      </trkpt>
      <trkpt lat="44.49414" lon="-1.11326">
        <ele>21</ele>
        <time>2014-07-26T18:25:24Z</time>
      </trkpt>
      <trkpt lat="44.49413" lon="-1.11317">
        <ele>21</ele>
        <time>2014-07-26T18:25:27Z</time>
      </trkpt>
      <trkpt lat="44.49411" lon="-1.11307">
        <ele>21</ele>
        <time>2014-07-26T18:25:31Z</time>
      </trkpt>
      <trkpt lat="44.4941" lon="-1.11299">
        <ele>21</ele>
        <time>2014-07-26T18:25:34Z</time>
      </trkpt>
      <trkpt lat="44.49409" lon="-1.11291">
        <ele>21</ele>
        <time>2014-07-26T18:25:37Z</time>
      </trkpt>
      <trkpt lat="44.49409" lon="-1.1128">
        <ele>21</ele>
        <time>2014-07-26T18:25:41Z</time>
      </trkpt>
      <trkpt lat="44.49409" lon="-1.11273">
        <ele>21</ele>
        <time>2014-07-26T18:25:44Z</time>
      </trkpt>
      <trkpt lat="44.49409" lon="-1.11265">
        <ele>21</ele>
        <time>2014-07-26T18:25:47Z</time>
      </trkpt>
      <trkpt lat="44.49408" lon="-1.11255">
        <ele>21</ele>
        <time>2014-07-26T18:25:51Z</time>
      </trkpt>
      <trkpt lat="44.49408" lon="-1.11246">
        <ele>21</ele>
        <time>2014-07-26T18:25:54Z</time>
      </trkpt>
      <trkpt lat="44.49408" lon="-1.11237">
        <ele>21</ele>
        <time>2014-07-26T18:25:57Z</time>
      </trkpt>
      <trkpt lat="44.49408" lon="-1.11222">
        <ele>21</ele>
        <time>2014-07-26T18:26:02Z</time>
      </trkpt>
      <trkpt lat="44.49408" lon="-1.1121">
        <ele>21</ele>
        <time>2014-07-26T18:26:06Z</time>
      </trkpt>
      <trkpt lat="44.49408" lon="-1.11201">
        <ele>21</ele>
        <time>2014-07-26T18:26:09Z</time>
      </trkpt>
      <trkpt lat="44.49407" lon="-1.11192">
        <ele>21</ele>
        <time>2014-07-26T18:26:12Z</time>
      </trkpt>
      <trkpt lat="44.49406" lon="-1.11179">
        <ele>21</ele>
        <time>2014-07-26T18:26:16Z</time>
      </trkpt>
      <trkpt lat="44.49405" lon="-1.11164">
        <ele>21</ele>
        <time>2014-07-26T18:26:21Z</time>
      </trkpt>
      <trkpt lat="44.49404" lon="-1.11155">
        <ele>21</ele>
        <time>2014-07-26T18:26:24Z</time>
      </trkpt>
      <trkpt lat="44.49404" lon="-1.11148">
        <ele>21</ele>
        <time>2014-07-26T18:26:26Z</time>
      </trkpt>
      <trkpt lat="44.49404" lon="-1.11141">
        <ele>21</ele>
        <time>2014-07-26T18:26:28Z</time>
      </trkpt>
      <trkpt lat="44.49403" lon="-1.11131">
        <ele>21</ele>
        <time>2014-07-26T18:26:31Z</time>
      </trkpt>
      <trkpt lat="44.49401" lon="-1.11121">
        <ele>21</ele>
        <time>2014-07-26T18:26:34Z</time>
      </trkpt>
      <trkpt lat="44.49401" lon="-1.11115">
        <ele>21</ele>
        <time>2014-07-26T18:26:36Z</time>
      </trkpt>
      <trkpt lat="44.494" lon="-1.11109">
        <ele>21</ele>
        <time>2014-07-26T18:26:38Z</time>
      </trkpt>
      <trkpt lat="44.49399" lon="-1.111">
        <ele>21</ele>
        <time>2014-07-26T18:26:41Z</time>
      </trkpt>
      <trkpt lat="44.49398" lon="-1.11091">
        <ele>21</ele>
        <time>2014-07-26T18:26:44Z</time>
      </trkpt>
      <trkpt lat="44.49397" lon="-1.11085">
        <ele>21</ele>
        <time>2014-07-26T18:26:46Z</time>
      </trkpt>
      <trkpt lat="44.49396" lon="-1.11076">
        <ele>21</ele>
        <time>2014-07-26T18:26:49Z</time>
      </trkpt>
      <trkpt lat="44.49396" lon="-1.11067">
        <ele>21</ele>
        <time>2014-07-26T18:26:52Z</time>
      </trkpt>
      <trkpt lat="44.49395" lon="-1.11055">
        <ele>21</ele>
        <time>2014-07-26T18:26:56Z</time>
      </trkpt>
      <trkpt lat="44.49394" lon="-1.11046">
        <ele>21</ele>
        <time>2014-07-26T18:26:59Z</time>
      </trkpt>
      <trkpt lat="44.49394" lon="-1.11032">
        <ele>21</ele>
        <time>2014-07-26T18:27:03Z</time>
      </trkpt>
      <trkpt lat="44.49394" lon="-1.11024">
        <ele>21</ele>
        <time>2014-07-26T18:27:06Z</time>
      </trkpt>
      <trkpt lat="44.49393" lon="-1.11015">
        <ele>21</ele>
        <time>2014-07-26T18:27:09Z</time>
      </trkpt>
      <trkpt lat="44.49393" lon="-1.11008">
        <ele>21</ele>
        <time>2014-07-26T18:27:11Z</time>
      </trkpt>
      <trkpt lat="44.49392" lon="-1.10999">
        <ele>21</ele>
        <time>2014-07-26T18:27:14Z</time>
      </trkpt>
      <trkpt lat="44.49391" lon="-1.1099">
        <ele>21</ele>
        <time>2014-07-26T18:27:17Z</time>
      </trkpt>
      <trkpt lat="44.4939" lon="-1.10974">
        <ele>21</ele>
        <time>2014-07-26T18:27:22Z</time>
      </trkpt>
      <trkpt lat="44.49389" lon="-1.10961">
        <ele>21</ele>
        <time>2014-07-26T18:27:26Z</time>
      </trkpt>
      <trkpt lat="44.49388" lon="-1.10955">
        <ele>21</ele>
        <time>2014-07-26T18:27:28Z</time>
      </trkpt>
      <trkpt lat="44.49387" lon="-1.10944">
        <ele>21</ele>
        <time>2014-07-26T18:27:31Z</time>
      </trkpt>
      <trkpt lat="44.49387" lon="-1.10937">
        <ele>21</ele>
        <time>2014-07-26T18:27:33Z</time>
      </trkpt>
      <trkpt lat="44.49386" lon="-1.10928">
        <ele>21</ele>
        <time>2014-07-26T18:27:36Z</time>
      </trkpt>
      <trkpt lat="44.49385" lon="-1.10921">
        <ele>21</ele>
        <time>2014-07-26T18:27:38Z</time>
      </trkpt>
      <trkpt lat="44.49385" lon="-1.1091">
        <ele>21</ele>
        <time>2014-07-26T18:27:41Z</time>
      </trkpt>
      <trkpt lat="44.49384" lon="-1.10903">
        <ele>21</ele>
        <time>2014-07-26T18:27:43Z</time>
      </trkpt>
      <trkpt lat="44.49384" lon="-1.10893">
        <ele>21</ele>
        <time>2014-07-26T18:27:46Z</time>
      </trkpt>
      <trkpt lat="44.49383" lon="-1.10887">
        <ele>21</ele>
        <time>2014-07-26T18:27:48Z</time>
      </trkpt>
      <trkpt lat="44.49381" lon="-1.10877">
        <ele>21</ele>
        <time>2014-07-26T18:27:51Z</time>
      </trkpt>
      <trkpt lat="44.4938" lon="-1.10868">
        <ele>21</ele>
        <time>2014-07-26T18:27:54Z</time>
      </trkpt>
      <trkpt lat="44.49378" lon="-1.1086">
        <ele>21</ele>
        <time>2014-07-26T18:27:57Z</time>
      </trkpt>
      <trkpt lat="44.49377" lon="-1.10847">
        <ele>21</ele>
        <time>2014-07-26T18:28:01Z</time>
      </trkpt>
      <trkpt lat="44.49378" lon="-1.10841">
        <ele>21</ele>
        <time>2014-07-26T18:28:03Z</time>
      </trkpt>
      <trkpt lat="44.49379" lon="-1.1083">
        <ele>21</ele>
        <time>2014-07-26T18:28:06Z</time>
      </trkpt>
      <trkpt lat="44.49379" lon="-1.10824">
        <ele>21</ele>
        <time>2014-07-26T18:28:08Z</time>
      </trkpt>
      <trkpt lat="44.49379" lon="-1.10814">
        <ele>21</ele>
        <time>2014-07-26T18:28:11Z</time>
      </trkpt>
      <trkpt lat="44.49379" lon="-1.10797">
        <ele>21</ele>
        <time>2014-07-26T18:28:16Z</time>
      </trkpt>
      <trkpt lat="44.49379" lon="-1.10789">
        <ele>21</ele>
        <time>2014-07-26T18:28:18Z</time>
      </trkpt>
      <trkpt lat="44.49379" lon="-1.10779">
        <ele>21</ele>
        <time>2014-07-26T18:28:21Z</time>
      </trkpt>
      <trkpt lat="44.49378" lon="-1.10763">
        <ele>21</ele>
        <time>2014-07-26T18:28:26Z</time>
      </trkpt>
      <trkpt lat="44.49377" lon="-1.10754">
        <ele>21</ele>
        <time>2014-07-26T18:28:29Z</time>
      </trkpt>
      <trkpt lat="44.49377" lon="-1.10744">
        <ele>21</ele>
        <time>2014-07-26T18:28:32Z</time>
      </trkpt>
      <trkpt lat="44.49375" lon="-1.10729">
        <ele>21</ele>
        <time>2014-07-26T18:28:37Z</time>
      </trkpt>
      <trkpt lat="44.49373" lon="-1.10717">
        <ele>21</ele>
        <time>2014-07-26T18:28:41Z</time>
      </trkpt>
      <trkpt lat="44.49372" lon="-1.1071">
        <ele>21</ele>
        <time>2014-07-26T18:28:43Z</time>
      </trkpt>
      <trkpt lat="44.4937" lon="-1.10702">
        <ele>21</ele>
        <time>2014-07-26T18:28:46Z</time>
      </trkpt>
      <trkpt lat="44.49368" lon="-1.10693">
        <ele>21</ele>
        <time>2014-07-26T18:28:49Z</time>
      </trkpt>
      <trkpt lat="44.49366" lon="-1.10684">
        <ele>21</ele>
        <time>2014-07-26T18:28:52Z</time>
      </trkpt>
      <trkpt lat="44.49365" lon="-1.10672">
        <ele>21</ele>
        <time>2014-07-26T18:28:56Z</time>
      </trkpt>
      <trkpt lat="44.49363" lon="-1.10663">
        <ele>21</ele>
        <time>2014-07-26T18:28:59Z</time>
      </trkpt>
      <trkpt lat="44.49362" lon="-1.10656">
        <ele>21</ele>
        <time>2014-07-26T18:29:02Z</time>
      </trkpt>
      <trkpt lat="44.4936" lon="-1.10645">
        <ele>21</ele>
        <time>2014-07-26T18:29:06Z</time>
      </trkpt>
      <trkpt lat="44.49358" lon="-1.10636">
        <ele>21</ele>
        <time>2014-07-26T18:29:09Z</time>
      </trkpt>
      <trkpt lat="44.49357" lon="-1.10628">
        <ele>21</ele>
        <time>2014-07-26T18:29:12Z</time>
      </trkpt>
      <trkpt lat="44.49355" lon="-1.10616">
        <ele>21</ele>
        <time>2014-07-26T18:29:16Z</time>
      </trkpt>
      <trkpt lat="44.49354" lon="-1.10607">
        <ele>21</ele>
        <time>2014-07-26T18:29:19Z</time>
      </trkpt>
      <trkpt lat="44.49353" lon="-1.10601">
        <ele>21</ele>
        <time>2014-07-26T18:29:21Z</time>
      </trkpt>
      <trkpt lat="44.49351" lon="-1.10592">
        <ele>21</ele>
        <time>2014-07-26T18:29:24Z</time>
      </trkpt>
      <trkpt lat="44.4935" lon="-1.10583">
        <ele>21</ele>
        <time>2014-07-26T18:29:27Z</time>
      </trkpt>
      <trkpt lat="44.49348" lon="-1.10577">
        <ele>21</ele>
        <time>2014-07-26T18:29:29Z</time>
      </trkpt>
      <trkpt lat="44.49347" lon="-1.1057">
        <ele>21</ele>
        <time>2014-07-26T18:29:31Z</time>
      </trkpt>
      <trkpt lat="44.49345" lon="-1.10562">
        <ele>21</ele>
        <time>2014-07-26T18:29:34Z</time>
      </trkpt>
      <trkpt lat="44.49343" lon="-1.10553">
        <ele>21</ele>
        <time>2014-07-26T18:29:37Z</time>
      </trkpt>
      <trkpt lat="44.49341" lon="-1.10547">
        <ele>21</ele>
        <time>2014-07-26T18:29:39Z</time>
      </trkpt>
      <trkpt lat="44.4934" lon="-1.10538">
        <ele>21</ele>
        <time>2014-07-26T18:29:42Z</time>
      </trkpt>
      <trkpt lat="44.49339" lon="-1.10532">
        <ele>21</ele>
        <time>2014-07-26T18:29:44Z</time>
      </trkpt>
      <trkpt lat="44.49338" lon="-1.10525">
        <ele>21</ele>
        <time>2014-07-26T18:29:46Z</time>
      </trkpt>
      <trkpt lat="44.49337" lon="-1.10518">
        <ele>21</ele>
        <time>2014-07-26T18:29:48Z</time>
      </trkpt>
      <trkpt lat="44.49335" lon="-1.10509">
        <ele>21</ele>
        <time>2014-07-26T18:29:51Z</time>
      </trkpt>
      <trkpt lat="44.49334" lon="-1.10503">
        <ele>21</ele>
        <time>2014-07-26T18:29:53Z</time>
      </trkpt>
      <trkpt lat="44.49332" lon="-1.10493">
        <ele>21</ele>
        <time>2014-07-26T18:29:56Z</time>
      </trkpt>
      <trkpt lat="44.49331" lon="-1.10484">
        <ele>21</ele>
        <time>2014-07-26T18:29:59Z</time>
      </trkpt>
      <trkpt lat="44.4933" lon="-1.10475">
        <ele>21</ele>
        <time>2014-07-26T18:30:02Z</time>
      </trkpt>
      <trkpt lat="44.49329" lon="-1.10463">
        <ele>21</ele>
        <time>2014-07-26T18:30:06Z</time>
      </trkpt>
      <trkpt lat="44.49328" lon="-1.10454">
        <ele>21</ele>
        <time>2014-07-26T18:30:09Z</time>
      </trkpt>
      <trkpt lat="44.49327" lon="-1.10445">
        <ele>21</ele>
        <time>2014-07-26T18:30:12Z</time>
      </trkpt>
      <trkpt lat="44.49326" lon="-1.10433">
        <ele>21</ele>
        <time>2014-07-26T18:30:16Z</time>
      </trkpt>
      <trkpt lat="44.49325" lon="-1.10424">
        <ele>21</ele>
        <time>2014-07-26T18:30:19Z</time>
      </trkpt>
      <trkpt lat="44.49323" lon="-1.10416">
        <ele>21</ele>
        <time>2014-07-26T18:30:22Z</time>
      </trkpt>
      <trkpt lat="44.49321" lon="-1.10405">
        <ele>21</ele>
        <time>2014-07-26T18:30:26Z</time>
      </trkpt>
      <trkpt lat="44.4932" lon="-1.10396">
        <ele>21</ele>
        <time>2014-07-26T18:30:29Z</time>
      </trkpt>
      <trkpt lat="44.49318" lon="-1.10384">
        <ele>21</ele>
        <time>2014-07-26T18:30:33Z</time>
      </trkpt>
      <trkpt lat="44.49316" lon="-1.10375">
        <ele>21</ele>
        <time>2014-07-26T18:30:36Z</time>
      </trkpt>
      <trkpt lat="44.49314" lon="-1.10366">
        <ele>21</ele>
        <time>2014-07-26T18:30:39Z</time>
      </trkpt>
      <trkpt lat="44.49312" lon="-1.10358">
        <ele>21</ele>
        <time>2014-07-26T18:30:42Z</time>
      </trkpt>
      <trkpt lat="44.4931" lon="-1.10347">
        <ele>21</ele>
        <time>2014-07-26T18:30:46Z</time>
      </trkpt>
      <trkpt lat="44.49307" lon="-1.10338">
        <ele>21</ele>
        <time>2014-07-26T18:30:49Z</time>
      </trkpt>
      <trkpt lat="44.49306" lon="-1.10329">
        <ele>21</ele>
        <time>2014-07-26T18:30:52Z</time>
      </trkpt>
      <trkpt lat="44.49304" lon="-1.10318">
        <ele>21</ele>
        <time>2014-07-26T18:30:56Z</time>
      </trkpt>
      <trkpt lat="44.49302" lon="-1.10309">
        <ele>21</ele>
        <time>2014-07-26T18:30:59Z</time>
      </trkpt>
      <trkpt lat="44.493" lon="-1.103">
        <ele>21</ele>
        <time>2014-07-26T18:31:02Z</time>
      </trkpt>
      <trkpt lat="44.49298" lon="-1.10288">
        <ele>21</ele>
        <time>2014-07-26T18:31:06Z</time>
      </trkpt>
      <trkpt lat="44.49296" lon="-1.1028">
        <ele>21</ele>
        <time>2014-07-26T18:31:09Z</time>
      </trkpt>
      <trkpt lat="44.49295" lon="-1.10271">
        <ele>21</ele>
        <time>2014-07-26T18:31:12Z</time>
      </trkpt>
      <trkpt lat="44.49293" lon="-1.1026">
        <ele>21</ele>
        <time>2014-07-26T18:31:16Z</time>
      </trkpt>
      <trkpt lat="44.49292" lon="-1.10251">
        <ele>21</ele>
        <time>2014-07-26T18:31:19Z</time>
      </trkpt>
      <trkpt lat="44.4929" lon="-1.10243">
        <ele>21</ele>
        <time>2014-07-26T18:31:22Z</time>
      </trkpt>
      <trkpt lat="44.49287" lon="-1.10232">
        <ele>21</ele>
        <time>2014-07-26T18:31:26Z</time>
      </trkpt>
      <trkpt lat="44.49285" lon="-1.10223">
        <ele>21</ele>
        <time>2014-07-26T18:31:29Z</time>
      </trkpt>
      <trkpt lat="44.49285" lon="-1.10215">
        <ele>21</ele>
        <time>2014-07-26T18:31:32Z</time>
      </trkpt>
      <trkpt lat="44.49283" lon="-1.10203">
        <ele>21</ele>
        <time>2014-07-26T18:31:36Z</time>
      </trkpt>
      <trkpt lat="44.49282" lon="-1.10195">
        <ele>21</ele>
        <time>2014-07-26T18:31:39Z</time>
      </trkpt>
      <trkpt lat="44.4928" lon="-1.10186">
        <ele>21</ele>
        <time>2014-07-26T18:31:42Z</time>
      </trkpt>
      <trkpt lat="44.49279" lon="-1.10176">
        <ele>21</ele>
        <time>2014-07-26T18:31:46Z</time>
      </trkpt>
      <trkpt lat="44.49276" lon="-1.10167">
        <ele>21</ele>
        <time>2014-07-26T18:31:49Z</time>
      </trkpt>
      <trkpt lat="44.49275" lon="-1.1016">
        <ele>21</ele>
        <time>2014-07-26T18:31:52Z</time>
      </trkpt>
      <trkpt lat="44.49274" lon="-1.10148">
        <ele>21</ele>
        <time>2014-07-26T18:31:56Z</time>
      </trkpt>
      <trkpt lat="44.49272" lon="-1.1014">
        <ele>21</ele>
        <time>2014-07-26T18:31:59Z</time>
      </trkpt>
      <trkpt lat="44.49271" lon="-1.10131">
        <ele>21</ele>
        <time>2014-07-26T18:32:02Z</time>
      </trkpt>
      <trkpt lat="44.49269" lon="-1.10119">
        <ele>21</ele>
        <time>2014-07-26T18:32:06Z</time>
      </trkpt>
      <trkpt lat="44.49268" lon="-1.10111">
        <ele>21</ele>
        <time>2014-07-26T18:32:09Z</time>
      </trkpt>
      <trkpt lat="44.49268" lon="-1.10102">
        <ele>21</ele>
        <time>2014-07-26T18:32:12Z</time>
      </trkpt>
      <trkpt lat="44.49266" lon="-1.10091">
        <ele>21</ele>
        <time>2014-07-26T18:32:16Z</time>
      </trkpt>
      <trkpt lat="44.49264" lon="-1.10083">
        <ele>21</ele>
        <time>2014-07-26T18:32:19Z</time>
      </trkpt>
      <trkpt lat="44.49264" lon="-1.10077">
        <ele>21</ele>
        <time>2014-07-26T18:32:21Z</time>
      </trkpt>
      <trkpt lat="44.49263" lon="-1.10068">
        <ele>21</ele>
        <time>2014-07-26T18:32:24Z</time>
      </trkpt>
      <trkpt lat="44.49262" lon="-1.1006">
        <ele>21</ele>
        <time>2014-07-26T18:32:27Z</time>
      </trkpt>
      <trkpt lat="44.49261" lon="-1.10048">
        <ele>21</ele>
        <time>2014-07-26T18:32:31Z</time>
      </trkpt>
      <trkpt lat="44.4926" lon="-1.1004">
        <ele>21</ele>
        <time>2014-07-26T18:32:34Z</time>
      </trkpt>
      <trkpt lat="44.49259" lon="-1.10032">
        <ele>21</ele>
        <time>2014-07-26T18:32:37Z</time>
      </trkpt>
      <trkpt lat="44.49258" lon="-1.10021">
        <ele>21</ele>
        <time>2014-07-26T18:32:41Z</time>
      </trkpt>
      <trkpt lat="44.49258" lon="-1.10012">
        <ele>21</ele>
        <time>2014-07-26T18:32:44Z</time>
      </trkpt>
      <trkpt lat="44.49257" lon="-1.10004">
        <ele>21</ele>
        <time>2014-07-26T18:32:47Z</time>
      </trkpt>
      <trkpt lat="44.49256" lon="-1.09994">
        <ele>21</ele>
        <time>2014-07-26T18:32:51Z</time>
      </trkpt>
      <trkpt lat="44.49256" lon="-1.09987">
        <ele>21</ele>
        <time>2014-07-26T18:32:53Z</time>
      </trkpt>
      <trkpt lat="44.49255" lon="-1.09978">
        <ele>21</ele>
        <time>2014-07-26T18:32:56Z</time>
      </trkpt>
      <trkpt lat="44.49254" lon="-1.09969">
        <ele>21</ele>
        <time>2014-07-26T18:32:59Z</time>
      </trkpt>
      <trkpt lat="44.49254" lon="-1.0996">
        <ele>21</ele>
        <time>2014-07-26T18:33:02Z</time>
      </trkpt>
      <trkpt lat="44.49253" lon="-1.09949">
        <ele>21</ele>
        <time>2014-07-26T18:33:06Z</time>
      </trkpt>
      <trkpt lat="44.49253" lon="-1.09932">
        <ele>21</ele>
        <time>2014-07-26T18:33:11Z</time>
      </trkpt>
      <trkpt lat="44.49252" lon="-1.09926">
        <ele>21</ele>
        <time>2014-07-26T18:33:13Z</time>
      </trkpt>
      <trkpt lat="44.49252" lon="-1.09915">
        <ele>21</ele>
        <time>2014-07-26T18:33:16Z</time>
      </trkpt>
      <trkpt lat="44.49251" lon="-1.09909">
        <ele>21</ele>
        <time>2014-07-26T18:33:18Z</time>
      </trkpt>
      <trkpt lat="44.49247" lon="-1.09901">
        <ele>21</ele>
        <time>2014-07-26T18:33:21Z</time>
      </trkpt>
      <trkpt lat="44.49245" lon="-1.09895">
        <ele>21</ele>
        <time>2014-07-26T18:33:23Z</time>
      </trkpt>
      <trkpt lat="44.49243" lon="-1.09887">
        <ele>21</ele>
        <time>2014-07-26T18:33:26Z</time>
      </trkpt>
      <trkpt lat="44.49243" lon="-1.09878">
        <ele>21</ele>
        <time>2014-07-26T18:33:29Z</time>
      </trkpt>
      <trkpt lat="44.49243" lon="-1.09871">
        <ele>21</ele>
        <time>2014-07-26T18:33:31Z</time>
      </trkpt>
      <trkpt lat="44.49244" lon="-1.09856">
        <ele>21</ele>
        <time>2014-07-26T18:33:36Z</time>
      </trkpt>
      <trkpt lat="44.49245" lon="-1.0985">
        <ele>21</ele>
        <time>2014-07-26T18:33:38Z</time>
      </trkpt>
      <trkpt lat="44.49245" lon="-1.0984">
        <ele>21</ele>
        <time>2014-07-26T18:33:41Z</time>
      </trkpt>
      <trkpt lat="44.49245" lon="-1.09834">
        <ele>21</ele>
        <time>2014-07-26T18:33:43Z</time>
      </trkpt>
      <trkpt lat="44.49244" lon="-1.09824">
        <ele>21</ele>
        <time>2014-07-26T18:33:46Z</time>
      </trkpt>
      <trkpt lat="44.49243" lon="-1.09816">
        <ele>21</ele>
        <time>2014-07-26T18:33:49Z</time>
      </trkpt>
      <trkpt lat="44.49242" lon="-1.09807">
        <ele>21</ele>
        <time>2014-07-26T18:33:52Z</time>
      </trkpt>
      <trkpt lat="44.49243" lon="-1.09795">
        <ele>21</ele>
        <time>2014-07-26T18:33:56Z</time>
      </trkpt>
      <trkpt lat="44.49242" lon="-1.09785">
        <ele>21</ele>
        <time>2014-07-26T18:33:59Z</time>
      </trkpt>
      <trkpt lat="44.49241" lon="-1.09777">
        <ele>21</ele>
        <time>2014-07-26T18:34:02Z</time>
      </trkpt>
      <trkpt lat="44.49239" lon="-1.09765">
        <ele>21</ele>
        <time>2014-07-26T18:34:06Z</time>
      </trkpt>
      <trkpt lat="44.49239" lon="-1.09755">
        <ele>21</ele>
        <time>2014-07-26T18:34:09Z</time>
      </trkpt>
      <trkpt lat="44.49238" lon="-1.09747">
        <ele>21</ele>
        <time>2014-07-26T18:34:12Z</time>
      </trkpt>
      <trkpt lat="44.49238" lon="-1.09735">
        <ele>21</ele>
        <time>2014-07-26T18:34:16Z</time>
      </trkpt>
      <trkpt lat="44.49238" lon="-1.09726">
        <ele>21</ele>
        <time>2014-07-26T18:34:19Z</time>
      </trkpt>
      <trkpt lat="44.49237" lon="-1.09717">
        <ele>21</ele>
        <time>2014-07-26T18:34:22Z</time>
      </trkpt>
      <trkpt lat="44.49237" lon="-1.09707">
        <ele>21</ele>
        <time>2014-07-26T18:34:26Z</time>
      </trkpt>
      <trkpt lat="44.49236" lon="-1.09699">
        <ele>21</ele>
        <time>2014-07-26T18:34:29Z</time>
      </trkpt>
      <trkpt lat="44.49235" lon="-1.09691">
        <ele>21</ele>
        <time>2014-07-26T18:34:32Z</time>
      </trkpt>
      <trkpt lat="44.49234" lon="-1.09679">
        <ele>21</ele>
        <time>2014-07-26T18:34:36Z</time>
      </trkpt>
      <trkpt lat="44.49233" lon="-1.0967">
        <ele>21</ele>
        <time>2014-07-26T18:34:39Z</time>
      </trkpt>
      <trkpt lat="44.49233" lon="-1.09662">
        <ele>21</ele>
        <time>2014-07-26T18:34:42Z</time>
      </trkpt>
      <trkpt lat="44.49232" lon="-1.09655">
        <ele>21</ele>
        <time>2014-07-26T18:34:44Z</time>
      </trkpt>
      <trkpt lat="44.49231" lon="-1.09647">
        <ele>21</ele>
        <time>2014-07-26T18:34:47Z</time>
      </trkpt>
      <trkpt lat="44.4923" lon="-1.09635">
        <ele>21</ele>
        <time>2014-07-26T18:34:51Z</time>
      </trkpt>
      <trkpt lat="44.49228" lon="-1.09627">
        <ele>21</ele>
        <time>2014-07-26T18:34:54Z</time>
      </trkpt>
      <trkpt lat="44.49227" lon="-1.09619">
        <ele>21</ele>
        <time>2014-07-26T18:34:57Z</time>
      </trkpt>
      <trkpt lat="44.49225" lon="-1.0961">
        <ele>21</ele>
        <time>2014-07-26T18:35:01Z</time>
      </trkpt>
      <trkpt lat="44.49224" lon="-1.09602">
        <ele>21</ele>
        <time>2014-07-26T18:35:04Z</time>
      </trkpt>
      <trkpt lat="44.49223" lon="-1.09595">
        <ele>21</ele>
        <time>2014-07-26T18:35:07Z</time>
      </trkpt>
      <trkpt lat="44.49221" lon="-1.09585">
        <ele>21</ele>
        <time>2014-07-26T18:35:11Z</time>
      </trkpt>
      <trkpt lat="44.4922" lon="-1.09577">
        <ele>21</ele>
        <time>2014-07-26T18:35:14Z</time>
      </trkpt>
      <trkpt lat="44.49219" lon="-1.0957">
        <ele>21</ele>
        <time>2014-07-26T18:35:17Z</time>
      </trkpt>
      <trkpt lat="44.49217" lon="-1.0956">
        <ele>21</ele>
        <time>2014-07-26T18:35:21Z</time>
      </trkpt>
      <trkpt lat="44.49216" lon="-1.09551">
        <ele>21</ele>
        <time>2014-07-26T18:35:24Z</time>
      </trkpt>
      <trkpt lat="44.49217" lon="-1.09542">
        <ele>21</ele>
        <time>2014-07-26T18:35:27Z</time>
      </trkpt>
      <trkpt lat="44.49217" lon="-1.0953">
        <ele>21</ele>
        <time>2014-07-26T18:35:31Z</time>
      </trkpt>
      <trkpt lat="44.49217" lon="-1.09521">
        <ele>21</ele>
        <time>2014-07-26T18:35:34Z</time>
      </trkpt>
      <trkpt lat="44.49217" lon="-1.09512">
        <ele>21</ele>
        <time>2014-07-26T18:35:37Z</time>
      </trkpt>
      <trkpt lat="44.49216" lon="-1.095">
        <ele>21</ele>
        <time>2014-07-26T18:35:41Z</time>
      </trkpt>
      <trkpt lat="44.49214" lon="-1.09491">
        <ele>21</ele>
        <time>2014-07-26T18:35:44Z</time>
      </trkpt>
      <trkpt lat="44.49213" lon="-1.09485">
        <ele>21</ele>
        <time>2014-07-26T18:35:46Z</time>
      </trkpt>
      <trkpt lat="44.49211" lon="-1.09477">
        <ele>21</ele>
        <time>2014-07-26T18:35:49Z</time>
      </trkpt>
      <trkpt lat="44.4921" lon="-1.09468">
        <ele>21</ele>
        <time>2014-07-26T18:35:52Z</time>
      </trkpt>
      <trkpt lat="44.49209" lon="-1.09457">
        <ele>21</ele>
        <time>2014-07-26T18:35:56Z</time>
      </trkpt>
      <trkpt lat="44.49208" lon="-1.0945">
        <ele>21</ele>
        <time>2014-07-26T18:35:58Z</time>
      </trkpt>
      <trkpt lat="44.49207" lon="-1.0944">
        <ele>21</ele>
        <time>2014-07-26T18:36:01Z</time>
      </trkpt>
      <trkpt lat="44.49206" lon="-1.09432">
        <ele>21</ele>
        <time>2014-07-26T18:36:04Z</time>
      </trkpt>
      <trkpt lat="44.49206" lon="-1.09423">
        <ele>21</ele>
        <time>2014-07-26T18:36:07Z</time>
      </trkpt>
      <trkpt lat="44.49206" lon="-1.09407">
        <ele>21</ele>
        <time>2014-07-26T18:36:12Z</time>
      </trkpt>
      <trkpt lat="44.49205" lon="-1.094">
        <ele>21</ele>
        <time>2014-07-26T18:36:14Z</time>
      </trkpt>
      <trkpt lat="44.49205" lon="-1.09394">
        <ele>21</ele>
        <time>2014-07-26T18:36:16Z</time>
      </trkpt>
      <trkpt lat="44.49205" lon="-1.09387">
        <ele>21</ele>
        <time>2014-07-26T18:36:18Z</time>
      </trkpt>
      <trkpt lat="44.49205" lon="-1.09377">
        <ele>21</ele>
        <time>2014-07-26T18:36:21Z</time>
      </trkpt>
      <trkpt lat="44.49204" lon="-1.0937">
        <ele>21</ele>
        <time>2014-07-26T18:36:23Z</time>
      </trkpt>
      <trkpt lat="44.49204" lon="-1.0936">
        <ele>21</ele>
        <time>2014-07-26T18:36:26Z</time>
      </trkpt>
      <trkpt lat="44.49203" lon="-1.09353">
        <ele>21</ele>
        <time>2014-07-26T18:36:28Z</time>
      </trkpt>
      <trkpt lat="44.49202" lon="-1.09342">
        <ele>21</ele>
        <time>2014-07-26T18:36:31Z</time>
      </trkpt>
      <trkpt lat="44.49203" lon="-1.09335">
        <ele>21</ele>
        <time>2014-07-26T18:36:33Z</time>
      </trkpt>
      <trkpt lat="44.49203" lon="-1.09325">
        <ele>21</ele>
        <time>2014-07-26T18:36:36Z</time>
      </trkpt>
      <trkpt lat="44.49203" lon="-1.09318">
        <ele>21</ele>
        <time>2014-07-26T18:36:38Z</time>
      </trkpt>
      <trkpt lat="44.49203" lon="-1.0931">
        <ele>21</ele>
        <time>2014-07-26T18:36:41Z</time>
      </trkpt>
      <trkpt lat="44.49203" lon="-1.09302">
        <ele>21</ele>
        <time>2014-07-26T18:36:44Z</time>
      </trkpt>
      <trkpt lat="44.49204" lon="-1.09294">
        <ele>21</ele>
        <time>2014-07-26T18:36:47Z</time>
      </trkpt>
      <trkpt lat="44.49205" lon="-1.09282">
        <ele>21</ele>
        <time>2014-07-26T18:36:51Z</time>
      </trkpt>
      <trkpt lat="44.49205" lon="-1.09274">
        <ele>21</ele>
        <time>2014-07-26T18:36:54Z</time>
      </trkpt>
      <trkpt lat="44.49206" lon="-1.09266">
        <ele>21</ele>
        <time>2014-07-26T18:36:57Z</time>
      </trkpt>
      <trkpt lat="44.49205" lon="-1.09255">
        <ele>21</ele>
        <time>2014-07-26T18:37:01Z</time>
      </trkpt>
      <trkpt lat="44.49205" lon="-1.09248">
        <ele>21</ele>
        <time>2014-07-26T18:37:04Z</time>
      </trkpt>
      <trkpt lat="44.49205" lon="-1.09241">
        <ele>21</ele>
        <time>2014-07-26T18:37:07Z</time>
      </trkpt>
      <trkpt lat="44.49204" lon="-1.0923">
        <ele>21</ele>
        <time>2014-07-26T18:37:11Z</time>
      </trkpt>
      <trkpt lat="44.49204" lon="-1.0922">
        <ele>21</ele>
        <time>2014-07-26T18:37:14Z</time>
      </trkpt>
      <trkpt lat="44.49203" lon="-1.09214">
        <ele>21</ele>
        <time>2014-07-26T18:37:16Z</time>
      </trkpt>
      <trkpt lat="44.49202" lon="-1.09205">
        <ele>21</ele>
        <time>2014-07-26T18:37:19Z</time>
      </trkpt>
      <trkpt lat="44.49202" lon="-1.09198">
        <ele>21</ele>
        <time>2014-07-26T18:37:21Z</time>
      </trkpt>
      <trkpt lat="44.49201" lon="-1.09191">
        <ele>21</ele>
        <time>2014-07-26T18:37:23Z</time>
      </trkpt>
      <trkpt lat="44.49201" lon="-1.09181">
        <ele>21</ele>
        <time>2014-07-26T18:37:26Z</time>
      </trkpt>
      <trkpt lat="44.49201" lon="-1.09174">
        <ele>21</ele>
        <time>2014-07-26T18:37:28Z</time>
      </trkpt>
      <trkpt lat="44.492" lon="-1.09164">
        <ele>21</ele>
        <time>2014-07-26T18:37:31Z</time>
      </trkpt>
      <trkpt lat="44.492" lon="-1.09158">
        <ele>21</ele>
        <time>2014-07-26T18:37:33Z</time>
      </trkpt>
      <trkpt lat="44.492" lon="-1.09147">
        <ele>21</ele>
        <time>2014-07-26T18:37:36Z</time>
      </trkpt>
      <trkpt lat="44.492" lon="-1.09141">
        <ele>21</ele>
        <time>2014-07-26T18:37:38Z</time>
      </trkpt>
      <trkpt lat="44.49199" lon="-1.0913">
        <ele>21</ele>
        <time>2014-07-26T18:37:41Z</time>
      </trkpt>
      <trkpt lat="44.49199" lon="-1.09114">
        <ele>21</ele>
        <time>2014-07-26T18:37:46Z</time>
      </trkpt>
      <trkpt lat="44.49199" lon="-1.09108">
        <ele>21</ele>
        <time>2014-07-26T18:37:48Z</time>
      </trkpt>
      <trkpt lat="44.49198" lon="-1.09098">
        <ele>21</ele>
        <time>2014-07-26T18:37:51Z</time>
      </trkpt>
      <trkpt lat="44.49198" lon="-1.09089">
        <ele>21</ele>
        <time>2014-07-26T18:37:54Z</time>
      </trkpt>
      <trkpt lat="44.49198" lon="-1.0908">
        <ele>21</ele>
        <time>2014-07-26T18:37:57Z</time>
      </trkpt>
      <trkpt lat="44.49198" lon="-1.09068">
        <ele>21</ele>
        <time>2014-07-26T18:38:01Z</time>
      </trkpt>
      <trkpt lat="44.49198" lon="-1.09061">
        <ele>21</ele>
        <time>2014-07-26T18:38:03Z</time>
      </trkpt>
      <trkpt lat="44.49198" lon="-1.09052">
        <ele>21</ele>
        <time>2014-07-26T18:38:06Z</time>
      </trkpt>
      <trkpt lat="44.49199" lon="-1.09043">
        <ele>21</ele>
        <time>2014-07-26T18:38:09Z</time>
      </trkpt>
      <trkpt lat="44.49199" lon="-1.09035">
        <ele>21</ele>
        <time>2014-07-26T18:38:11Z</time>
      </trkpt>
      <trkpt lat="44.49199" lon="-1.09028">
        <ele>21</ele>
        <time>2014-07-26T18:38:13Z</time>
      </trkpt>
      <trkpt lat="44.49198" lon="-1.09018">
        <ele>21</ele>
        <time>2014-07-26T18:38:16Z</time>
      </trkpt>
      <trkpt lat="44.49199" lon="-1.09011">
        <ele>21</ele>
        <time>2014-07-26T18:38:18Z</time>
      </trkpt>
      <trkpt lat="44.49199" lon="-1.09001">
        <ele>21</ele>
        <time>2014-07-26T18:38:21Z</time>
      </trkpt>
      <trkpt lat="44.49199" lon="-1.08995">
        <ele>21</ele>
        <time>2014-07-26T18:38:23Z</time>
      </trkpt>
      <trkpt lat="44.49199" lon="-1.08985">
        <ele>21</ele>
        <time>2014-07-26T18:38:26Z</time>
      </trkpt>
      <trkpt lat="44.49199" lon="-1.0897">
        <ele>21</ele>
        <time>2014-07-26T18:38:31Z</time>
      </trkpt>
      <trkpt lat="44.49199" lon="-1.08961">
        <ele>21</ele>
        <time>2014-07-26T18:38:34Z</time>
      </trkpt>
      <trkpt lat="44.492" lon="-1.08954">
        <ele>21</ele>
        <time>2014-07-26T18:38:36Z</time>
      </trkpt>
      <trkpt lat="44.492" lon="-1.08945">
        <ele>21</ele>
        <time>2014-07-26T18:38:39Z</time>
      </trkpt>
      <trkpt lat="44.492" lon="-1.08937">
        <ele>21</ele>
        <time>2014-07-26T18:38:42Z</time>
      </trkpt>
      <trkpt lat="44.492" lon="-1.08925">
        <ele>21</ele>
        <time>2014-07-26T18:38:46Z</time>
      </trkpt>
      <trkpt lat="44.49201" lon="-1.08917">
        <ele>21</ele>
        <time>2014-07-26T18:38:49Z</time>
      </trkpt>
      <trkpt lat="44.49201" lon="-1.08908">
        <ele>21</ele>
        <time>2014-07-26T18:38:52Z</time>
      </trkpt>
      <trkpt lat="44.492" lon="-1.08897">
        <ele>21</ele>
        <time>2014-07-26T18:38:56Z</time>
      </trkpt>
      <trkpt lat="44.49199" lon="-1.08889">
        <ele>21</ele>
        <time>2014-07-26T18:38:59Z</time>
      </trkpt>
      <trkpt lat="44.49199" lon="-1.08881">
        <ele>21</ele>
        <time>2014-07-26T18:39:02Z</time>
      </trkpt>
      <trkpt lat="44.49199" lon="-1.08869">
        <ele>21</ele>
        <time>2014-07-26T18:39:06Z</time>
      </trkpt>
      <trkpt lat="44.49198" lon="-1.08861">
        <ele>21</ele>
        <time>2014-07-26T18:39:09Z</time>
      </trkpt>
      <trkpt lat="44.49198" lon="-1.08851">
        <ele>21</ele>
        <time>2014-07-26T18:39:12Z</time>
      </trkpt>
      <trkpt lat="44.49198" lon="-1.08839">
        <ele>21</ele>
        <time>2014-07-26T18:39:16Z</time>
      </trkpt>
      <trkpt lat="44.49198" lon="-1.0883">
        <ele>21</ele>
        <time>2014-07-26T18:39:19Z</time>
      </trkpt>
      <trkpt lat="44.49198" lon="-1.08821">
        <ele>21</ele>
        <time>2014-07-26T18:39:22Z</time>
      </trkpt>
      <trkpt lat="44.49198" lon="-1.08809">
        <ele>21</ele>
        <time>2014-07-26T18:39:26Z</time>
      </trkpt>
      <trkpt lat="44.49198" lon="-1.088">
        <ele>21</ele>
        <time>2014-07-26T18:39:29Z</time>
      </trkpt>
      <trkpt lat="44.49199" lon="-1.08791">
        <ele>21</ele>
        <time>2014-07-26T18:39:32Z</time>
      </trkpt>
      <trkpt lat="44.49199" lon="-1.08779">
        <ele>21</ele>
        <time>2014-07-26T18:39:36Z</time>
      </trkpt>
      <trkpt lat="44.49199" lon="-1.0877">
        <ele>21</ele>
        <time>2014-07-26T18:39:39Z</time>
      </trkpt>
      <trkpt lat="44.49199" lon="-1.08761">
        <ele>21</ele>
        <time>2014-07-26T18:39:42Z</time>
      </trkpt>
      <trkpt lat="44.49199" lon="-1.08746">
        <ele>21</ele>
        <time>2014-07-26T18:39:47Z</time>
      </trkpt>
      <trkpt lat="44.49201" lon="-1.08734">
        <ele>21</ele>
        <time>2014-07-26T18:39:51Z</time>
      </trkpt>
      <trkpt lat="44.49202" lon="-1.08725">
        <ele>21</ele>
        <time>2014-07-26T18:39:54Z</time>
      </trkpt>
      <trkpt lat="44.49203" lon="-1.08717">
        <ele>21</ele>
        <time>2014-07-26T18:39:57Z</time>
      </trkpt>
      <trkpt lat="44.49203" lon="-1.08706">
        <ele>21</ele>
        <time>2014-07-26T18:40:01Z</time>
      </trkpt>
      <trkpt lat="44.49204" lon="-1.08698">
        <ele>21</ele>
        <time>2014-07-26T18:40:04Z</time>
      </trkpt>
      <trkpt lat="44.49205" lon="-1.08691">
        <ele>21</ele>
        <time>2014-07-26T18:40:07Z</time>
      </trkpt>
      <trkpt lat="44.49207" lon="-1.0868">
        <ele>21</ele>
        <time>2014-07-26T18:40:11Z</time>
      </trkpt>
      <trkpt lat="44.49207" lon="-1.08673">
        <ele>21</ele>
        <time>2014-07-26T18:40:14Z</time>
      </trkpt>
      <trkpt lat="44.49207" lon="-1.08665">
        <ele>21</ele>
        <time>2014-07-26T18:40:17Z</time>
      </trkpt>
      <trkpt lat="44.49207" lon="-1.08654">
        <ele>21</ele>
        <time>2014-07-26T18:40:21Z</time>
      </trkpt>
      <trkpt lat="44.49206" lon="-1.08647">
        <ele>21</ele>
        <time>2014-07-26T18:40:23Z</time>
      </trkpt>
      <trkpt lat="44.49205" lon="-1.08637">
        <ele>21</ele>
        <time>2014-07-26T18:40:26Z</time>
      </trkpt>
      <trkpt lat="44.49204" lon="-1.08628">
        <ele>21</ele>
        <time>2014-07-26T18:40:29Z</time>
      </trkpt>
      <trkpt lat="44.49204" lon="-1.08621">
        <ele>21</ele>
        <time>2014-07-26T18:40:31Z</time>
      </trkpt>
      <trkpt lat="44.49204" lon="-1.08605">
        <ele>21</ele>
        <time>2014-07-26T18:40:36Z</time>
      </trkpt>
      <trkpt lat="44.49205" lon="-1.08599">
        <ele>21</ele>
        <time>2014-07-26T18:40:38Z</time>
      </trkpt>
      <trkpt lat="44.49206" lon="-1.08589">
        <ele>21</ele>
        <time>2014-07-26T18:40:41Z</time>
      </trkpt>
      <trkpt lat="44.49208" lon="-1.08583">
        <ele>21</ele>
        <time>2014-07-26T18:40:43Z</time>
      </trkpt>
      <trkpt lat="44.49209" lon="-1.08573">
        <ele>21</ele>
        <time>2014-07-26T18:40:46Z</time>
      </trkpt>
      <trkpt lat="44.4921" lon="-1.08566">
        <ele>21</ele>
        <time>2014-07-26T18:40:48Z</time>
      </trkpt>
      <trkpt lat="44.49212" lon="-1.08556">
        <ele>21</ele>
        <time>2014-07-26T18:40:51Z</time>
      </trkpt>
      <trkpt lat="44.49213" lon="-1.0855">
        <ele>21</ele>
        <time>2014-07-26T18:40:53Z</time>
      </trkpt>
      <trkpt lat="44.49215" lon="-1.08539">
        <ele>21</ele>
        <time>2014-07-26T18:40:56Z</time>
      </trkpt>
      <trkpt lat="44.49216" lon="-1.08532">
        <ele>21</ele>
        <time>2014-07-26T18:40:58Z</time>
      </trkpt>
      <trkpt lat="44.49218" lon="-1.08522">
        <ele>21</ele>
        <time>2014-07-26T18:41:01Z</time>
      </trkpt>
      <trkpt lat="44.49219" lon="-1.08515">
        <ele>21</ele>
        <time>2014-07-26T18:41:03Z</time>
      </trkpt>
      <trkpt lat="44.49221" lon="-1.08506">
        <ele>21</ele>
        <time>2014-07-26T18:41:06Z</time>
      </trkpt>
      <trkpt lat="44.49223" lon="-1.08499">
        <ele>21</ele>
        <time>2014-07-26T18:41:08Z</time>
      </trkpt>
      <trkpt lat="44.49225" lon="-1.0849">
        <ele>21</ele>
        <time>2014-07-26T18:41:11Z</time>
      </trkpt>
      <trkpt lat="44.49227" lon="-1.08482">
        <ele>21</ele>
        <time>2014-07-26T18:41:14Z</time>
      </trkpt>
      <trkpt lat="44.4923" lon="-1.08474">
        <ele>21</ele>
        <time>2014-07-26T18:41:17Z</time>
      </trkpt>
      <trkpt lat="44.49233" lon="-1.08462">
        <ele>21</ele>
        <time>2014-07-26T18:41:21Z</time>
      </trkpt>
      <trkpt lat="44.49235" lon="-1.08456">
        <ele>21</ele>
        <time>2014-07-26T18:41:23Z</time>
      </trkpt>
      <trkpt lat="44.49238" lon="-1.08446">
        <ele>21</ele>
        <time>2014-07-26T18:41:26Z</time>
      </trkpt>
      <trkpt lat="44.4924" lon="-1.0844">
        <ele>21</ele>
        <time>2014-07-26T18:41:28Z</time>
      </trkpt>
      <trkpt lat="44.49243" lon="-1.0843">
        <ele>21</ele>
        <time>2014-07-26T18:41:31Z</time>
      </trkpt>
      <trkpt lat="44.49245" lon="-1.08424">
        <ele>21</ele>
        <time>2014-07-26T18:41:33Z</time>
      </trkpt>
      <trkpt lat="44.49249" lon="-1.08415">
        <ele>21</ele>
        <time>2014-07-26T18:41:36Z</time>
      </trkpt>
      <trkpt lat="44.49252" lon="-1.08409">
        <ele>21</ele>
        <time>2014-07-26T18:41:38Z</time>
      </trkpt>
      <trkpt lat="44.49257" lon="-1.08397">
        <ele>21</ele>
        <time>2014-07-26T18:41:41Z</time>
      </trkpt>
      <trkpt lat="44.49258" lon="-1.0839">
        <ele>21</ele>
        <time>2014-07-26T18:41:43Z</time>
      </trkpt>
      <trkpt lat="44.49261" lon="-1.0838">
        <ele>21</ele>
        <time>2014-07-26T18:41:46Z</time>
      </trkpt>
      <trkpt lat="44.49263" lon="-1.08373">
        <ele>21</ele>
        <time>2014-07-26T18:41:48Z</time>
      </trkpt>
      <trkpt lat="44.49266" lon="-1.08363">
        <ele>21</ele>
        <time>2014-07-26T18:41:51Z</time>
      </trkpt>
      <trkpt lat="44.49268" lon="-1.08357">
        <ele>21</ele>
        <time>2014-07-26T18:41:53Z</time>
      </trkpt>
      <trkpt lat="44.49271" lon="-1.08347">
        <ele>21</ele>
        <time>2014-07-26T18:41:56Z</time>
      </trkpt>
      <trkpt lat="44.49274" lon="-1.0834">
        <ele>21</ele>
        <time>2014-07-26T18:41:58Z</time>
      </trkpt>
      <trkpt lat="44.49277" lon="-1.0833">
        <ele>21</ele>
        <time>2014-07-26T18:42:01Z</time>
      </trkpt>
      <trkpt lat="44.4928" lon="-1.08323">
        <ele>21</ele>
        <time>2014-07-26T18:42:03Z</time>
      </trkpt>
      <trkpt lat="44.49283" lon="-1.08314">
        <ele>21</ele>
        <time>2014-07-26T18:42:06Z</time>
      </trkpt>
      <trkpt lat="44.49286" lon="-1.08308">
        <ele>21</ele>
        <time>2014-07-26T18:42:08Z</time>
      </trkpt>
      <trkpt lat="44.49288" lon="-1.08298">
        <ele>21</ele>
        <time>2014-07-26T18:42:11Z</time>
      </trkpt>
      <trkpt lat="44.49291" lon="-1.08292">
        <ele>21</ele>
        <time>2014-07-26T18:42:13Z</time>
      </trkpt>
      <trkpt lat="44.49295" lon="-1.08283">
        <ele>21</ele>
        <time>2014-07-26T18:42:16Z</time>
      </trkpt>
      <trkpt lat="44.49298" lon="-1.08276">
        <ele>21</ele>
        <time>2014-07-26T18:42:18Z</time>
      </trkpt>
      <trkpt lat="44.493" lon="-1.08268">
        <ele>21</ele>
        <time>2014-07-26T18:42:21Z</time>
      </trkpt>
      <trkpt lat="44.49302" lon="-1.08262">
        <ele>21</ele>
        <time>2014-07-26T18:42:23Z</time>
      </trkpt>
      <trkpt lat="44.49306" lon="-1.08253">
        <ele>21</ele>
        <time>2014-07-26T18:42:26Z</time>
      </trkpt>
      <trkpt lat="44.49307" lon="-1.08246">
        <ele>21</ele>
        <time>2014-07-26T18:42:28Z</time>
      </trkpt>
      <trkpt lat="44.49311" lon="-1.08236">
        <ele>21</ele>
        <time>2014-07-26T18:42:31Z</time>
      </trkpt>
      <trkpt lat="44.49314" lon="-1.0823">
        <ele>21</ele>
        <time>2014-07-26T18:42:33Z</time>
      </trkpt>
      <trkpt lat="44.49319" lon="-1.08218">
        <ele>21</ele>
        <time>2014-07-26T18:42:36Z</time>
      </trkpt>
      <trkpt lat="44.4932" lon="-1.08211">
        <ele>21</ele>
        <time>2014-07-26T18:42:38Z</time>
      </trkpt>
      <trkpt lat="44.49323" lon="-1.08202">
        <ele>21</ele>
        <time>2014-07-26T18:42:41Z</time>
      </trkpt>
      <trkpt lat="44.49326" lon="-1.08196">
        <ele>21</ele>
        <time>2014-07-26T18:42:43Z</time>
      </trkpt>
      <trkpt lat="44.49328" lon="-1.08185">
        <ele>21</ele>
        <time>2014-07-26T18:42:46Z</time>
      </trkpt>
      <trkpt lat="44.4933" lon="-1.08179">
        <ele>21</ele>
        <time>2014-07-26T18:42:48Z</time>
      </trkpt>
      <trkpt lat="44.49333" lon="-1.08168">
        <ele>21</ele>
        <time>2014-07-26T18:42:51Z</time>
      </trkpt>
      <trkpt lat="44.49334" lon="-1.08161">
        <ele>21</ele>
        <time>2014-07-26T18:42:53Z</time>
      </trkpt>
      <trkpt lat="44.49337" lon="-1.08151">
        <ele>21</ele>
        <time>2014-07-26T18:42:56Z</time>
      </trkpt>
      <trkpt lat="44.49339" lon="-1.08144">
        <ele>21</ele>
        <time>2014-07-26T18:42:58Z</time>
      </trkpt>
      <trkpt lat="44.49342" lon="-1.08136">
        <ele>21</ele>
        <time>2014-07-26T18:43:01Z</time>
      </trkpt>
      <trkpt lat="44.49345" lon="-1.0813">
        <ele>21</ele>
        <time>2014-07-26T18:43:03Z</time>
      </trkpt>
      <trkpt lat="44.49346" lon="-1.08123">
        <ele>21</ele>
        <time>2014-07-26T18:43:06Z</time>
      </trkpt>
      <trkpt lat="44.49348" lon="-1.08115">
        <ele>21</ele>
        <time>2014-07-26T18:43:09Z</time>
      </trkpt>
      <trkpt lat="44.4935" lon="-1.08108">
        <ele>21</ele>
        <time>2014-07-26T18:43:11Z</time>
      </trkpt>
      <trkpt lat="44.49352" lon="-1.08102">
        <ele>21</ele>
        <time>2014-07-26T18:43:13Z</time>
      </trkpt>
      <trkpt lat="44.49354" lon="-1.08094">
        <ele>21</ele>
        <time>2014-07-26T18:43:16Z</time>
      </trkpt>
      <trkpt lat="44.49357" lon="-1.08088">
        <ele>21</ele>
        <time>2014-07-26T18:43:18Z</time>
      </trkpt>
      <trkpt lat="44.49359" lon="-1.08081">
        <ele>21</ele>
        <time>2014-07-26T18:43:21Z</time>
      </trkpt>
      <trkpt lat="44.49362" lon="-1.08072">
        <ele>21</ele>
        <time>2014-07-26T18:43:24Z</time>
      </trkpt>
      <trkpt lat="44.49365" lon="-1.08067">
        <ele>21</ele>
        <time>2014-07-26T18:43:26Z</time>
      </trkpt>
      <trkpt lat="44.49368" lon="-1.08059">
        <ele>21</ele>
        <time>2014-07-26T18:43:29Z</time>
      </trkpt>
      <trkpt lat="44.49369" lon="-1.08052">
        <ele>21</ele>
        <time>2014-07-26T18:43:32Z</time>
      </trkpt>
      <trkpt lat="44.49371" lon="-1.08042">
        <ele>21</ele>
        <time>2014-07-26T18:43:36Z</time>
      </trkpt>
      <trkpt lat="44.49373" lon="-1.08035">
        <ele>21</ele>
        <time>2014-07-26T18:43:39Z</time>
      </trkpt>
      <trkpt lat="44.49375" lon="-1.08028">
        <ele>21</ele>
        <time>2014-07-26T18:43:42Z</time>
      </trkpt>
      <trkpt lat="44.49378" lon="-1.08018">
        <ele>21</ele>
        <time>2014-07-26T18:43:46Z</time>
      </trkpt>
      <trkpt lat="44.49381" lon="-1.0801">
        <ele>21</ele>
        <time>2014-07-26T18:43:49Z</time>
      </trkpt>
      <trkpt lat="44.49384" lon="-1.08002">
        <ele>21</ele>
        <time>2014-07-26T18:43:52Z</time>
      </trkpt>
      <trkpt lat="44.49388" lon="-1.07993">
        <ele>21</ele>
        <time>2014-07-26T18:43:56Z</time>
      </trkpt>
      <trkpt lat="44.4939" lon="-1.07985">
        <ele>21</ele>
        <time>2014-07-26T18:43:59Z</time>
      </trkpt>
      <trkpt lat="44.49393" lon="-1.07978">
        <ele>21</ele>
        <time>2014-07-26T18:44:02Z</time>
      </trkpt>
      <trkpt lat="44.49397" lon="-1.07969">
        <ele>21</ele>
        <time>2014-07-26T18:44:06Z</time>
      </trkpt>
      <trkpt lat="44.494" lon="-1.07961">
        <ele>21</ele>
        <time>2014-07-26T18:44:09Z</time>
      </trkpt>
      <trkpt lat="44.49403" lon="-1.07954">
        <ele>21</ele>
        <time>2014-07-26T18:44:12Z</time>
      </trkpt>
      <trkpt lat="44.49406" lon="-1.07945">
        <ele>21</ele>
        <time>2014-07-26T18:44:16Z</time>
      </trkpt>
      <trkpt lat="44.49409" lon="-1.07938">
        <ele>21</ele>
        <time>2014-07-26T18:44:19Z</time>
      </trkpt>
      <trkpt lat="44.49412" lon="-1.0793">
        <ele>21</ele>
        <time>2014-07-26T18:44:22Z</time>
      </trkpt>
      <trkpt lat="44.49418" lon="-1.07922">
        <ele>21</ele>
        <time>2014-07-26T18:44:26Z</time>
      </trkpt>
      <trkpt lat="44.49422" lon="-1.07917">
        <ele>21</ele>
        <time>2014-07-26T18:44:29Z</time>
      </trkpt>
      <trkpt lat="44.49426" lon="-1.07914">
        <ele>21</ele>
        <time>2014-07-26T18:44:32Z</time>
      </trkpt>
      <trkpt lat="44.49432" lon="-1.07913">
        <ele>21</ele>
        <time>2014-07-26T18:44:36Z</time>
      </trkpt>
      <trkpt lat="44.49437" lon="-1.07914">
        <ele>21</ele>
        <time>2014-07-26T18:44:41Z</time>
      </trkpt>
      <trkpt lat="44.49439" lon="-1.0792">
        <ele>21</ele>
        <time>2014-07-26T18:44:51Z</time>
      </trkpt>
      <trkpt lat="44.49441" lon="-1.07926">
        <ele>21</ele>
        <time>2014-07-26T18:45:01Z</time>
      </trkpt>
      <trkpt lat="44.49439" lon="-1.07923">
        <ele>21</ele>
        <time>2014-07-26T18:50:21Z</time>
      </trkpt>
    </trkseg>
  </trk>
</gpx>